[[{"header":{"parameterUnit":"m.s-1","parameterCategory":1,"la1":31.0,"la2":29.5877,"lo1":-88.7671,"lo2":-86.6584,"dy":0.0162,"dx":0.0185,"nx":115,"ny":88,"refTime":"2025-07-28T00:00:00:Z","depth":0,"parameterNumber":2,"parameterNumberName":"U-component_of_WINDS"},"data":[0.0,0.0,0.0,0.0,0.0,0.0,0.0,0.0,0.0,0.0,0.0,0.0,0.0,0.0,0.0,0.0,0.0,0.0,0.0,0.0,0.0,0.0,0.0,0.0,0.0,0.0,0.0,0.0,0.0,0.0,0.0,0.0,0.0,0.0,0.0,0.0,0.0,0.0,0.0,0.0,0.0,0.0,0.0,0.0,0.0,0.0,0.0,0.0,0.0,0.0,0.0,0.0,0.0,0.0,0.0,0.0,0.0,0.0,0.0,0.0,0.0,0.0,0.0,0.0,0.0,0.0,0.0,0.0,0.0,0.0,0.0,0.0,0.0,0.0,0.0,0.0,0.0,0.0,0.0,0.0,0.0,0.0,0.0,0.0,0.0,0.0,0.0,0.0,0.0,0.0,0.0,0.0,0.0,0.0,0.0,0.0,0.0,0.0,0.0,0.0,0.0,0.0,0.0,0.0,0.0,0.0,0.0,0.0,0.0,0.0,0.0,0.0,0.0,0.0,0.0,0.0,0.0,0.0,0.0,0.0,0.0,0.0,0.0,0.0,0.0,0.0,0.0,0.0,0.0,0.0,0.0,0.0,0.0,0.0,0.0,0.0,0.0,0.0,0.0,0.0,0.0,0.0,0.0,0.0,0.0,0.0,0.0,0.0,0.0,0.0,0.0,0.0,0.0,0.0,0.0,0.0,0.0,0.0,0.0,0.0,0.0,0.0,0.0,0.0,0.0,0.0,0.0,0.0,0.0,0.0,0.0,0.0,0.0,0.0,0.0,0.0,0.0,0.0,0.0,0.0,0.0,0.0,0.0,0.0,0.0,0.0,0.0,0.0,0.0,0.0,0.0,0.0,0.0,0.0,0.0,0.0,0.0,0.0,0.0,0.0,0.0,0.0,0.0,0.0,0.0,0.0,0.0,0.0,0.0,0.0,0.0,0.0,0.0,0.0,0.0,0.0,0.0,0.0,0.0,0.0,0.0,0.0,0.0,0.0,0.0,0.0,0.0,0.0,0.0,0.0,0.0,0.0,0.0,0.0,0.0,0.0,0.0,0.0,0.0,0.0,0.0,0.0,0.0,0.0,0.0,0.0,0.0,0.0,0.0,0.0,0.0,0.0,0.0,0.0,0.0,0.0,0.0,0.0,0.0,0.0,0.0,0.0,0.0,0.0,0.0,0.0,0.0,0.0,0.0,0.0,0.0,0.0,0.0,0.0,0.0,0.0,0.0,0.0,0.0,0.0,0.0,0.0,0.0,0.0,0.0,0.0,0.0,0.0,0.0,0.0,0.0,0.0,0.0,0.0,0.0,0.0,0.0,0.0,0.0,0.0,0.0,0.0,0.0,0.0,0.0,0.0,0.0,0.0,0.0,0.0,0.0,0.0,0.0,0.0,0.0,0.0,0.0,0.0,0.0,0.0,0.0,0.0,0.0,0.0,0.0,0.0,0.0,0.0,0.0,0.0,0.0,0.0,0.0,0.0,0.0,0.0,0.0,0.0,0.0,0.0,0.0,0.0,0.0,0.0,0.0,0.0,0.0,0.0,0.0,0.0,0.0,0.0,0.0,0.0,0.0,0.0,0.0,0.0,0.0,0.0,0.0,0.0,0.0,0.0,0.0,0.0,0.0,0.0,0.0,0.0,0.0,0.0,0.0,0.0,0.0,0.0,0.0,0.0,0.0,0.0,0.0,0.0,0.0,0.0,0.0,0.0,0.0,0.0,0.0,0.0,0.0,0.0,0.0,0.0,0.0,0.0,0.0,0.0,0.0,0.0,0.0,0.0,0.0,0.0,0.0,0.0,0.0,0.0,0.0,0.0,0.0,0.0,0.0,0.0,0.0,0.0,0.0,0.0,0.0,0.0,0.0,0.0,0.0,0.0,0.0,0.0,0.0,0.0,0.0,0.0,0.0,0.0,0.0,0.0,0.0,0.0,0.0,0.0,0.0,0.0,0.0,0.0,0.0,0.0,0.0,0.0,0.0,0.0,0.0,0.0,0.0,0.0,0.0,0.0,0.0,0.0,0.0,0.0,0.0,0.0,0.0,0.0,0.0,0.0,0.0,0.0,0.0,0.0,0.0,0.0,0.0,0.0,0.0,0.0,0.0,0.0,0.0,0.0,0.0,0.0,0.0,0.0,0.0,0.0,0.0,0.0,0.0,0.0,0.0,0.0,0.0,0.0,0.0,0.0,0.0,0.0,0.0,0.0,0.0,0.0,0.0,0.0,0.0,0.0,0.0,0.0,0.0,0.0,0.0,0.0,0.0,0.0,0.0,0.0,0.0,0.0,0.0,0.0,0.0,0.0,0.0,0.0,0.0,0.0,0.0,0.0,0.0,0.0,0.0,0.0,0.0,0.0,0.0,0.0,0.0,0.0,0.0,0.0,0.0,0.0,0.0,0.0,0.0,0.0,0.0,0.0,0.0,0.0,0.0,0.0,0.0,0.0,0.0,0.0,0.0,0.0,0.0,0.0,0.0,0.0,0.0,0.0,0.0,0.0,0.0,0.0,0.0,0.0,0.0,0.0,0.0,0.0,0.0,0.0,0.0,0.0,0.0,0.0,0.0,0.0,0.0,0.0,0.0,0.0,0.0,0.0,0.0,0.0,0.0,0.0,0.0,0.0,0.0,0.0,0.0,0.0,0.0,0.0,0.0,0.0,0.0,0.0,0.0,0.0,0.0,0.0,0.0,0.0,0.0,0.0,0.0,0.0,0.0,0.0,0.0,0.0,0.0,0.0,0.0,0.0,0.0,0.0,0.0,0.0,0.0,0.0,0.0,0.0,0.0,0.0,0.0,0.0,0.0,0.0,0.0,0.0,0.0,0.0,0.0,0.0,0.0,0.0,0.0,0.0,0.0,0.0,0.0,0.0,0.0,0.0,0.0,0.0,0.0,0.0,0.0,0.0,0.0,0.0,0.0,0.0,0.0,0.0,0.0,0.0,0.0,0.0,0.0,0.0,0.0,0.0,0.0,0.0,0.0,0.0,0.0,0.0,0.0,0.0,0.0,0.0,0.0,0.0,0.0,0.0,0.0,0.0,0.0,0.0,0.0,0.0,0.0,0.0,0.0,0.0,0.0,0.0,0.0,0.0,0.0,0.0,0.0,0.0,0.0,0.0,0.0,0.0,0.0,0.0,0.0,0.0,0.0,0.0,0.0,0.0,0.0,0.0,0.0,0.0,0.0,0.0,0.0,0.0,0.0,0.0,0.0,0.0,0.0,0.0,0.0,0.0,0.0,0.0,0.0,0.0,0.0,0.0,0.0,0.0,0.0,0.0,0.0,0.0,0.0,0.0,0.0,0.0,0.0,0.0,0.0,0.0,0.0,0.0,0.0,0.0,0.0,0.0,0.0,0.0,0.0,0.0,0.0,0.0,0.0,0.0,0.0,0.0,0.0,0.0,0.0,0.0,0.0,0.0,0.0,0.0,0.0,0.0,0.0,0.0,0.0,0.0,0.0,0.0,0.0,0.0,0.0,0.0,0.0,0.0,0.0,0.0,0.0,0.0,0.0,0.0,0.0,0.0,0.0,0.0,0.0,0.0,0.0,0.0,0.0,0.0,0.0,0.0,0.0,0.0,0.0,0.0,0.0,0.0,0.0,0.0,0.0,0.0,0.0,0.0,0.0,0.0,0.0,0.0,0.0,0.0,0.0,0.0,0.0,0.0,0.0,0.0,0.0,0.0,0.0,0.0,0.0,0.0,0.0,0.0,0.0,0.0,0.0,0.0,0.0,0.0,0.0,0.0,0.0,0.0,0.0,0.0,0.0,0.0,0.0,0.0,0.0,0.0,0.0,0.0,0.0,0.0,0.0,0.0,0.0,0.0,0.0,0.0,0.0,0.0,0.0,0.0,0.0,0.0,0.0,0.0,0.0,0.0,0.0,0.0,0.0,0.0,0.0,0.0,0.0,0.0,0.0,0.0,0.0,0.0,0.0,0.0,0.0,0.0,0.0,0.0,0.0,0.0,0.0,0.0,0.0,0.0,0.0,0.0,0.0,0.0,0.0,0.0,0.0,0.0,0.0,0.0,0.0,0.0,0.0,0.0,0.0,0.0,0.0,0.0,0.0,0.0,0.0,0.0,0.0,0.0,0.0,0.0,0.0,0.0,0.0,0.0,0.0,0.0,0.0,0.0,0.0,0.0,0.0,0.0,0.0,0.0,0.0,0.0,0.0,0.0,0.0,0.0,0.0,0.0,0.0,0.0,0.0,0.0,0.0,0.0,0.0,0.0,0.0,0.0,0.0,0.0,0.0,0.0,0.0,0.0,0.0,0.0,-0.8816,0.0,0.0,0.0,0.0,0.0,0.0,0.0,0.0,0.0,0.0,0.0,0.0,0.0,0.0,0.0,0.0,0.0,0.0,0.0,0.0,0.0,0.0,0.0,0.0,0.0,0.0,0.0,0.0,0.0,0.0,0.0,0.0,0.0,0.0,0.0,0.0,0.0,0.0,0.0,0.0,0.0,0.0,0.0,0.0,0.0,0.0,0.0,0.0,0.0,0.0,0.0,0.0,0.0,0.0,0.0,0.0,0.0,0.0,0.0,0.0,0.0,0.0,0.0,0.0,0.0,0.0,0.0,0.0,0.0,0.0,0.0,0.0,0.0,0.0,0.0,0.0,0.0,0.0,0.0,0.0,0.0,0.0,0.0,0.0,0.0,0.0,0.0,0.0,0.0,0.0,0.0,0.0,0.0,0.0,0.0,0.0,0.0,0.0,0.0,0.0,0.0,0.0,0.0,0.0,0.0,0.0,0.0,0.0,0.0,0.0,-0.8592,-0.8643,-0.8679,-0.8703,-0.8729,0.0,0.0,0.0,0.0,0.0,0.0,0.0,0.0,0.0,0.0,0.0,0.0,0.0,0.0,0.0,0.0,0.0,0.0,0.0,0.0,0.0,0.0,0.0,0.0,0.0,0.0,0.0,0.0,0.0,0.0,0.0,0.0,0.0,0.0,0.0,0.0,0.0,0.0,0.0,0.0,0.0,0.0,0.0,0.0,0.0,0.0,0.0,0.0,0.0,0.0,0.0,0.0,0.0,0.0,0.0,0.0,0.0,0.0,0.0,0.0,0.0,0.0,0.0,0.0,0.0,0.0,0.0,0.0,0.0,0.0,0.0,0.0,0.0,0.0,0.0,0.0,0.0,0.0,0.0,0.0,0.0,0.0,0.0,0.0,0.0,0.0,0.0,0.0,0.0,0.0,0.0,0.0,0.0,0.0,0.0,0.0,0.0,0.0,0.0,0.0,0.0,0.0,0.0,0.0,0.0,0.0,0.0,0.0,0.0,0.0,0.0,0.0,-0.8656,-0.8606,-0.8669,0.0,0.0,0.0,0.0,0.0,0.0,0.0,0.0,0.0,0.0,0.0,0.0,0.0,0.0,0.0,0.0,0.0,0.0,0.0,0.0,0.0,0.0,0.0,0.0,0.0,0.0,0.0,0.0,0.0,0.0,0.0,0.0,0.0,0.0,0.0,0.0,0.0,0.0,0.0,0.0,0.0,0.0,0.0,0.0,0.0,0.0,0.0,0.0,0.0,0.0,0.0,0.0,0.0,0.0,0.0,0.0,0.0,0.0,0.0,0.0,0.0,0.0,0.0,0.0,0.0,0.0,0.0,0.0,0.0,0.0,0.0,0.0,0.0,0.0,0.0,0.0,0.0,0.0,0.0,0.0,0.0,0.0,0.0,0.0,0.0,0.0,0.0,0.0,0.0,0.0,0.0,0.0,0.0,0.0,0.0,0.0,0.0,0.0,0.0,0.0,0.0,0.0,0.0,0.0,0.0,0.0,0.0,0.0,0.0,0.0,-0.8734,-0.9384,-0.883,0.0,-0.8599,0.0,0.0,0.0,0.0,0.0,0.0,0.0,0.0,0.0,0.0,0.0,0.0,0.0,0.0,0.0,0.0,0.0,0.0,0.0,0.0,0.0,0.0,0.0,0.0,0.0,0.0,0.0,0.0,0.0,0.0,0.0,0.0,0.0,0.0,0.0,0.0,0.0,0.0,0.0,0.0,0.0,0.0,0.0,0.0,0.0,0.0,0.0,0.0,0.0,0.0,0.0,0.0,0.0,0.0,0.0,0.0,0.0,0.0,0.0,0.0,0.0,0.0,0.0,0.0,0.0,0.0,0.0,0.0,0.0,0.0,0.0,0.0,0.0,0.0,0.0,0.0,0.0,0.0,0.0,0.0,0.0,0.0,0.0,0.0,0.0,0.0,0.0,0.0,0.0,0.0,0.0,0.0,0.0,0.0,0.0,0.0,0.0,0.0,0.0,0.0,0.0,0.0,0.0,0.0,0.0,0.0,0.0,0.0,0.0,0.0,-0.9239,-0.9962,-0.9748,-0.948,0.0,0.0,0.0,0.0,0.0,0.0,0.0,0.0,0.0,0.0,0.0,0.0,0.0,0.0,0.0,0.0,0.0,0.0,0.0,0.0,0.0,0.0,0.0,0.0,0.0,0.0,0.0,0.0,0.0,0.0,0.0,0.0,0.0,0.0,0.0,0.0,0.0,0.0,0.0,0.0,0.0,0.0,0.0,0.0,0.0,0.0,0.0,0.0,0.0,0.0,0.0,0.0,0.0,0.0,0.0,0.0,0.0,0.0,0.0,0.0,0.0,0.0,0.0,0.0,0.0,0.0,0.0,0.0,0.0,0.0,0.0,0.0,0.0,0.0,0.0,0.0,0.0,0.0,0.0,0.0,0.0,0.0,0.0,0.0,0.0,0.0,0.0,0.0,0.0,0.0,0.0,0.0,0.0,0.0,0.0,0.0,0.0,0.0,0.0,0.0,0.0,0.0,0.0,0.0,0.0,0.0,0.0,0.0,0.0,0.0,-0.9375,-0.974,-1.0257,-1.0503,-1.035,-0.974,0.0,0.0,0.0,0.0,0.0,0.0,0.0,0.0,0.0,0.0,0.0,0.0,0.0,0.0,0.0,0.0,0.0,0.0,0.0,0.0,0.0,0.0,0.0,0.0,0.0,0.0,0.0,0.0,0.0,0.0,0.0,0.0,0.0,0.0,0.0,0.0,0.0,0.0,0.0,0.0,0.0,0.0,0.0,0.0,0.0,0.0,0.0,0.0,0.0,0.0,0.0,0.0,0.0,0.0,0.0,0.0,0.0,0.0,0.0,0.0,0.0,0.0,0.0,0.0,0.0,0.0,0.0,0.0,0.0,0.0,0.0,0.0,0.0,0.0,0.0,0.0,0.0,0.0,0.0,0.0,0.0,0.0,0.0,0.0,0.0,0.0,0.0,0.0,0.0,0.0,0.0,0.0,0.0,0.0,0.0,0.0,0.0,0.0,0.0,0.0,0.0,0.0,0.0,0.0,0.0,0.0,0.0,0.0,0.0,-0.98,-1.0182,-1.0251,-1.0885,-1.0952,0.0,0.0,0.0,0.0,0.0,0.0,0.0,0.0,0.0,0.0,0.0,0.0,0.0,0.0,0.0,0.0,0.0,0.0,0.0,0.0,0.0,0.0,0.0,0.0,0.0,0.0,0.0,0.0,0.0,0.0,0.0,0.0,0.0,0.0,0.0,0.0,0.0,0.0,0.0,0.0,0.0,0.0,0.0,0.0,0.0,0.0,0.0,0.0,0.0,0.0,0.0,0.0,0.0,0.0,0.0,0.0,0.0,0.0,0.0,0.0,0.0,0.0,0.0,0.0,0.0,0.0,0.0,0.0,0.0,0.0,0.0,0.0,0.0,0.0,0.0,0.0,0.0,0.0,0.0,0.0,0.0,0.0,0.0,0.0,0.0,0.0,0.0,0.0,0.0,0.0,0.0,0.0,0.0,0.0,0.0,0.0,0.0,0.0,0.0,0.0,0.0,0.0,0.0,0.0,0.0,0.0,0.0,0.0,0.0,-1.03,-1.1034,-1.1445,-1.149,-1.1745,-1.1573,0.0,0.0,0.0,0.0,0.0,0.0,0.0,0.0,0.0,0.0,0.0,0.0,0.0,0.0,0.0,0.0,0.0,0.0,0.0,0.0,0.0,0.0,0.0,0.0,0.0,0.0,0.0,0.0,0.0,0.0,0.0,0.0,0.0,0.0,0.0,0.0,0.0,0.0,0.0,0.0,0.0,0.0,0.0,0.0,0.0,0.0,0.0,0.0,0.0,0.0,0.0,0.0,0.0,0.0,0.0,0.0,0.0,0.0,0.0,0.0,0.0,0.0,0.0,0.0,0.0,0.0,0.0,0.0,0.0,0.0,0.0,0.0,0.0,0.0,0.0,0.0,0.0,0.0,0.0,0.0,0.0,0.0,0.0,0.0,0.0,0.0,0.0,0.0,0.0,0.0,0.0,0.0,0.0,0.0,0.0,0.0,0.0,0.0,0.0,0.0,0.0,0.0,0.0,0.0,0.0,0.0,0.0,0.0,0.0,-1.1607,0.0,-1.2396,0.0,-1.2461,-1.2179,0.0,0.0,0.0,0.0,0.0,0.0,0.0,0.0,0.0,0.0,0.0,0.0,0.0,0.0,0.0,0.0,0.0,0.0,0.0,0.0,0.0,0.0,0.0,0.0,0.0,0.0,0.0,0.0,0.0,0.0,0.0,0.0,0.0,0.0,0.0,0.0,0.0,0.0,0.0,0.0,0.0,0.0,0.0,0.0,0.0,0.0,0.0,0.0,0.0,0.0,0.0,0.0,0.0,0.0,0.0,0.0,0.0,0.0,0.0,0.0,0.0,0.0,0.0,0.0,0.0,0.0,0.0,0.0,0.0,0.0,0.0,0.0,0.0,0.0,0.0,0.0,0.0,0.0,0.0,0.0,0.0,0.0,0.0,0.0,0.0,0.0,0.0,0.0,0.0,0.0,0.0,0.0,0.0,0.0,0.0,0.0,0.0,0.0,0.0,0.0,0.0,0.0,0.0,0.0,0.0,0.0,0.0,0.0,-1.1513,-1.2917,-1.2989,-1.3004,-1.302,-1.3004,-1.2734,0.0,0.0,0.0,0.0,0.0,0.0,0.0,0.0,0.0,0.0,0.0,0.0,0.0,0.0,0.0,0.0,0.0,0.0,0.0,0.0,0.0,0.0,0.0,0.0,0.0,0.0,0.0,0.0,0.0,0.0,0.0,0.0,0.0,0.0,0.0,0.0,0.0,0.0,0.0,0.0,0.0,0.0,0.0,0.0,0.0,0.0,0.0,0.0,0.0,0.0,0.0,0.0,0.0,0.0,0.0,0.0,0.0,0.0,0.0,0.0,0.0,0.0,0.0,0.0,0.0,0.0,0.0,0.0,0.0,0.0,0.0,0.0,0.0,0.0,0.0,0.0,0.0,0.0,0.0,0.0,0.0,0.0,0.0,0.0,0.0,0.0,0.0,0.0,0.0,0.0,0.0,0.0,0.0,0.0,0.0,0.0,0.0,0.0,0.0,0.0,0.0,0.0,0.0,0.0,0.0,0.0,0.0,0.0,0.0,-1.3438,-1.3533,-1.3569,-1.3621,-1.367,-1.3372,0.0,0.0,0.0,0.0,0.0,0.0,0.0,0.0,0.0,0.0,0.0,0.0,0.0,0.0,0.0,0.0,0.0,0.0,0.0,0.0,0.0,0.0,0.0,0.0,0.0,0.0,0.0,0.0,0.0,0.0,0.0,0.0,0.0,0.0,0.0,0.0,0.0,0.0,0.0,0.0,0.0,0.0,0.0,0.0,0.0,0.0,0.0,0.0,0.0,0.0,0.0,0.0,0.0,0.0,0.0,0.0,0.0,0.0,0.0,0.0,0.0,0.0,0.0,0.0,0.0,0.0,0.0,0.0,0.0,0.0,0.0,0.0,0.0,0.0,0.0,0.0,0.0,0.0,0.0,0.0,0.0,0.0,0.0,0.0,0.0,0.0,0.0,0.0,0.0,0.0,0.0,0.0,0.0,0.0,0.0,0.0,0.0,0.0,0.0,0.0,0.0,0.0,0.0,0.0,0.0,0.0,0.0,0.0,0.0,-1.4554,-1.45,-1.4448,-1.4488,-1.4543,-1.404,-1.2957,0.0,0.0,0.0,0.0,0.0,0.0,0.0,0.0,0.0,0.0,0.0,0.0,0.0,0.0,0.0,0.0,0.0,0.0,0.0,0.0,0.0,0.0,0.0,0.0,0.0,0.0,0.0,0.0,0.0,0.0,0.0,0.0,0.0,0.0,0.0,0.0,0.0,0.0,0.0,0.0,0.0,0.0,0.0,0.0,0.0,0.0,0.0,0.0,0.0,0.0,0.0,0.0,0.0,0.0,0.0,0.0,0.0,0.0,0.0,0.0,0.0,0.0,0.0,0.0,0.0,0.0,0.0,0.0,0.0,0.0,0.0,0.0,0.0,0.0,0.0,0.0,0.0,0.0,0.0,0.0,0.0,0.0,0.0,0.0,0.0,0.0,0.0,0.0,0.0,0.0,0.0,0.0,0.0,0.0,0.0,0.0,0.0,0.0,0.0,0.0,0.0,0.0,0.0,0.0,0.0,0.0,0.0,0.0,-1.6209,-1.5868,-1.5654,-1.561,-1.5566,-1.4724,0.0,0.0,0.0,0.0,0.0,0.0,0.0,0.0,0.0,0.0,0.0,0.0,0.0,0.0,0.0,0.0,0.0,0.0,0.0,0.0,0.0,0.0,0.0,0.0,0.0,0.0,0.0,0.0,0.0,0.0,0.0,0.0,0.0,0.0,0.0,0.0,0.0,0.0,0.0,0.0,0.0,0.0,0.0,0.0,0.0,0.0,0.0,0.0,0.0,0.0,0.0,0.0,0.0,0.0,0.0,0.0,0.0,0.0,0.0,0.0,0.0,0.0,0.0,0.0,0.0,0.0,0.0,0.0,0.0,0.0,0.0,0.0,0.0,0.0,0.0,0.0,0.0,0.0,0.0,0.0,0.0,0.0,0.0,0.0,0.0,0.0,0.0,0.0,0.0,0.0,0.0,0.0,0.0,0.0,0.0,0.0,0.0,0.0,0.0,0.0,0.0,0.0,0.0,0.0,0.0,0.0,0.0,0.0,0.0,-1.7781,-1.7912,-1.7592,-1.6864,-1.6446,-1.5772,0.0,0.0,0.0,0.0,0.0,0.0,0.0,0.0,0.0,0.0,0.0,0.0,0.0,0.0,0.0,0.0,0.0,0.0,0.0,0.0,0.0,0.0,0.0,0.0,0.0,0.0,0.0,0.0,0.0,0.0,0.0,0.0,0.0,0.0,0.0,0.0,0.0,0.0,0.0,0.0,0.0,0.0,0.0,0.0,0.0,0.0,0.0,0.0,0.0,0.0,0.0,0.0,0.0,0.0,0.0,0.0,0.0,0.0,0.0,0.0,0.0,0.0,0.0,0.0,0.0,0.0,0.0,0.0,0.0,0.0,0.0,0.0,0.0,0.0,0.0,0.0,0.0,0.0,0.0,0.0,0.0,0.0,0.0,0.0,0.0,0.0,0.0,0.0,0.0,0.0,0.0,0.0,0.0,0.0,0.0,0.0,0.0,0.0,0.0,0.0,0.0,0.0,0.0,0.0,0.0,0.0,0.0,0.0,-1.6661,-1.8352,-1.9063,-1.9157,-1.8583,-1.7866,-1.6795,0.0,0.0,0.0,0.0,0.0,0.0,0.0,0.0,0.0,0.0,0.0,0.0,0.0,0.0,0.0,0.0,0.0,0.0,0.0,0.0,0.0,0.0,0.0,0.0,0.0,0.0,0.0,0.0,0.0,0.0,0.0,0.0,0.0,0.0,0.0,0.0,0.0,0.0,0.0,0.0,0.0,0.0,0.0,0.0,0.0,0.0,0.0,0.0,0.0,0.0,0.0,0.0,0.0,0.0,0.0,0.0,0.0,0.0,0.0,0.0,0.0,0.0,0.0,0.0,0.0,0.0,0.0,0.0,0.0,0.0,0.0,0.0,0.0,0.0,0.0,0.0,0.0,0.0,0.0,0.0,0.0,0.0,0.0,0.0,0.0,0.0,0.0,0.0,0.0,0.0,0.0,0.0,0.0,0.0,0.0,0.0,0.0,0.0,0.0,0.0,0.0,0.0,0.0,0.0,0.0,0.0,0.0,0.0,-1.7727,-1.8458,-1.9712,-2.0342,-2.0328,-1.9353,-1.7737,0.0,0.0,0.0,0.0,0.0,0.0,0.0,0.0,0.0,0.0,0.0,0.0,0.0,0.0,0.0,0.0,0.0,0.0,0.0,0.0,0.0,0.0,0.0,0.0,0.0,0.0,0.0,0.0,0.0,0.0,0.0,0.0,0.0,0.0,0.0,0.0,0.0,0.0,0.0,0.0,0.0,0.0,0.0,0.0,0.0,0.0,0.0,0.0,0.0,0.0,0.0,0.0,0.0,0.0,0.0,0.0,0.0,0.0,0.0,0.0,0.0,0.0,0.0,0.0,0.0,0.0,0.0,0.0,0.0,0.0,0.0,0.0,0.0,0.0,0.0,0.0,0.0,0.0,0.0,0.0,0.0,0.0,0.0,0.0,0.0,0.0,0.0,0.0,0.0,0.0,0.0,0.0,0.0,0.0,0.0,0.0,0.0,0.0,0.0,0.0,0.0,0.0,0.0,0.0,0.0,0.0,0.0,0.0,-1.8604,-2.0119,-2.0555,-2.077,-2.0756,-1.9498,-1.8337,0.0,0.0,0.0,0.0,0.0,0.0,0.0,0.0,0.0,0.0,0.0,0.0,0.0,0.0,0.0,0.0,0.0,0.0,0.0,0.0,0.0,0.0,0.0,0.0,0.0,0.0,0.0,0.0,0.0,0.0,0.0,0.0,0.0,0.0,0.0,0.0,0.0,0.0,0.0,0.0,0.0,0.0,0.0,0.0,0.0,0.0,0.0,0.0,-0.9767,0.0,0.0,0.0,0.0,0.0,0.0,0.0,0.0,0.0,0.0,0.0,0.0,0.0,0.0,0.0,0.0,0.0,0.0,0.0,0.0,0.0,0.0,0.0,0.0,0.0,0.0,0.0,0.0,0.0,0.0,0.0,0.0,0.0,0.0,0.0,0.0,0.0,0.0,0.0,0.0,0.0,0.0,0.0,0.0,0.0,0.0,0.0,0.0,0.0,0.0,0.0,0.0,0.0,0.0,0.0,0.0,0.0,0.0,0.0,-1.9187,-2.0951,-2.1434,-2.1657,-2.1588,-2.0436,-1.9101,0.0,0.0,0.0,0.0,0.0,0.0,0.0,0.0,0.0,0.0,0.0,0.0,0.0,0.0,0.0,0.0,0.0,0.0,0.0,0.0,0.0,0.0,0.0,0.0,0.0,0.0,0.0,0.0,0.0,0.0,0.0,0.0,0.0,0.0,0.0,0.0,0.0,0.0,0.0,0.0,0.0,0.0,0.0,0.0,0.0,0.0,0.0,0.0,0.0,0.0,0.0,0.0,0.0,0.0,0.0,0.0,0.0,0.0,0.0,0.0,0.0,0.0,0.0,0.0,0.0,0.0,0.0,0.0,0.0,0.0,0.0,0.0,0.0,0.0,0.0,0.0,0.0,0.0,0.0,0.0,0.0,0.0,0.0,0.0,0.0,0.0,0.0,0.0,0.0,0.0,0.0,0.0,0.0,0.0,0.0,0.0,0.0,0.0,0.0,0.0,0.0,0.0,0.0,0.0,0.0,0.0,0.0,-1.8217,-1.9728,-2.1442,-2.2217,-2.2576,-2.2467,-2.1509,-1.9877,-1.7611,0.0,0.0,0.0,0.0,0.0,0.0,0.0,0.0,0.0,0.0,0.0,0.0,0.0,0.0,0.0,0.0,0.0,0.0,0.0,0.0,0.0,0.0,0.0,0.0,0.0,0.0,0.0,0.0,0.0,0.0,0.0,0.0,0.0,0.0,0.0,0.0,0.0,0.0,-1.1096,-1.1695,0.0,0.0,0.0,0.0,0.0,0.0,0.0,0.0,-1.2105,0.0,0.0,0.0,0.0,0.0,0.0,0.0,0.0,0.0,0.0,0.0,0.0,0.0,0.0,0.0,0.0,0.0,0.0,0.0,0.0,0.0,0.0,0.0,0.0,0.0,0.0,0.0,0.0,0.0,0.0,0.0,0.0,0.0,0.0,0.0,0.0,0.0,0.0,0.0,0.0,0.0,0.0,0.0,0.0,0.0,0.0,0.0,0.0,0.0,0.0,0.0,0.0,0.0,0.0,0.0,0.0,-1.7295,-1.9132,-2.0738,-2.1953,-2.2701,-2.2834,-2.2344,-2.1675,-2.0461,-1.863,0.0,0.0,0.0,0.0,0.0,0.0,0.0,0.0,0.0,0.0,0.0,0.0,0.0,0.0,0.0,0.0,0.0,0.0,0.0,0.0,0.0,0.0,0.0,0.0,0.0,0.0,0.0,0.0,0.0,0.0,0.0,0.0,0.0,0.0,0.0,0.0,0.0,0.0,0.0,-1.2408,-1.259,0.0,0.0,0.0,0.0,0.0,0.0,0.0,0.0,-1.2611,0.0,0.0,0.0,0.0,0.0,0.0,0.0,0.0,0.0,0.0,0.0,0.0,0.0,0.0,0.0,0.0,0.0,0.0,0.0,0.0,0.0,0.0,0.0,0.0,0.0,0.0,0.0,0.0,0.0,0.0,0.0,0.0,0.0,0.0,0.0,0.0,0.0,0.0,0.0,0.0,0.0,0.0,0.0,0.0,0.0,0.0,0.0,0.0,0.0,0.0,0.0,0.0,0.0,0.0,0.0,-1.7882,-1.9694,-2.1267,-2.2533,-2.3218,-2.3298,-2.2781,-2.2196,-2.1057,0.0,0.0,0.0,0.0,0.0,0.0,0.0,0.0,0.0,0.0,0.0,0.0,0.0,0.0,0.0,0.0,0.0,0.0,0.0,0.0,0.0,0.0,0.0,0.0,0.0,0.0,0.0,0.0,0.0,0.0,0.0,0.0,0.0,0.0,0.0,0.0,0.0,0.0,0.0,0.0,-1.2713,-1.3071,-1.368,0.0,0.0,0.0,0.0,0.0,0.0,-1.3585,-1.3165,0.0,0.0,0.0,0.0,0.0,0.0,0.0,0.0,0.0,0.0,0.0,0.0,0.0,0.0,0.0,0.0,0.0,0.0,0.0,0.0,0.0,0.0,0.0,0.0,0.0,0.0,0.0,0.0,0.0,0.0,0.0,0.0,0.0,0.0,0.0,0.0,0.0,0.0,0.0,0.0,0.0,0.0,0.0,0.0,0.0,0.0,0.0,0.0,0.0,0.0,0.0,0.0,0.0,0.0,0.0,-1.8434,-2.0162,-2.1729,-2.3058,-2.3742,-2.3824,-2.3352,-2.2755,-2.1618,0.0,0.0,0.0,0.0,0.0,0.0,0.0,0.0,0.0,0.0,0.0,0.0,0.0,0.0,0.0,0.0,0.0,0.0,0.0,0.0,0.0,0.0,0.0,0.0,0.0,0.0,0.0,0.0,0.0,0.0,0.0,0.0,0.0,0.0,0.0,0.0,0.0,0.0,0.0,0.0,0.0,-1.3771,-1.4481,-1.4943,0.0,0.0,0.0,0.0,-1.5022,-1.4487,0.0,0.0,0.0,0.0,0.0,0.0,0.0,0.0,0.0,0.0,0.0,0.0,0.0,0.0,0.0,0.0,0.0,0.0,0.0,0.0,0.0,0.0,0.0,0.0,0.0,0.0,0.0,0.0,0.0,0.0,0.0,0.0,0.0,0.0,0.0,0.0,0.0,0.0,0.0,0.0,0.0,0.0,0.0,0.0,0.0,0.0,0.0,0.0,0.0,0.0,0.0,0.0,0.0,0.0,0.0,0.0,-1.8829,-2.0642,-2.2207,-2.3412,-2.4262,-2.443,-2.3837,-2.3232,-2.2099,0.0,0.0,0.0,0.0,0.0,0.0,0.0,0.0,0.0,0.0,0.0,0.0,0.0,0.0,0.0,0.0,0.0,0.0,0.0,0.0,0.0,0.0,0.0,0.0,0.0,0.0,0.0,0.0,0.0,0.0,0.0,0.0,0.0,0.0,0.0,0.0,0.0,0.0,0.0,0.0,0.0,-1.4957,-1.614,-1.6226,-1.6172,0.0,0.0,-1.6192,-1.6109,-1.6023,0.0,0.0,0.0,0.0,0.0,0.0,0.0,0.0,0.0,0.0,0.0,0.0,0.0,0.0,0.0,0.0,0.0,0.0,0.0,0.0,0.0,0.0,0.0,0.0,0.0,0.0,0.0,0.0,0.0,0.0,0.0,0.0,0.0,0.0,0.0,0.0,0.0,0.0,0.0,0.0,0.0,0.0,0.0,0.0,0.0,0.0,0.0,0.0,0.0,0.0,0.0,0.0,0.0,0.0,0.0,-1.7695,-1.9407,-2.1183,-2.2562,-2.3489,-2.4298,-2.4424,-2.3918,-2.3299,-2.2168,0.0,0.0,0.0,0.0,0.0,0.0,0.0,0.0,0.0,0.0,0.0,0.0,0.0,0.0,0.0,0.0,0.0,0.0,0.0,0.0,0.0,0.0,0.0,0.0,0.0,0.0,0.0,0.0,0.0,0.0,0.0,0.0,0.0,0.0,0.0,0.0,0.0,0.0,0.0,0.0,0.0,0.0,-1.7329,-1.7363,0.0,0.0,0.0,-1.7996,-1.7306,0.0,0.0,0.0,0.0,0.0,0.0,0.0,0.0,0.0,0.0,0.0,0.0,0.0,0.0,0.0,0.0,0.0,0.0,0.0,0.0,0.0,0.0,0.0,0.0,0.0,0.0,0.0,0.0,0.0,0.0,0.0,0.0,0.0,0.0,0.0,0.0,0.0,0.0,0.0,0.0,0.0,0.0,0.0,0.0,0.0,0.0,0.0,0.0,0.0,0.0,0.0,0.0,0.0,0.0,0.0,0.0,0.0,-1.9995,-2.1734,-2.3019,-2.3868,-2.4638,-2.478,-2.4277,-2.3581,0.0,0.0,0.0,0.0,0.0,0.0,0.0,0.0,0.0,0.0,0.0,0.0,0.0,0.0,0.0,0.0,0.0,0.0,0.0,0.0,0.0,0.0,0.0,0.0,0.0,0.0,0.0,-0.9464,0.0,0.0,0.0,0.0,0.0,0.0,0.0,0.0,0.0,0.0,0.0,0.0,0.0,0.0,-1.7169,-1.8418,-1.8495,-1.876,0.0,0.0,-1.9317,-1.8445,-1.8288,-1.7875,0.0,0.0,0.0,0.0,0.0,0.0,0.0,0.0,0.0,0.0,0.0,0.0,0.0,0.0,0.0,0.0,0.0,0.0,0.0,0.0,0.0,0.0,0.0,0.0,0.0,0.0,0.0,0.0,0.0,0.0,0.0,0.0,0.0,0.0,0.0,0.0,0.0,0.0,0.0,0.0,0.0,0.0,0.0,0.0,0.0,0.0,0.0,0.0,0.0,0.0,0.0,0.0,0.0,0.0,0.0,-2.0608,-2.2283,-2.3694,-2.4865,-2.5743,-2.5908,-2.5292,-2.4329,-2.3219,0.0,0.0,0.0,0.0,0.0,0.0,0.0,0.0,0.0,0.0,0.0,0.0,0.0,0.0,0.0,0.0,0.0,0.0,0.0,0.0,0.0,0.0,0.0,0.0,0.0,0.0,0.0,0.0,0.0,0.0,0.0,0.0,0.0,0.0,0.0,0.0,0.0,0.0,0.0,0.0,0.0,-1.8337,-1.9527,-1.9631,-1.9605,0.0,-1.9606,-1.9499,-1.9431,-1.9293,-1.899,-1.8334,0.0,0.0,0.0,0.0,0.0,0.0,0.0,0.0,0.0,0.0,0.0,0.0,0.0,0.0,0.0,0.0,0.0,0.0,0.0,0.0,0.0,0.0,0.0,0.0,0.0,0.0,0.0,0.0,0.0,0.0,0.0,0.0,0.0,0.0,0.0,0.0,0.0,0.0,0.0,0.0,0.0,0.0,0.0,0.0,0.0,0.0,0.0,0.0,0.0,0.0,0.0,0.0,0.0,-1.9365,-2.1172,-2.2884,-2.4164,-2.5009,-2.5849,-2.6014,-2.5412,-2.4786,-2.3729,0.0,0.0,0.0,0.0,0.0,0.0,0.0,0.0,0.0,0.0,0.0,0.0,0.0,0.0,0.0,0.0,0.0,0.0,0.0,0.0,0.0,0.0,0.0,0.0,0.0,0.0,0.0,0.0,-1.1776,-1.191,-1.2318,0.0,0.0,0.0,0.0,0.0,0.0,0.0,0.0,0.0,0.0,-1.9451,-2.0512,-2.0641,0.0,0.0,-2.1573,-2.1414,-2.1042,-2.062,-2.012,-1.9479,-1.8887,0.0,0.0,0.0,0.0,0.0,0.0,0.0,0.0,0.0,0.0,0.0,0.0,0.0,0.0,0.0,0.0,0.0,0.0,0.0,0.0,0.0,0.0,0.0,0.0,0.0,0.0,0.0,0.0,0.0,0.0,0.0,0.0,0.0,0.0,0.0,0.0,0.0,0.0,0.0,0.0,0.0,0.0,0.0,0.0,0.0,0.0,0.0,0.0,0.0,0.0,0.0,0.0,-2.0059,-2.1707,-2.3456,-2.4739,-2.5502,-2.6378,-2.6561,-2.5944,-2.5421,-2.4444,0.0,0.0,0.0,0.0,0.0,0.0,0.0,0.0,0.0,0.0,0.0,0.0,0.0,0.0,0.0,0.0,0.0,0.0,0.0,0.0,0.0,0.0,0.0,0.0,0.0,0.0,0.0,0.0,-1.2785,-1.2987,-1.3389,0.0,0.0,0.0,0.0,0.0,0.0,0.0,0.0,0.0,0.0,-2.0519,-2.1517,-2.1666,-2.1935,-2.2698,-2.2777,-2.2618,-2.218,-2.1717,-2.1256,-2.0797,0.0,0.0,0.0,0.0,0.0,0.0,0.0,0.0,0.0,0.0,0.0,0.0,0.0,0.0,0.0,0.0,0.0,0.0,0.0,0.0,0.0,0.0,0.0,0.0,0.0,0.0,0.0,-1.3198,0.0,0.0,-1.3228,0.0,0.0,0.0,0.0,0.0,0.0,0.0,0.0,0.0,0.0,0.0,0.0,0.0,0.0,0.0,0.0,0.0,0.0,0.0,0.0,0.0,0.0,-2.0901,-2.2198,-2.4057,-2.5528,-2.6627,-2.757,-2.7733,-2.716,-2.6331,-2.5517,-2.4712,0.0,0.0,0.0,0.0,0.0,0.0,0.0,0.0,0.0,0.0,0.0,0.0,0.0,0.0,0.0,0.0,0.0,0.0,0.0,0.0,0.0,0.0,0.0,0.0,0.0,0.0,-1.3259,-1.3587,-1.403,0.0,0.0,0.0,0.0,0.0,0.0,0.0,0.0,0.0,0.0,-2.1151,-2.1557,-2.2618,-2.2764,-2.2791,-2.2857,-2.2736,-2.2656,-2.2642,-2.2495,-2.2362,0.0,0.0,0.0,0.0,0.0,0.0,0.0,0.0,0.0,0.0,0.0,0.0,0.0,0.0,0.0,0.0,0.0,0.0,0.0,0.0,0.0,0.0,0.0,0.0,0.0,0.0,0.0,-1.6509,-1.6007,0.0,0.0,0.0,0.0,0.0,0.0,0.0,0.0,0.0,0.0,0.0,-2.0413,-2.0953,0.0,0.0,0.0,0.0,0.0,0.0,0.0,0.0,0.0,0.0,0.0,0.0,-2.166,-2.3282,-2.4767,-2.6086,-2.721,-2.7808,-2.7986,-2.7727,-2.7314,-2.6223,-2.4379,0.0,0.0,0.0,0.0,0.0,0.0,0.0,0.0,0.0,0.0,0.0,0.0,0.0,0.0,0.0,0.0,0.0,0.0,0.0,0.0,0.0,0.0,0.0,0.0,0.0,-1.3899,0.0,0.0,0.0,0.0,0.0,0.0,0.0,0.0,0.0,0.0,0.0,-2.0365,-2.111,-2.1827,-2.2618,-2.3649,-2.3793,-2.4028,0.0,0.0,0.0,0.0,0.0,0.0,0.0,0.0,0.0,0.0,0.0,0.0,0.0,0.0,-2.1559,-1.9858,-1.9509,-1.9546,-1.9522,0.0,0.0,0.0,0.0,0.0,0.0,0.0,0.0,0.0,0.0,0.0,0.0,0.0,0.0,-1.9145,0.0,-1.8831,0.0,0.0,0.0,0.0,0.0,0.0,0.0,0.0,-2.1857,-2.2426,-2.2937,-2.3489,-2.364,0.0,-2.2899,-2.143,0.0,0.0,0.0,0.0,0.0,0.0,0.0,0.0,-2.2791,-2.4356,-2.5699,-2.685,-2.7785,-2.8404,-2.8678,-2.8605,-2.8231,-2.6891,-2.4517,-2.2812,-2.1126,0.0,0.0,0.0,0.0,0.0,0.0,0.0,0.0,0.0,0.0,0.0,0.0,0.0,0.0,0.0,0.0,0.0,0.0,0.0,0.0,0.0,0.0,0.0,-1.5531,0.0,0.0,0.0,0.0,0.0,0.0,0.0,0.0,0.0,-1.9804,-2.0961,-2.2034,-2.2412,-2.3245,-2.4098,-2.4895,0.0,0.0,0.0,0.0,0.0,0.0,0.0,-2.5667,-2.6032,-2.5782,-2.5565,-2.5795,-2.5805,-2.5835,-2.5835,0.0,0.0,-2.2511,-2.2062,-2.2062,-2.2062,-2.2339,-2.284,-2.3617,-2.4066,-2.4537,0.0,0.0,0.0,0.0,0.0,0.0,0.0,0.0,-2.1697,-2.1656,0.0,-2.1619,0.0,0.0,0.0,0.0,-2.2385,-2.2435,0.0,0.0,-2.4632,-2.5184,-2.5674,-2.6298,-2.6285,-2.5686,-2.5172,-2.4607,-2.3916,-2.1343,0.0,0.0,0.0,0.0,0.0,0.0,-2.4266,-2.5364,-2.6739,-2.7811,-2.8459,-2.931,-2.9797,-2.9731,-2.8985,-2.7474,-2.5168,-2.3906,-2.2403,-2.064,-1.8913,0.0,0.0,0.0,0.0,0.0,0.0,0.0,0.0,0.0,0.0,0.0,0.0,0.0,0.0,0.0,0.0,0.0,0.0,0.0,0.0,-1.6951,0.0,0.0,0.0,0.0,0.0,0.0,0.0,0.0,0.0,0.0,-2.1792,-2.2591,-2.3636,-2.4672,0.0,0.0,0.0,0.0,-2.6387,-2.6441,-2.6427,-2.6441,-2.6454,-2.6441,-2.6658,-2.7237,0.0,0.0,-2.8038,-2.8131,-2.8164,-2.8204,-2.8177,-2.7509,-2.5314,-2.4834,-2.4698,-2.4685,-2.4722,-2.5138,-2.6138,-2.6472,-2.6818,-2.5949,0.0,0.0,0.0,0.0,-2.5076,-2.5066,-2.5066,-2.5066,-2.484,-2.4418,-2.4418,0.0,0.0,0.0,0.0,0.0,0.0,-2.5481,-2.5845,-2.6728,-2.7243,-2.7419,-2.8386,-2.8536,-2.7959,-2.7419,-2.6879,-2.6302,-2.5167,-2.3753,-2.2192,0.0,0.0,0.0,0.0,-2.4992,-2.6442,-2.7154,-2.8182,-2.9565,-2.9746,-2.9715,-2.9605,-2.8961,-2.7868,-2.6318,-2.5099,-2.3635,-2.1884,-2.0491,0.0,0.0,0.0,0.0,0.0,0.0,0.0,0.0,0.0,0.0,0.0,0.0,0.0,0.0,0.0,0.0,0.0,0.0,0.0,-1.801,-1.8741,-1.9305,0.0,0.0,0.0,0.0,0.0,0.0,0.0,0.0,0.0,-2.5302,-2.5096,-2.5091,0.0,0.0,-2.6956,-2.7525,-2.7952,-2.8365,-2.8812,-2.8879,0.0,-2.898,-2.9013,-2.9134,-2.9437,-2.9484,-2.9551,-2.9713,-2.974,-2.9875,-3.0294,-3.0362,-3.0254,-3.0031,-2.8375,-2.7228,-2.713,-2.7437,-2.7792,-2.8152,-2.8572,-2.9006,-2.8707,-2.7946,-2.7396,-2.7213,-2.7286,-2.7481,-2.7504,-2.7541,-2.7626,-2.7438,-2.7114,-2.7233,-2.7092,-2.6791,-2.6804,0.0,0.0,0.0,-2.7932,-2.8147,-2.8787,-2.9214,-2.9453,-3.0105,-3.0244,-2.988,-2.9352,-2.8938,-2.8599,-2.8047,-2.6992,-2.5415,0.0,0.0,-2.5285,-2.5677,-2.6455,-2.7635,-2.8231,-2.9043,-3.0061,-3.0381,-3.0427,-3.0201,-2.9618,-2.875,-2.7556,-2.6117,-2.4747,-2.3418,-2.1751,-2.0382,0.0,0.0,0.0,0.0,0.0,0.0,0.0,0.0,0.0,0.0,0.0,-1.4152,-1.4735,0.0,0.0,0.0,-1.8514,-1.9412,-1.9979,-2.074,0.0,0.0,0.0,0.0,0.0,0.0,0.0,-2.6294,-2.7284,-2.7881,-2.7881,-2.7913,-2.7728,-2.7286,-2.7961,-2.8604,-2.8966,0.0,-2.9678,-3.0062,-3.0115,-3.0196,-3.0516,-3.0556,-3.0788,-3.1395,-3.1667,-3.1766,-3.1766,-3.178,-3.1902,-3.225,-3.2345,-3.2453,-3.282,-3.146,-3.0236,-2.9833,-3.0008,-3.0331,-3.0559,-3.0909,-3.1218,-3.1123,-3.1258,-2.9742,-2.9208,-2.9309,-2.9349,-2.9349,-2.9349,-2.9559,-2.9626,-2.9588,-2.9824,-2.9928,-2.9878,-2.9917,0.0,-2.9917,-2.9955,-3.0244,-3.0746,-3.0821,-3.1122,-3.1574,-3.1637,-3.1637,-3.1574,-3.106,-3.0796,-3.0708,-3.0181,-2.9654,-2.9063,-2.7607,-2.7052,-2.7366,-2.7768,-2.8225,-2.8754,-2.9632,-3.015,-3.0252,-3.1132,-3.1499,-3.13,-3.0717,-2.9821,-2.8614,-2.6945,-2.5724,-2.4978,-2.2888,-2.1616,-2.1426,0.0,0.0,0.0,0.0,0.0,0.0,0.0,0.0,0.0,0.0,0.0,0.0,0.0,0.0,0.0,-2.1268,0.0,-2.1865,-2.2947,0.0,0.0,0.0,-2.5751,-2.6874,-2.705,-2.7511,-2.8682,0.0,0.0,-2.9801,-3.0771,-3.1097,-2.9971,-3.0283,-3.0608,-3.0622,-3.0669,-3.069,-3.0804,-3.0709,-3.0872,-3.1509,-3.1599,-3.1938,-3.2898,-3.358,-3.3758,-3.3745,-3.3786,-3.3867,-3.3894,-3.3962,-3.3989,-3.403,-3.3989,-3.3786,-3.2738,-3.2399,-3.2453,-3.2874,-3.301,-3.3122,-3.1763,-3.2217,-3.1996,-3.1685,-3.1314,-3.1473,-3.1546,-3.1546,-3.1589,-3.1398,-3.1028,-3.1058,-3.096,-3.0779,-3.0779,-3.086,-3.1035,-3.1449,-3.17,-3.1888,-3.2729,-3.3194,-3.3319,-3.3721,-3.3709,-3.3282,-3.2754,-3.2252,-3.1825,-3.1273,-3.0934,-3.0783,-3.0407,-2.9453,-2.7971,-2.8306,-2.8767,-2.9294,-2.9839,-3.0456,-3.1235,-3.1455,-3.1499,-3.1314,-3.0717,-2.9835,-2.8641,-2.7746,-2.6579,-2.5086,-2.4462,-2.3526,-2.2144,-2.1681,0.0,0.0,0.0,0.0,0.0,0.0,0.0,0.0,0.0,-1.7838,-1.8892,0.0,-2.0042,0.0,-2.305,-2.3835,-2.4177,-2.5278,0.0,0.0,-2.6996,-2.8017,-2.8763,-2.9265,-2.9849,-3.0568,-3.1607,-3.2246,-3.2246,-3.2847,-3.3176,-3.2878,-3.2616,-3.2477,-3.2477,-3.2833,-3.3067,-3.3013,-3.2972,-3.3122,-3.3203,-3.3271,-3.3365,-3.365,-3.384,-3.3908,-3.3908,-3.3908,-3.4043,-3.4463,-3.4585,-3.4748,-3.5168,-3.5642,-3.5859,-3.552,-3.4489,-3.3515,-3.3677,-3.3756,-3.3758,-3.3086,-3.3517,-3.3801,-3.3812,-3.36,-3.302,-3.2743,-3.2743,-3.282,-3.2682,-3.2413,-3.2558,-3.2518,-3.2389,-3.2377,-3.2494,-3.2721,-3.3021,-3.3189,-3.3326,-3.3972,-3.4274,-3.4286,-3.4575,-3.4562,-3.4248,-3.396,-3.3633,-3.3264,-3.2767,-3.239,-3.2181,-3.2012,-3.1196,-2.9833,-3.005,-3.0394,-3.0765,-3.1084,-3.1502,-3.1918,-3.1969,-3.1874,-3.1707,-3.111,-3.0364,-2.9428,-2.8573,-2.7515,-2.6251,-2.5697,-2.4937,-2.396,-2.3404,-2.2686,0.0,0.0,0.0,0.0,0.0,0.0,0.0,0.0,0.0,0.0,0.0,-2.2551,-2.4381,-2.5555,-2.6328,-2.6579,-2.7691,-2.8424,-2.8424,-2.9482,-3.0453,-3.1037,-3.1382,-3.1816,-3.2399,-3.305,-3.3457,-3.3471,-3.4151,-3.4694,-3.4707,-3.4923,-3.4651,-3.3675,-3.3704,-3.3908,-3.3908,-3.3908,-3.4016,-3.4246,-3.4531,-3.4694,-3.4694,-3.4694,-3.4775,-3.5046,-3.5087,-3.5276,-3.5846,-3.5995,-3.6089,-3.6469,-3.6768,-3.7012,-3.6835,-3.6198,-3.5574,-3.5507,-3.552,-3.5507,-3.4302,-3.4617,-3.4993,-3.5265,-3.5395,-3.4137,-3.3563,-3.3491,-3.3654,-3.3722,-3.3635,-3.3805,-3.3919,-3.3964,-3.3964,-3.4044,-3.426,-3.438,-3.4554,-3.4735,-3.4856,-3.4939,-3.4939,-3.4926,-3.4926,-3.4926,-3.4864,-3.4781,-3.4756,-3.4274,-3.3759,-3.3325,-3.2984,-3.2577,-3.2189,-3.2288,-3.2375,-3.242,-3.2619,-3.2685,-3.2517,-3.2461,-3.242,-3.2291,-3.1653,-3.1056,-3.0527,-2.9428,-2.8546,-2.7936,-2.6864,-2.6199,-2.6104,-2.5073,-2.4177,0.0,-2.312,0.0,0.0,0.0,0.0,0.0,0.0,0.0,0.0,-2.4353,-2.5493,-2.7104,-2.8256,-2.8967,-2.9048,-3.0079,-3.0758,-3.0771,-3.1802,-3.2725,-3.3264,-3.3455,-3.3753,-3.4192,-3.4314,-3.4382,-3.4477,-3.529,-3.5954,-3.6008,-3.6659,-3.6523,-3.4883,-3.4504,-3.4558,-3.4368,-3.4382,-3.4816,-3.5195,-3.5615,-3.5954,-3.5954,-3.5913,-3.613,-3.6578,-3.6659,-3.6863,-3.7296,-3.7363,-3.7418,-3.7485,-3.7526,-3.765,-3.7594,-3.7594,-3.754,-3.7363,-3.7282,-3.7499,-3.3562,-3.4091,-3.4564,-3.4826,-3.4895,-3.5102,-3.4943,-3.453,-3.4568,-3.4265,-3.366,-3.3523,-3.3562,-3.3676,-3.3676,-3.3827,-3.4068,-3.4743,-3.508,-3.5139,-3.5762,-3.6103,-3.6103,-3.6091,-3.6103,-3.6078,-3.5558,-3.5345,-3.5332,-3.4793,-3.4512,-3.4399,-3.4066,-3.3954,-3.4054,0.0,0.0,0.0,-3.2843,-3.3013,-3.3114,-3.2879,-3.2785,-3.2911,-3.1857,0.0,-3.111,-3.0446,-2.9781,-2.919,-2.8497,0.0,0.0,0.0,0.0,0.0,0.0,0.0,0.0,0.0,0.0,0.0,-2.8008,-2.7569,-2.6291,-2.7569,-2.8817,-2.9659,-3.0364,-3.101,-3.1463,-3.2178,-3.2599,-3.264,-3.3634,-3.4328,-3.4477,-3.5316,-3.5981,-3.6076,-3.6524,-3.6794,-3.674,-3.7025,-3.7133,-3.7119,-3.735,-3.7323,-3.6889,-3.6713,-3.6767,-3.6808,-3.6632,-3.6781,-3.6957,-3.7025,-3.7038,-3.7147,-3.7147,-3.7174,-3.7311,-3.7309,-3.7323,-3.754,-3.7499,-3.7526,-3.754,-3.7878,-3.8247,-3.8204,-3.8613,-3.8681,-3.7702,-3.7512,-3.7499,-3.3901,-3.4239,-3.4823,-3.5038,0.0,-3.5371,-3.518,-3.4716,-3.5053,-3.4972,-3.4615,-3.4339,-3.4282,-3.4354,-3.4245,-3.4326,-3.4621,-3.5127,-3.5464,-3.5618,-3.615,-3.6417,-3.6417,-3.6417,-3.6417,-3.6392,-3.6081,-3.5943,-3.5918,-3.5403,-3.5173,-3.5284,-3.4965,-3.4919,-3.5156,-3.4873,-3.4327,-3.3535,-3.3778,-3.3834,-3.3754,-3.3669,-3.3605,-3.3485,-3.2643,0.0,0.0,0.0,0.0,0.0,0.0,0.0,0.0,0.0,0.0,-2.7691,-2.7691,-2.7949,-2.8546,-2.8885,-2.9428,-3.0296,-3.0907,-3.0643,-2.9143,-3.0391,-3.1404,-3.1694,-3.2264,-3.281,-3.343,-3.4027,-3.4528,-3.4854,-3.5628,-3.6117,-3.6184,-3.6659,-3.7053,-3.7066,-3.7296,-3.7499,-3.7499,-3.777,-3.7919,-3.7946,-3.819,-3.8383,-3.8342,-3.7838,-3.7499,-3.7499,-3.7499,-3.7499,-3.7499,-3.7499,-3.7512,-3.7499,-3.7499,-3.7621,-3.7878,-3.7933,-3.8,-3.8315,-3.841,-3.841,-3.8423,-3.8654,-3.8844,-3.8884,-3.9088,-3.9142,-3.8518,-3.841,-3.841,-3.43,-3.4468,-3.5024,-3.5257,-3.5312,-3.5356,-3.5176,-3.4793,0.0,0.0,0.0,-3.536,-3.5298,-3.5313,-3.5107,-3.5149,-3.5405,-3.5648,-3.5864,-3.6056,-3.6326,-3.6417,-3.6417,-3.6417,-3.6417,-3.6417,-3.6417,-3.6417,-3.6405,-3.594,-3.5819,-3.5986,-3.5762,-3.571,-3.5846,-3.5635,-3.5185,-3.4664,-3.4754,-3.4696,-3.442,-3.4499,-3.4401,-3.407,-3.3525,-3.302,-3.2508,-3.2019,-3.1544,-3.107,-3.0934,-3.0893,-3.0866,-3.0317,-2.9991,-2.9977,-2.9604,-2.9821,-3.0798,-3.0975,-3.149,-3.2576,-3.3224,-3.3061,-3.1857,-3.2752,-3.3468,-3.355,-3.4068,-3.4626,-3.5222,-3.5696,-3.6225,-3.6714,-3.7282,-3.7634,-3.7648,-3.7756,-3.7838,-3.7811,-3.7851,-3.7811,-3.7878,-3.8288,-3.8572,-3.8627,-3.8925,-3.9305,-3.9197,-3.8491,-3.7919,-3.7933,-3.7973,-3.7865,-3.7824,-3.7878,-3.7853,-3.7905,-3.7878,-3.803,-3.8423,-3.8572,-3.8776,-3.9115,-3.9305,-3.9264,-3.9292,-3.9251,-3.9305,-3.9305,-3.9305,-3.9305,-3.9305,-3.9305,-3.9251,-3.3692,-3.4199,-3.4468,-3.4802,-3.5102,-3.5312,-3.5323,-3.5287,-3.4975,-3.4982,-3.5253,-3.5442,-3.5652,-3.5884,-3.5851,-3.598,-3.6208,-3.6271,-3.6309,-3.6333,-3.6393,-3.6417,-3.6417,-3.6417,-3.6417,-3.6417,-3.6417,-3.6417,-3.6405,-3.6505,-3.6561,-3.6565,-3.6508,-3.6308,-3.6105,-3.6218,-3.6032,-3.5466,-3.5186,-3.5114,-3.5224,-3.4927,-3.4722,-3.4653,-3.4097,-3.3758,-3.3677,-3.3569,-3.3501,-3.3406,-3.2969,-3.2735,-3.2707,-3.2137,-3.1838,-3.1865,-3.2218,-3.2544,-3.2735,-3.3159,-3.3704,-3.4368,-3.5018,-3.4802,-3.3691,-3.4151,-3.4761,-3.5289,-3.5832,-3.6483,-3.7038,-3.7202,-3.7241,-3.7404,-3.7935,-3.8244,-3.8301,-3.8708,-3.8979,-3.8966,-3.9061,-3.9007,-3.8966,-3.9074,-3.9129,-3.9169,-3.921,-3.9305,-3.9278,-3.9183,-3.9061,-3.9061,-3.9061,-3.9061,-3.8925,-3.9034,-3.8966,-3.9061,-3.8993,-3.8952,-3.9061,-3.9102,-3.9156,-3.9292,-3.9305,-3.9305,-3.9305,-3.9305,-3.9305,-3.9305,-3.9305,-3.9305,-3.9305,-3.9305,-3.9305,-3.3477,-3.3861,-3.4142,-3.4479,-3.4758,-3.4869,-3.5035,-3.5168,-3.4952,-3.5117,-3.5512,-3.5683,-3.5806,-3.5927,-3.5967,-3.6042,-3.6183,-3.651,-3.67,-3.6825,-3.6686,-3.6678,-3.6784,-3.6556,-3.6417,-3.6417,-3.6417,-3.6439,-3.6593,-3.6675,-3.6862,-3.7142,-3.7233,-3.7136,-3.6823,-3.6929,-3.6826,-3.6444,-3.6012,-3.564,-3.5399,-3.5332,-3.5276,-3.5263,-3.4694,-3.4382,-3.4382,-3.4084,-3.3908,-3.3908,-3.365,-3.3539,-3.3525,-3.3295,-3.3132,-3.3159,-3.3702,-3.4177,-3.4475,-3.5371,-3.5954,-3.6239,-3.6496,-3.6455,-3.59,-3.6103,-3.6374,-3.6632,-3.6916,-3.7323,-3.7892,-3.8016,-3.8082,-3.8477,-3.8749,-3.8884,-3.8925,-3.9115,-3.9305,-3.9305,-3.9305,-3.9305,-3.9305,-3.9305,-3.9305,-3.9305,-3.9305,-3.9305,-3.9305,-3.9305,-3.9305,-3.9305,-3.9305,-3.9305,-3.9305,-3.9305,-3.9305,-3.9305,-3.9305,-3.9305,-3.9305,-3.9305,-3.9305,-3.9305,-3.9305,-3.9305,-3.9305,-3.9305,-3.9305,-3.9305,-3.9305,-3.9305,-3.9305,-3.9305,-3.9305,-3.3306,-3.3625,-3.3861,-3.4188,-3.4468,-3.4468,-3.4635,-3.488,-3.498,-3.5257,-3.5685,-3.5799,-3.5959,-3.6073,-3.6201,-3.6296,-3.6451,-3.6792,-3.71,-3.7303,-3.711,-3.7156,-3.7312,-3.681,-3.6593,-3.6568,-3.6515,-3.6534,-3.6722,-3.6815,-3.7121,-3.7564,-3.7841,-3.7834,-3.7593,-3.77,-3.763,-3.7416,-3.6974,-3.6478,-3.5912,-3.6049,-3.613,-3.6049,-3.5547,-3.5249,-3.5358,-3.4829,-3.4572,-3.4707,-3.4721,-3.4721,-3.4721,-3.4721,-3.4707,-3.4761,-3.5141,-3.5588,-3.6076,-3.6985,-3.7553,-3.7689,-3.7689,-3.7756,-3.7865,-3.7892,-3.7824,-3.7716,-3.7811,-3.8152,-3.8559,-3.8762,-3.9007,-3.9441,-3.9644,-3.9739,-3.9726,-3.9712,-3.9712,-3.9712,-3.9712,-3.9739,-3.9712,-3.9712,-3.9685,-3.9576,-3.94,-3.9305,-3.9305,-3.9305,-3.9305,-3.9305,-3.9305,-3.9305,-3.9305,-3.9305,-3.9305,-3.9305,-3.9305,-3.9305,-3.9305,-3.9305,-3.9305,-3.9305,-3.9305,-3.9305,-3.9305,-3.9305,-3.9305,-3.9305,-3.9305,-3.9305,-3.9305,-3.9305,-3.9305,-3.309,-3.3568,-3.3724,-3.3963,-3.4511,-3.45,-3.4556,-3.4601,-3.488,-3.5146,-3.5455,-3.5685,-3.6143,-3.663,-3.6871,-3.7104,-3.7358,-3.7505,-3.7648,-3.7907,-3.7666,-3.7655,-3.7889,-3.7362,-3.7111,-3.7096,-3.6846,-3.6725,-3.676,-3.7168,-3.7564,-3.7854,-3.8044,-3.8141,-3.8166,-3.8501,-3.8501,-3.8051,-3.8158,-3.7919,-3.7363,-3.7323,-3.7323,-3.7323,-3.6754,-3.6714,-3.7092,-3.6687,-3.6605,-3.7092,-3.7092,-3.7119,-3.7106,-3.7133,-3.7133,-3.7106,-3.7174,-3.7282,-3.7323,-3.7431,-3.7756,-3.8231,-3.8342,-3.8559,-3.9034,-3.9129,-3.8912,-3.8613,-3.8857,-3.9129,-3.9237,-3.9685,-3.9997,-4.0092,-4.0553,-4.096,-4.0865,-4.0947,-4.0947,-4.0947,-4.0811,-4.0933,-4.0811,-4.0798,-4.0648,-4.016,-3.978,-3.9536,-3.9522,-3.9509,-3.9495,-3.94,-3.9346,-3.9346,-3.9332,-3.9305,-3.9305,-3.9305,-3.9305,-3.9305,-3.9305,-3.9305,-3.9305,-3.9305,-3.9305,-3.9305,-3.9305,-3.9305,-3.9305,-3.9305,-3.9305,-3.9305,-3.9305,-3.9305,-3.9305,-3.4349,-3.4733,-3.4744,-3.4974,-3.5375,-3.5386,-3.5201,-3.4928,-3.5277,-3.5413,-3.5434,-3.5687,-3.6059,-3.6483,-3.6916,-3.7197,-3.7346,-3.781,-3.8197,-3.846,-3.8211,-3.8254,-3.8454,-3.7939,-3.7676,-3.7674,-3.7352,-3.7324,-3.7402,-3.7627,-3.7887,-3.8044,-3.8167,-3.8336,-3.8594,-3.8819,-3.8876,-3.882,-3.8895,-3.8817,-3.8532,-3.7894,-3.7499,-3.7472,-3.7228,-3.7256,-3.7431,-3.7241,-3.7228,-3.7485,-3.7499,-3.7499,-3.7499,-3.7499,-3.7499,-3.7512,-3.7824,-3.8206,-3.8559,-3.8586,-3.8681,-3.8939,-3.8939,-3.9197,-3.9753,-3.9821,-3.9848,-3.9997,-3.9902,-3.9956,-4.0309,-4.0594,-4.0743,-4.077,-4.0987,-4.1137,-4.1123,-4.1137,-4.1123,-4.1123,-4.1123,-4.1137,-4.1123,-4.1123,-4.1015,-4.077,-4.0485,-4.0336,-4.0363,-4.039,-4.0377,-4.0377,-4.0377,-4.0024,-3.9536,-3.9305,-3.9319,-3.9319,-3.9305,-3.9305,-3.9305,-3.9305,-3.9305,-3.9305,-3.9305,-3.9305,-3.9305,-3.9305,-3.9305,-3.9319,-3.9319,-3.9305,-3.9305,-3.9305,-3.9305,-3.5264,-3.5488,-3.5605,-3.5791,-3.6023,-3.6023,-3.5815,-3.5613,-3.5762,-3.5914,-3.5949,-3.6149,-3.6481,-3.6821,-3.7056,-3.7131,-3.7304,-3.8039,-3.8526,-3.8752,-3.8669,-3.8815,-3.9032,-3.8517,-3.829,-3.8314,-3.8079,-3.7964,-3.8131,-3.8205,-3.8215,-3.8239,-3.8336,-3.8562,-3.8863,-3.8953,-3.9114,-3.9261,-3.9305,-3.9305,-3.9183,-3.8464,-3.7973,-3.796,-3.7811,-3.7797,-3.796,-3.7811,-3.7811,-3.7973,-3.7973,-3.7973,-3.7973,-3.7987,-3.8016,-3.8043,-3.8423,-3.8925,-3.9495,-3.9536,-3.9617,-3.9766,-3.9807,-3.9983,-4.0336,-4.0445,-4.073,-4.1218,-4.0947,-4.0865,-4.1028,-4.1272,-4.1367,-4.1381,-4.1476,-4.1612,-4.1639,-4.1598,-4.1639,-4.1598,-4.172,-4.1598,-4.1598,-4.1517,-4.1381,-4.1367,-4.1205,-4.1123,-4.1123,-4.1082,-4.1082,-4.1123,-4.1096,-4.0662,-3.9766,-3.959,-3.9522,-3.9319,-3.9305,-3.9305,-3.9305,-3.9305,-3.9305,-3.9305,-3.9305,-3.9305,-3.9305,-3.9305,-3.9386,-3.9359,-3.9427,-3.9576,-3.9631,-3.9671,-3.9821,-3.5253,-3.5568,-3.586,-3.6089,-3.6034,-3.6067,-3.6139,-3.6327,-3.6385,-3.6708,-3.7201,-3.7269,-3.7656,-3.8127,-3.7528,-3.7274,-3.7661,-3.8169,-3.8579,-3.8841,-3.9104,-3.9428,-3.9622,-3.9158,-3.8982,-3.9145,-3.8834,-3.8685,-3.8681,-3.8897,-3.878,-3.8325,-3.8719,-3.889,-3.8993,-3.9172,-3.9305,-3.9305,-3.9305,-3.9305,-3.9305,-3.9237,-3.9142,-3.9088,-3.8667,-3.8627,-3.9034,-3.8667,-3.8613,-3.9183,-3.9142,-3.9169,-3.9197,-3.9183,-3.9183,-3.9197,-3.9264,-3.9536,-4.0051,-4.0146,-4.0363,-4.0865,-4.0892,-4.1015,-4.1042,-4.1082,-4.1354,-4.191,-4.1896,-4.1693,-4.1367,-4.172,-4.1964,-4.2005,-4.2453,-4.267,-4.2751,-4.2629,-4.2792,-4.2724,-4.2656,-4.2602,-4.2697,-4.2317,-4.2019,-4.1869,-4.1503,-4.1232,-4.1313,-4.1245,-4.1272,-4.1272,-4.1205,-4.0906,-4.0323,-4.016,-3.9916,-3.9753,-3.9712,-3.9454,-3.9346,-3.9305,-3.9373,-3.9414,-3.9549,-3.9563,-3.9386,-3.9373,-3.9495,-3.9644,-3.997,-4.0106,-4.016,-4.0662,-4.0757,-3.7251,-3.7369,-3.7477,-3.7547,-3.7547,-3.7547,-3.7358,-3.7175,-3.7408,-3.7459,-3.7486,-3.7804,-3.82,-3.8559,-3.8485,-3.8295,-3.8149,-3.8473,-3.8736,-3.8841,-3.9322,-3.9594,-3.9672,-3.9471,-3.9549,-3.9715,-3.9495,-3.9385,-3.9515,-3.9604,-3.9747,-3.9747,-3.957,-3.9545,-3.9658,-3.9423,-3.9305,-3.9319,-3.9305,-3.9305,-3.9305,-3.9305,-3.9305,-3.9305,-3.9102,-3.9088,-3.9305,-3.9088,-3.9088,-3.9305,-3.9305,-3.9305,-3.9346,-3.9658,-3.9861,-3.9902,-4.0241,-4.0567,-4.0743,-4.077,-4.0865,-4.1082,-4.1123,-4.1327,-4.1598,-4.1707,-4.1937,-4.2412,-4.2561,-4.2439,-4.2371,-4.2453,-4.2575,-4.2602,-4.2751,-4.29,-4.29,-4.29,-4.29,-4.29,-4.29,-4.29,-4.286,-4.2697,-4.2588,-4.2548,-4.2371,-4.2236,-4.2236,-4.2236,-4.2181,-4.2236,-4.2236,-4.2046,-4.1435,-4.0987,-4.0703,-4.0608,-4.0513,-4.0499,-4.0418,-4.0336,-4.0377,-4.0309,-4.0282,-4.0255,-4.0228,-4.0241,-4.0241,-4.0336,-4.0648,-4.073,-4.0798,-4.1177,-4.1232,-3.838,-3.838,-3.838,-3.838,-3.838,-3.838,-3.8238,-3.8019,-3.8254,-3.8248,-3.8263,-3.8585,-3.8973,-3.9323,-3.943,-3.9292,-3.9041,-3.9082,-3.9046,-3.9087,-3.9513,-3.9697,-3.9697,-3.9788,-3.9993,-4.0185,-4.0207,-4.0213,-4.0263,-4.0341,-4.0473,-4.0623,-4.0339,-4.0316,-4.0418,-4.0078,-3.9821,-3.9644,-3.9604,-3.9509,-3.9346,-3.9305,-3.94,-3.9549,-3.959,-3.9495,-3.9332,-3.9305,-3.9305,-3.9332,-3.9481,-3.9685,-3.9902,-4.0268,-4.0485,-4.054,-4.0879,-4.1172,-4.1381,-4.1408,-4.1489,-4.1679,-4.1707,-4.1896,-4.2249,-4.229,-4.2493,-4.2792,-4.29,-4.29,-4.29,-4.2887,-4.29,-4.29,-4.29,-4.29,-4.29,-4.29,-4.29,-4.29,-4.29,-4.29,-4.29,-4.2887,-4.2873,-4.29,-4.29,-4.29,-4.29,-4.29,-4.29,-4.2887,-4.2819,-4.2643,-4.229,-4.1924,-4.1313,-4.1137,-4.1042,-4.1164,-4.1259,-4.1232,-4.1218,-4.1177,-4.115,-4.1137,-4.1137,-4.115,-4.115,-4.1177,-4.1286,-4.1381,-4.1489,-4.1612,-4.1734,-3.844,-3.8488,-3.844,-3.8559,-3.8559,-3.8559,-3.8585,-3.8803,-3.8814,-3.9123,-3.9534,-3.9767,-4.0035,-4.0429,-4.0104,-4.0072,-4.0218,-3.9867,-3.9611,-3.9541,-3.97,-3.9735,-3.9697,-3.9942,-4.0236,-4.0504,-4.1047,-4.1083,-4.0865,-4.1068,-4.1117,-4.0884,-4.1038,-4.1077,-4.1137,-4.0987,-4.073,-4.0323,-4.0187,-3.9929,-3.9414,-3.9454,-3.9712,-4.0119,-4.0187,-3.9956,-3.9441,-3.9427,-3.9481,-3.9495,-3.9929,-4.0472,-4.0892,-4.1036,-4.111,-4.1137,-4.1164,-4.1462,-4.1924,-4.2019,-4.2236,-4.2575,-4.2792,-4.2724,-4.2738,-4.2792,-4.2833,-4.2873,-4.29,-4.29,-4.29,-4.29,-4.29,-4.29,-4.29,-4.29,-4.29,-4.29,-4.29,-4.29,-4.29,-4.29,-4.29,-4.29,-4.29,-4.29,-4.29,-4.29,-4.29,-4.29,-4.29,-4.29,-4.29,-4.2806,-4.2833,-4.2792,-4.21,-4.1557,-4.1462,-4.1476,-4.1584,-4.1612,-4.1679,-4.1666,-4.1693,-4.1679,-4.1693,-4.1679,-4.1584,-4.1612,-4.1802,-4.2005,-4.2086,-4.2209,-4.2466,-3.965,-3.965,-3.965,-3.965,-3.965,-3.965,-3.9697,-3.9744,-3.9755,-3.9884,-4.0071,-4.0316,-4.0549,-4.0699,-4.0763,-4.0863,-4.0929,-4.0813,-4.0335,-3.9792,-4.0062,-4.0049,-3.9812,-3.9993,-4.0338,-4.0782,-4.1298,-4.1604,-4.1741,-4.1959,-4.2094,-4.216,-4.1863,-4.1747,-4.1693,-4.1327,-4.0987,-4.0865,-4.0825,-4.0716,-4.0553,-4.054,-4.0648,-4.0798,-4.0825,-4.0716,-4.0567,-4.0553,-4.0553,-4.0526,-4.073,-4.092,-4.115,-4.1517,-4.172,-4.1774,-4.2127,-4.2385,-4.2548,-4.2602,-4.2656,-4.2846,-4.29,-4.29,-4.29,-4.29,-4.29,-4.29,-4.29,-4.29,-4.29,-4.29,-4.2955,-4.29,-4.29,-4.29,-4.29,-4.29,-4.29,-4.29,-4.29,-4.29,-4.29,-4.29,-4.29,-4.29,-4.29,-4.29,-4.29,-4.29,-4.29,-4.29,-4.29,-4.29,-4.29,-4.29,-4.2548,-4.2168,-4.2059,-4.1951,-4.2032,-4.2073,-4.2127,-4.2154,-4.2181,-4.2195,-4.2222,-4.2195,-4.21,-4.2195,-4.2439,-4.2561,-4.2616,-4.2724,-4.2846,-4.0165,-4.0165,-4.0165,-4.0165,-4.0165,-4.0165,-4.0165,-4.0165,-4.0165,-4.0293,-4.0409,-4.0607,-4.0781,-4.0896,-4.1127,-4.1184,-4.1206,-4.1448,-4.1115,-4.0321,-4.0361,-4.0377,-4.0181,-4.0313,-4.0681,-4.1134,-4.1547,-4.1895,-4.2239,-4.24,-4.2658,-4.2757,-4.2507,-4.2344,-4.2317,-4.1978,-4.1693,-4.1503,-4.1449,-4.134,-4.1117,-4.1123,-4.1218,-4.1394,-4.1462,-4.1557,-4.1747,-4.1774,-4.1557,-4.1272,-4.1327,-4.153,-4.1761,-4.2127,-4.2331,-4.2398,-4.2643,-4.2873,-4.29,-4.286,-4.29,-4.29,-4.29,-4.29,-4.29,-4.29,-4.2955,-4.3172,-4.324,-4.3308,-4.3525,-4.3565,-4.3565,-4.3565,-4.3145,-4.2928,-4.29,-4.29,-4.29,-4.29,-4.29,-4.29,-4.29,-4.29,-4.29,-4.29,-4.29,-4.29,-4.29,-4.29,-4.29,-4.29,-4.29,-4.29,-4.29,-4.29,-4.29,-4.2792,-4.2711,-4.2629,-4.2602,-4.2602,-4.2629,-4.2602,-4.2616,-4.2575,-4.2588,-4.267,-4.2656,-4.2873,-4.29,-4.2846,-4.2778,-4.2806,-4.29,-4.0281,-4.0281,-4.0351,-4.0409,-4.0397,-4.0397,-4.0455,-4.0339,-4.0339,-4.0525,-4.0723,-4.0781,-4.0896,-4.1127,-4.1184,-4.1242,-4.1332,-4.1765,-4.1766,-4.1336,-4.1039,-4.0862,-4.0845,-4.0824,-4.1097,-4.1597,-4.1696,-4.2007,-4.2462,-4.256,-4.2644,-4.2873,-4.2833,-4.286,-4.2792,-4.2846,-4.2521,-4.21,-4.2046,-4.1802,-4.1367,-4.1313,-4.153,-4.2032,-4.2059,-4.2263,-4.2629,-4.2683,-4.2276,-4.1476,-4.1815,-4.2263,-4.2724,-4.2887,-4.2819,-4.2806,-4.2887,-4.29,-4.29,-4.29,-4.29,-4.29,-4.2982,-4.2941,-4.3023,-4.3172,-4.3402,-4.3782,-4.3837,-4.4027,-4.4461,-4.4556,-4.4556,-4.4515,-4.366,-4.309,-4.2968,-4.2955,-4.29,-4.29,-4.29,-4.29,-4.29,-4.29,-4.29,-4.29,-4.29,-4.29,-4.29,-4.29,-4.29,-4.29,-4.29,-4.29,-4.29,-4.29,-4.29,-4.29,-4.29,-4.29,-4.29,-4.29,-4.29,-4.29,-4.29,-4.29,-4.29,-4.29,-4.29,-4.29,-4.29,-4.29,-4.29,-4.29,-4.29,-4.1573,-4.1573,-4.1573,-4.1631,-4.1586,-4.1586,-4.1573,-4.1561,-4.132,-4.1263,-4.1332,-4.1115,-4.1127,-4.1184,-4.1242,-4.1275,-4.1561,-4.1928,-4.2174,-4.2184,-4.2137,-4.1656,-4.1206,-4.1015,-4.1198,-4.1696,-4.1931,-4.219,-4.2498,-4.2693,-4.2852,-4.29,-4.29,-4.29,-4.29,-4.29,-4.2833,-4.2683,-4.2656,-4.2575,-4.2426,-4.2371,-4.248,-4.2616,-4.2629,-4.2724,-4.2887,-4.29,-4.2792,-4.2493,-4.2548,-4.2711,-4.2873,-4.29,-4.29,-4.29,-4.29,-4.29,-4.29,-4.2914,-4.29,-4.2928,-4.3348,-4.3601,-4.3614,-4.3972,-4.4257,-4.4461,-4.4461,-4.4529,-4.4691,-4.4759,-4.4746,-4.4624,-4.4067,-4.3565,-4.343,-4.3145,-4.29,-4.29,-4.29,-4.29,-4.29,-4.29,-4.29,-4.29,-4.29,-4.29,-4.29,-4.29,-4.29,-4.29,-4.29,-4.29,-4.29,-4.29,-4.29,-4.29,-4.29,-4.29,-4.29,-4.29,-4.29,-4.29,-4.29,-4.29,-4.29,-4.29,-4.29,-4.29,-4.29,-4.29,-4.29,-4.29,-4.29,-4.2098,-4.2098,-4.2098,-4.2098,-4.2098,-4.2098,-4.2098,-4.2041,-4.1915,-4.1789,-4.1789,-4.1643,-4.1586,-4.1586,-4.1586,-4.1631,-4.1846,-4.2142,-4.2356,-4.2482,-4.2646,-4.2281,-4.1659,-4.1528,-4.1747,-4.1832,-4.2141,-4.2387,-4.2644,-4.2838,-4.2887,-4.29,-4.29,-4.29,-4.29,-4.29,-4.29,-4.2887,-4.29,-4.29,-4.29,-4.29,-4.2887,-4.2887,-4.29,-4.29,-4.29,-4.29,-4.29,-4.2873,-4.2887,-4.29,-4.29,-4.29,-4.29,-4.29,-4.29,-4.2968,-4.3213,-4.3253,-4.3389,-4.3633,-4.4013,-4.4122,-4.4203,-4.4529,-4.4746,-4.5044,-4.5071,-4.5207,-4.541,-4.5451,-4.5451,-4.5438,-4.4908,-4.4339,-4.3913,-4.3519,-4.3158,-4.2995,-4.29,-4.29,-4.29,-4.29,-4.29,-4.29,-4.29,-4.29,-4.29,-4.29,-4.29,-4.29,-4.29,-4.29,-4.29,-4.29,-4.29,-4.29,-4.29,-4.29,-4.29,-4.29,-4.29,-4.29,-4.29,-4.29,-4.29,-4.29,-4.29,-4.29,-4.29,-4.29,-4.29,-4.29,-4.29,-4.2224,-4.2224,-4.2224,-4.2224,-4.2211,-4.2224,-4.2268,-4.2211,-4.2155,-4.2155,-4.211,-4.211,-4.1984,-4.2098,-4.1997,-4.2098,-4.2155,-4.2369,-4.2581,-4.2792,-4.3021,-4.2857,-4.2372,-4.2472,-4.2433,-4.2345,-4.2458,-4.2663,-4.2831,-4.2887,-4.29,-4.29,-4.29,-4.29,-4.29,-4.29,-4.29,-4.29,-4.29,-4.29,-4.29,-4.29,-4.29,-4.29,-4.29,-4.29,-4.29,-4.29,-4.29,-4.29,-4.29,-4.29,-4.29,-4.2914,-4.3023,-4.3104,-4.3199,-4.3443,-4.3769,-4.3877,-4.4054,-4.4474,-4.4664,-4.48,-4.4827,-4.4976,-4.5261,-4.5641,-4.5668,-4.5885,-4.6197,-4.6401,-4.6319,-4.6197,-4.5872,-4.5153,-4.4284,-4.3954,-4.3696,-4.309,-4.3009,-4.2982,-4.29,-4.29,-4.29,-4.29,-4.29,-4.29,-4.29,-4.29,-4.29,-4.29,-4.29,-4.29,-4.29,-4.29,-4.29,-4.29,-4.29,-4.29,-4.29,-4.29,-4.29,-4.29,-4.29,-4.29,-4.29,-4.29,-4.29,-4.29,-4.29,-4.29,-4.29,-4.29,-4.29,-4.2818,-4.2806,-4.2818,-4.2818,-4.2818,-4.2818,-4.2818,-4.2762,-4.2525,-4.2413,-4.2369,-4.2211,-4.2098,-4.2098,-4.2155,-4.2199,-4.2413,-4.2581,-4.2862,-4.3598,-4.3894,-4.3958,-4.3651,-4.3517,-4.313,-4.2981,-4.3097,-4.3103,-4.2974,-4.2928,-4.29,-4.29,-4.29,-4.29,-4.29,-4.29,-4.29,-4.29,-4.29,-4.29,-4.29,-4.29,-4.29,-4.29,-4.29,-4.29,-4.29,-4.29,-4.29,-4.29,-4.2941,-4.3036,-4.3036,-4.3362,-4.3565,-4.3674,-4.4027,-4.4325,-4.4474,-4.4515,-4.4569,-4.4749,-4.5142,-4.5397,-4.5438,-4.579,-4.6062,-4.6279,-4.6292,-4.6319,-4.6494,-4.6535,-4.6535,-4.6428,-4.6319,-4.5967,-4.5302,-4.4773,-4.4257,-4.3769,-4.3538,-4.3402,-4.2968,-4.29,-4.29,-4.29,-4.29,-4.29,-4.29,-4.29,-4.29,-4.29,-4.29,-4.29,-4.29,-4.29,-4.29,-4.29,-4.29,-4.29,-4.29,-4.29,-4.29,-4.29,-4.29,-4.29,-4.29,-4.29,-4.29,-4.29,-4.29,-4.29,-4.29,-4.29,-4.29,-4.2986,-4.2986,-4.2986,-4.2986,-4.2986,-4.2986,-4.2986,-4.2974,-4.2806,-4.2737,-4.2694,-4.2594,-4.2538,-4.2538,-4.255,-4.2594,-4.275,-4.2905,-4.3364,-4.3942,-4.4245,-4.4457,-4.4718,-4.4507,-4.4225,-4.3707,-4.3593,-4.348,-4.3321,-4.3036,-4.29,-4.29,-4.29,-4.29,-4.29,-4.29,-4.29,-4.29,-4.29,-4.29,-4.29,-4.29,-4.29,-4.29,-4.29,-4.29,-4.29,-4.3199,-4.328,-4.3375,-4.3565,-4.3579,-4.3443,-4.3864,-4.4162,-4.4284,-4.4461,-4.4881,-4.5003,-4.4972,-4.5016,-4.5272,-4.5519,-4.5562,-4.5642,-4.6044,-4.6204,-4.6297,-4.6403,-4.6521,-4.6535,-4.6535,-4.6535,-4.6535,-4.6535,-4.6372,-4.5994,-4.5478,-4.4881,-4.4325,-4.3918,-4.3674,-4.3375,-4.3118,-4.29,-4.2914,-4.29,-4.29,-4.29,-4.29,-4.29,-4.29,-4.29,-4.29,-4.29,-4.29,-4.29,-4.29,-4.29,-4.29,-4.29,-4.29,-4.29,-4.29,-4.29,-4.29,-4.29,-4.29,-4.29,-4.29,-4.29,-4.29,-4.29,-4.29,-4.29,-4.2986,-4.2986,-4.2986,-4.2986,-4.2986,-4.2986,-4.2986,-4.2986,-4.2986,-4.2986,-4.2986,-4.2986,-4.293,-4.2986,-4.293,-4.2986,-4.3129,-4.3406,-4.3848,-4.4203,-4.4489,-4.4763,-4.5182,-4.5302,-4.5233,-4.4617,-4.436,-4.4122,-4.381,-4.3362,-4.3158,-4.305,-4.29,-4.29,-4.29,-4.29,-4.29,-4.29,-4.29,-4.29,-4.29,-4.29,-4.29,-4.29,-4.3077,-4.3104,-4.324,-4.3592,-4.3932,-4.3995,-4.4501,-4.4488,-4.4302,-4.4488,-4.4841,-4.4854,-4.4953,-4.5213,-4.5473,-4.536,-4.5364,-4.5887,-4.5728,-4.5635,-4.5742,-4.5874,-4.606,-4.6192,-4.6364,-4.6535,-4.6535,-4.6535,-4.6535,-4.6535,-4.6535,-4.6535,-4.644,-4.6007,-4.5505,-4.4936,-4.4556,-4.4284,-4.3818,-4.3389,-4.3131,-4.2928,-4.2914,-4.29,-4.29,-4.29,-4.29,-4.29,-4.29,-4.29,-4.29,-4.29,-4.29,-4.29,-4.29,-4.29,-4.29,-4.29,-4.29,-4.29,-4.29,-4.29,-4.29,-4.29,-4.29,-4.29,-4.29,-4.29,-4.29,-4.29,-4.29,-4.2986,-4.2986,-4.2986,-4.2986,-4.2986,-4.2986,-4.2986,-4.2986,-4.2986,-4.2986,-4.2986,-4.2986,-4.2986,-4.2986,-4.2974,-4.3129,-4.3449,-4.3848,-4.419,-4.4422,-4.4748,-4.518,-4.5488,-4.5755,-4.5898,-4.5985,-4.5519,-4.499,-4.4488,-4.3972,-4.366,-4.3538,-4.3213,-4.3009,-4.2982,-4.29,-4.2955,-4.29,-4.29,-4.29,-4.29,-4.2955,-4.3036,-4.309,-4.3443,-4.3606,-4.3769,-4.4203,-4.4556,-4.461,-4.5139,-4.5148,-4.5005,-4.5202,-4.5373,-4.5416,-4.5518,-4.5669,-4.5751,-4.5634,-4.5582,-4.5635,-4.5609,-4.5702,-4.5808,-4.5967,-4.6073,-4.635,-4.6416,-4.6535,-4.6535,-4.6535,-4.6535,-4.6535,-4.6535,-4.6535,-4.6442,-4.6306,-4.6035,-4.5519,-4.5234,-4.4908,-4.4352,-4.3832,-4.3402,-4.3131,-4.2968,-4.2928,-4.29,-4.29,-4.29,-4.29,-4.29,-4.29,-4.29,-4.29,-4.29,-4.29,-4.29,-4.29,-4.29,-4.29,-4.29,-4.29,-4.29,-4.29,-4.29,-4.29,-4.29,-4.29,-4.29,-4.29,-4.29,-4.29,-4.29,-4.2986,-4.2986,-4.2986,-4.2986,-4.2986,-4.2986,-4.2986,-4.2986,-4.2986,-4.2986,-4.2986,-4.2986,-4.2986,-4.303,-4.3141,-4.3406,-4.3861,-4.4081,-4.4476,-4.4748,-4.5085,-4.5448,-4.5755,-4.5967,-4.6192,-4.6335,-4.613,-4.5723,-4.5166,-4.4556,-4.4298,-4.4203,-4.3932,-4.3687,-4.3416,-4.3375,-4.3185,-4.3023,-4.2928,-4.2928,-4.2968,-4.3158,-4.3443,-4.3837,-4.404,-4.423,-4.4366,-4.4624,-4.487,-4.4991,-4.5346,-4.5431,-4.5432,-4.5472,-4.559,-4.5591,-4.57,-4.5808,-4.5755,-4.5555,-4.5381,-4.5381,-4.5274,-4.5274,-4.5542,-4.5715,-4.602,-4.6364,-4.6535,-4.6535,-4.6535,-4.6535,-4.6535,-4.6535,-4.6535,-4.6535,-4.6535,-4.6535,-4.6331,-4.5994,-4.5655,-4.5275,-4.4922,-4.4352,-4.3818,-4.3389,-4.309,-4.2982,-4.2914,-4.29,-4.29,-4.29,-4.29,-4.29,-4.29,-4.29,-4.29,-4.29,-4.29,-4.29,-4.29,-4.29,-4.29,-4.29,-4.29,-4.29,-4.29,-4.29,-4.29,-4.29,-4.29,-4.29,-4.29,-4.29,-4.29,-4.2986,-4.2986,-4.2986,-4.2986,-4.2986,-4.2986,-4.2986,-4.2986,-4.2986,-4.2986,-4.2986,-4.2986,-4.3042,-4.3141,-4.3462,-4.3861,-4.4326,-4.4367,-4.4748,-4.5085,-4.5341,-4.5649,-4.5914,-4.6126,-4.6231,-4.6469,-4.6428,-4.6225,-4.575,-4.5166,-4.4922,-4.48,-4.48,-4.4501,-4.4054,-4.3959,-4.3606,-4.343,-4.3253,-4.3253,-4.3375,-4.3715,-4.4162,-4.4678,-4.4763,-4.4766,-4.477,-4.5025,-4.5177,-4.5272,-4.5448,-4.5569,-4.5529,-4.5488,-4.5502,-4.5435,-4.5502,-4.5502,-4.5448,-4.5234,-4.5072,-4.5059,-4.4964,-4.5018,-4.5341,-4.5715,-4.6034,-4.6416,-4.6535,-4.6535,-4.6535,-4.6535,-4.6535,-4.6535,-4.6535,-4.6535,-4.6535,-4.6535,-4.6535,-4.6277,-4.5953,-4.5641,-4.5288,-4.499,-4.4406,-4.3737,-4.3375,-4.3077,-4.3009,-4.2914,-4.29,-4.29,-4.29,-4.29,-4.29,-4.29,-4.29,-4.29,-4.29,-4.29,-4.29,-4.29,-4.29,-4.29,-4.29,-4.29,-4.29,-4.29,-4.29,-4.29,-4.29,-4.29,-4.29,-4.29,-4.29,-4.2986,-4.2986,-4.2986,-4.2986,-4.2986,-4.2986,-4.2986,-4.2986,-4.2986,-4.2986,-4.2986,-4.3042,-4.3141,-4.3462,-4.3916,-4.4203,-4.4422,-4.4802,-4.5085,-4.5287,-4.5649,-4.5861,-4.6073,-4.6297,-4.6403,-4.6535,-4.6535,-4.6508,-4.6184,-4.5723,-4.5505,-4.5424,-4.5085,-4.4664,-4.4624,-4.4583,-4.4556,-4.4474,-4.4434,-4.4434,-4.4461,-4.4529,-4.4614,-4.4793,-4.4937,-4.5104,-4.5106,-4.5326,-4.5448,-4.5502,-4.5515,-4.5448,-4.5301,-4.5247,-4.5072,-4.5005,-4.5059,-4.5247,-4.518,-4.5018,-4.4843,-4.4951,-4.4951,-4.5234,-4.5609,-4.5981,-4.6364,-4.6469,-4.6535,-4.6535,-4.6535,-4.6535,-4.6535,-4.6535,-4.6535,-4.6535,-4.6535,-4.6535,-4.6535,-4.6521,-4.625,-4.5953,-4.5655,-4.5397,-4.5044,-4.4298,-4.371,-4.3362,-4.309,-4.3009,-4.29,-4.29,-4.29,-4.29,-4.29,-4.29,-4.29,-4.29,-4.29,-4.29,-4.29,-4.29,-4.29,-4.29,-4.29,-4.29,-4.29,-4.29,-4.29,-4.29,-4.29,-4.29,-4.29,-4.29,-4.29,-4.2986,-4.2986,-4.2986,-4.2986,-4.2986,-4.2986,-4.2986,-4.2986,-4.2986,-4.2986,-4.303,-4.3184,-4.3462,-4.3861,-4.4203,-4.4354,-4.4585,-4.5018,-4.5287,-4.5488,-4.5808,-4.6073,-4.6297,-4.6416,-4.6535,-4.6535,-4.6535,-4.6535,-4.636,-4.6265,-4.6089,-4.6021,-4.5817,-4.5546,-4.5248,-4.5207,-4.4976,-4.4786,-4.4705,-4.4881,-4.5061,-4.5054,-4.5086,-4.5396,-4.5391,-4.538,-4.5381,-4.5316,-4.5395,-4.5341,-4.5221,-4.5059,-4.4951,-4.4897,-4.4843,-4.4776,-4.4843,-4.4897,-4.491,-4.4789,-4.4843,-4.4964,-4.5126,-4.5341,-4.5808,-4.6192,-4.6535,-4.6535,-4.6535,-4.6535,-4.6535,-4.6535,-4.6535,-4.6535,-4.6535,-4.6535,-4.6535,-4.6535,-4.6535,-4.6535,-4.6508,-4.6211,-4.598,-4.5723,-4.5451,-4.4963,-4.4244,-4.3728,-4.3389,-4.3118,-4.2995,-4.29,-4.29,-4.29,-4.29,-4.29,-4.29,-4.29,-4.29,-4.29,-4.29,-4.29,-4.29,-4.29,-4.29,-4.29,-4.29,-4.29,-4.29,-4.29,-4.29,-4.29,-4.29,-4.29,-4.29,-4.2986,-4.2986,-4.2986,-4.2986,-4.2986,-4.2986,-4.2986,-4.2986,-4.2986,-4.303,-4.3184,-4.3462,-4.3916,-4.4245,-4.4354,-4.4572,-4.4843,-4.518,-4.5448,-4.5702,-4.5981,-4.6245,-4.6416,-4.6535,-4.6535,-4.6535,-4.6535,-4.6535,-4.6535,-4.6494,-4.6467,-4.6535,-4.6385,-4.6184,-4.5926,-4.579,-4.5628,-4.5343,-4.5172,-4.5297,-4.5554,-4.5375,-4.5498,-4.5634,-4.5649,-4.5502,-4.5448,-4.5234,-4.5072,-4.5018,-4.4897,-4.4789,-4.4735,-4.4735,-4.4735,-4.4735,-4.4735,-4.4789,-4.4897,-4.491,-4.4964,-4.5126,-4.5395,-4.5662,-4.6086,-4.6364,-4.6535,-4.6535,-4.6535,-4.6535,-4.6535,-4.6535,-4.6535,-4.6535,-4.6535,-4.6535,-4.6535,-4.6535,-4.6535,-4.6535,-4.6535,-4.6535,-4.6238,-4.6021,-4.5763,-4.5492,-4.4908,-4.4189,-4.3687,-4.328,-4.305,-4.2914,-4.29,-4.29,-4.29,-4.29,-4.29,-4.29,-4.29,-4.29,-4.29,-4.29,-4.29,-4.29,-4.29,-4.29,-4.29,-4.29,-4.29,-4.29,-4.29,-4.29,-4.29,-4.29,-4.29,-4.2986,-4.2986,-4.2986,-4.2986,-4.2986,-4.2986,-4.2986,-4.2986,-4.2986,-4.3141,-4.3462,-4.3916,-4.4203,-4.4367,-4.4626,-4.4843,-4.518,-4.5435,-4.5702,-4.5967,-4.6297,-4.6416,-4.6535,-4.6535,-4.6535,-4.6535,-4.6535,-4.6535,-4.6535,-4.6535,-4.6535,-4.6535,-4.6535,-4.6455,-4.636,-4.6238,-4.6238,-4.6023,-4.5853,-4.5737,-4.5779,-4.5661,-4.5582,-4.5489,-4.5395,-4.5247,-4.5193,-4.4964,-4.4789,-4.4789,-4.4735,-4.4735,-4.4681,-4.4681,-4.4681,-4.4681,-4.4789,-4.4897,-4.5018,-4.5072,-4.5193,-4.5354,-4.5662,-4.6034,-4.635,-4.6416,-4.6535,-4.6535,-4.6535,-4.6535,-4.6535,-4.6535,-4.6535,-4.6535,-4.6535,-4.6535,-4.6535,-4.6535,-4.6535,-4.6535,-4.6535,-4.6535,-4.6521,-4.6238,-4.6089,-4.5845,-4.5438,-4.4719,-4.3864,-4.3389,-4.309,-4.2928,-4.29,-4.29,-4.29,-4.29,-4.29,-4.29,-4.29,-4.29,-4.29,-4.29,-4.29,-4.29,-4.29,-4.29,-4.29,-4.29,-4.29,-4.29,-4.29,-4.29,-4.29,-4.29,-4.29,-4.2986,-4.2986,-4.2986,-4.2986,-4.2986,-4.2986,-4.2986,-4.2986,-4.2986,-4.3308,-4.3708,-4.4094,-4.4422,-4.4572,-4.4856,-4.5072,-4.5234,-4.5649,-4.5848,-4.6073,-4.6297,-4.6469,-4.6535,-4.6535,-4.6535,-4.6535,-4.6535,-4.6535,-4.6535,-4.6535,-4.6535,-4.6535,-4.6535,-4.6521,-4.6521,-4.6482,-4.6364,-4.6192,-4.6073,-4.5954,-4.5702,-4.5502,-4.5341,-4.5341,-4.5059,-4.4897,-4.4843,-4.4789,-4.4735,-4.4681,-4.4681,-4.4681,-4.4681,-4.4681,-4.4735,-4.4735,-4.4897,-4.5059,-4.518,-4.5234,-4.5341,-4.5715,-4.6086,-4.6364,-4.6469,-4.6521,-4.6535,-4.6535,-4.6535,-4.6535,-4.6535,-4.6535,-4.6535,-4.6535,-4.6535,-4.6535,-4.6535,-4.6535,-4.6535,-4.6535,-4.6535,-4.6535,-4.6535,-4.6508,-4.6333,-4.617,-4.5736,-4.5207,-4.4298,-4.3587,-4.324,-4.2955,-4.29,-4.29,-4.29,-4.29,-4.29,-4.29,-4.29,-4.29,-4.29,-4.29,-4.29,-4.29,-4.29,-4.29,-4.29,-4.29,-4.29,-4.29,-4.29,-4.29,-4.29,-4.29,-4.29,-4.2986,-4.2986,-4.2986,-4.2986,-4.2986,-4.2986,-4.2986,-4.303,-4.3085,-4.3474,-4.3997,-4.4313,-4.4531,-4.4735,-4.5018,-4.5234,-4.5448,-4.5755,-4.6034,-4.6245,-4.6416,-4.6469,-4.6535,-4.6535,-4.6535,-4.6535,-4.6535,-4.6535,-4.6535,-4.6535,-4.6535,-4.6535,-4.6535,-4.6535,-4.6482,-4.6364,-4.6245,-4.6073,-4.5808,-4.5702,-4.5448,-4.518,-4.5072,-4.5005,-4.4843,-4.4735,-4.4735,-4.4735,-4.4735,-4.4681,-4.4681,-4.4681,-4.4681,-4.4735,-4.4735,-4.4897,-4.5072,-4.5234,-4.5395,-4.5502,-4.5649,-4.6086,-4.6297,-4.6469,-4.6535,-4.6535,-4.6535,-4.6535,-4.6535,-4.6535,-4.6535,-4.6535,-4.6535,-4.6535,-4.6535,-4.6535,-4.6535,-4.6535,-4.6535,-4.6535,-4.6535,-4.6535,-4.6535,-4.6535,-4.648,-4.6238,-4.5831,-4.5288,-4.4542,-4.3864,-4.343,-4.3131,-4.29,-4.29,-4.29,-4.29,-4.29,-4.29,-4.29,-4.29,-4.29,-4.29,-4.29,-4.29,-4.29,-4.29,-4.29,-4.29,-4.29,-4.29,-4.29,-4.29,-4.29,-4.29,-4.29,-4.2986,-4.2986,-4.2986,-4.2986,-4.2986,-4.2986,-4.2986,-4.303,-4.3295,-4.3696,-4.4258,-4.4518,-4.4681,-4.4789,-4.5072,-4.5341,-4.5595,-4.5914,-4.6192,-4.6416,-4.6469,-4.6535,-4.6535,-4.6535,-4.6535,-4.6535,-4.6535,-4.6535,-4.6535,-4.6535,-4.6535,-4.6535,-4.6535,-4.6535,-4.6482,-4.6192,-4.602,-4.5901,-4.5488,-4.5341,-4.5113,-4.4897,-4.4843,-4.4789,-4.4735,-4.4681,-4.4681,-4.4681,-4.4681,-4.4681,-4.4681,-4.4681,-4.4681,-4.4735,-4.4897,-4.5126,-4.5234,-4.5502,-4.5901,-4.5967,-4.6139,-4.6364,-4.6469,-4.6469,-4.6535,-4.6535,-4.6535,-4.6535,-4.6535,-4.6535,-4.6535,-4.6535,-4.6535,-4.6535,-4.6535,-4.6535,-4.6535,-4.6535,-4.6535,-4.6535,-4.6535,-4.6535,-4.6535,-4.6535,-4.6535,-4.6279,-4.5899,-4.5356,-4.4759,-4.4244,-4.3796,-4.3321,-4.3036,-4.29,-4.29,-4.29,-4.29,-4.29,-4.29,-4.29,-4.29,-4.29,-4.29,-4.29,-4.29,-4.29,-4.29,-4.29,-4.29,-4.29,-4.29,-4.29,-4.29,-4.29,-4.29,-4.2986,-4.2986,-4.2986,-4.2986,-4.2986,-4.2986,-4.2986,-4.3098,-4.3487,-4.3929,-4.4313,-4.4572,-4.4681,-4.4843,-4.5221,-4.5488,-4.5649,-4.6139,-4.6469,-4.6482,-4.6535,-4.6535,-4.6535,-4.6535,-4.6535,-4.6535,-4.6535,-4.6535,-4.6535,-4.6535,-4.6535,-4.6535,-4.6535,-4.6535,-4.6416,-4.6192,-4.5967,-4.5702,-4.5395,-4.5126,-4.4897,-4.4789,-4.4681,-4.4681,-4.4681,-4.4681,-4.4681,-4.4681,-4.4681,-4.4681,-4.4681,-4.4735,-4.4789,-4.4843,-4.5072,-4.5287,-4.5448,-4.5928,-4.6245,-4.635,-4.635,-4.6469,-4.6535,-4.6535,-4.6535,-4.6535,-4.6535,-4.6535,-4.6535,-4.6535,-4.6535,-4.6535,-4.6535,-4.6535,-4.6535,-4.6535,-4.6535,-4.6535,-4.6535,-4.6535,-4.6535,-4.6535,-4.6535,-4.6535,-4.6535,-4.6535,-4.6157,-4.5817,-4.5275,-4.4732,-4.4244,-4.3647,-4.3253,-4.3023,-4.29,-4.29,-4.29,-4.29,-4.29,-4.29,-4.29,-4.29,-4.29,-4.29,-4.29,-4.29,-4.29,-4.29,-4.29,-4.29,-4.29,-4.29,-4.29,-4.29,-4.29,-4.2986,-4.2986,-4.2986,-4.2986,-4.2986,-4.2986,-4.3098,-4.3321,-4.3734,-4.4107,-4.4409,-4.4613,-4.4789,-4.5005,-4.5328,-4.5702,-4.5755,-4.6245,-4.6469,-4.6535,-4.6535,-4.6535,-4.6535,-4.6535,-4.6535,-4.6535,-4.6535,-4.6535,-4.6535,-4.6535,-4.6535,-4.6535,-4.6535,-4.6535,-4.6364,-4.6139,-4.5808,-4.5542,-4.5234,-4.4897,-4.4789,-4.4681,-4.4681,-4.4681,-4.4681,-4.4681,-4.4681,-4.4681,-4.4681,-4.4681,-4.4735,-4.4789,-4.491,-4.5072,-4.5301,-4.5542,-4.5875,-4.6245,-4.6416,-4.6469,-4.6469,-4.6535,-4.6535,-4.6535,-4.6535,-4.6535,-4.6535,-4.6535,-4.6535,-4.6535,-4.6535,-4.6535,-4.6535,-4.6535,-4.6535,-4.6535,-4.6535,-4.6535,-4.6535,-4.6535,-4.6535,-4.6535,-4.6535,-4.6535,-4.6535,-4.6535,-4.6494,-4.6089,-4.5723,-4.5153,-4.4569,-4.3945,-4.3375,-4.305,-4.2914,-4.29,-4.29,-4.29,-4.29,-4.29,-4.29,-4.29,-4.29,-4.29,-4.29,-4.29,-4.29,-4.29,-4.29,-4.29,-4.29,-4.29,-4.29,-4.29,-4.29,-4.2986,-4.2986,-4.2986,-4.2986,-4.2986,-4.2986,-4.3321,-4.3899,-4.3899,-4.4216,-4.4668,-4.4681,-4.4856,-4.518,-4.5502,-4.5702,-4.5967,-4.6297,-4.6469,-4.6535,-4.6535,-4.6535,-4.6535,-4.6535,-4.6535,-4.6535,-4.6535,-4.6535,-4.6535,-4.6535,-4.6535,-4.6535,-4.6535,-4.6535,-4.6364,-4.5981,-4.5702,-4.5488,-4.5059,-4.4843,-4.4735,-4.4681,-4.4681,-4.4681,-4.4681,-4.4681,-4.4681,-4.4681,-4.4681,-4.4735,-4.4735,-4.491,-4.5085,-4.5193,-4.5542,-4.5914,-4.6311,-4.6416,-4.6482,-4.6535,-4.6535,-4.6535,-4.6535,-4.6535,-4.6535,-4.6535,-4.6535,-4.6535,-4.6535,-4.6535,-4.6535,-4.6535,-4.6535,-4.6535,-4.6535,-4.6535,-4.6535,-4.6535,-4.6535,-4.6535,-4.6535,-4.6535,-4.6535,-4.6535,-4.6535,-4.6535,-4.6508,-4.6345,-4.5885,-4.5343,-4.4759,-4.4135,-4.3579,-4.3077,-4.2941,-4.29,-4.29,-4.29,-4.29,-4.29,-4.29,-4.29,-4.29,-4.29,-4.29,-4.29,-4.29,-4.29,-4.29,-4.29,-4.29,-4.29,-4.29,-4.29,-4.29,-4.2986,-4.2986,-4.2986,-4.2986,-4.2986,-4.2986,-4.3321,-4.3844,-4.3899,-4.4203,-4.4681,-4.4681,-4.491,-4.518,-4.5502,-4.5755,-4.602,-4.6297,-4.6469,-4.6535,-4.6535,-4.6535,-4.6535,-4.6535,-4.6535,-4.6535,-4.6535,-4.6535,-4.6535,-4.6535,-4.6535,-4.6535,-4.6535,-4.6535,-4.6311,-4.5914,-4.5702,-4.5435,-4.5005,-4.4789,-4.4681,-4.4681,-4.4681,-4.4681,-4.4681,-4.4681,-4.4681,-4.4681,-4.4735,-4.4735,-4.4964,-4.5126,-4.518,-4.5542,-4.5954,-4.6297,-4.6469,-4.6535,-4.6535,-4.6535,-4.6535,-4.6535,-4.6535,-4.6535,-4.6535,-4.6535,-4.6535,-4.6535,-4.6535,-4.6535,-4.6535,-4.6535,-4.6535,-4.6535,-4.6535,-4.6535,-4.6535,-4.6535,-4.6535,-4.6535,-4.6535,-4.6535,-4.6535,-4.6535,-4.6535,-4.6535,-4.648,-4.6372,-4.6075,-4.5546,-4.4976,-4.4366,-4.3796,-4.328,-4.2982,-4.29,-4.29,-4.29,-4.29,-4.29,-4.29,-4.29,-4.29,-4.29,-4.29,-4.29,-4.29,-4.29,-4.29,-4.29,-4.29,-4.29,-4.29,-4.29,-4.29,-4.2986,-4.2986,-4.2986,-4.2986,-4.303,-4.3129,-4.3432,-4.3844,-4.3899,-4.4203,-4.4681,-4.4681,-4.4951,-4.5328,-4.5555,-4.5822,-4.6245,-4.6416,-4.6535,-4.6535,-4.6535,-4.6535,-4.6535,-4.6535,-4.6535,-4.6535,-4.6535,-4.6535,-4.6535,-4.6535,-4.6535,-4.6535,-4.6535,-4.6535,-4.6311,-4.5928,-4.5649,-4.5381,-4.5113,-4.4789,-4.4681,-4.4681,-4.4681,-4.4681,-4.4681,-4.4681,-4.4735,-4.4735,-4.4735,-4.4856,-4.5126,-4.5341,-4.5502,-4.5967,-4.6192,-4.6469,-4.6469,-4.6535,-4.6535,-4.6535,-4.6535,-4.6535,-4.6535,-4.6535,-4.6535,-4.6535,-4.6535,-4.6535,-4.6535,-4.6535,-4.6535,-4.6535,-4.6535,-4.6535,-4.6535,-4.6535,-4.6535,-4.6535,-4.6535,-4.6535,-4.6535,-4.6535,-4.6535,-4.6535,-4.6535,-4.6535,-4.6535,-4.6494,-4.625,-4.579,-4.5221,-4.4624,-4.4054,-4.3511,-4.3226,-4.2941,-4.29,-4.29,-4.29,-4.29,-4.29,-4.29,-4.29,-4.29,-4.29,-4.29,-4.29,-4.29,-4.29,-4.29,-4.29,-4.29,-4.29,-4.29,-4.29,-4.2986,-4.2986,-4.2986,-4.2986,-4.303,-4.3295,-4.3585,-4.3899,-4.3955,-4.4216,-4.4626,-4.4681,-4.4992,-4.5435,-4.5595,-4.5928,-4.6297,-4.6469,-4.6535,-4.6535,-4.6535,-4.6535,-4.6535,-4.6535,-4.6535,-4.6535,-4.6535,-4.6535,-4.6535,-4.6535,-4.6535,-4.6535,-4.6535,-4.6535,-4.6416,-4.5981,-4.5702,-4.5502,-4.5113,-4.4789,-4.4735,-4.4681,-4.4681,-4.4681,-4.4681,-4.4681,-4.4735,-4.4776,-4.4897,-4.5072,-4.5341,-4.5542,-4.5981,-4.6245,-4.6416,-4.6482,-4.6535,-4.6535,-4.6535,-4.6535,-4.6535,-4.6535,-4.6535,-4.6535,-4.6535,-4.6535,-4.6535,-4.6535,-4.6535,-4.6535,-4.6535,-4.6535,-4.6535,-4.6535,-4.6535,-4.6535,-4.6535,-4.6535,-4.6535,-4.6535,-4.6535,-4.6535,-4.6535,-4.6535,-4.6535,-4.6535,-4.6535,-4.6535,-4.6399,-4.6007,-4.556,-4.4976,-4.4434,-4.3891,-4.3348,-4.3077,-4.2928,-4.29,-4.29,-4.29,-4.29,-4.29,-4.29,-4.29,-4.29,-4.29,-4.29,-4.29,-4.29,-4.29,-4.29,-4.29,-4.29,-4.29,-4.29,-4.2986,-4.2986,-4.2986,-4.2986,-4.303,-4.3295,-4.3585,-4.3899,-4.4107,-4.4409,-4.4681,-4.4722,-4.5046,-4.5555,-4.5649,-4.5981,-4.6364,-4.6535,-4.6535,-4.6535,-4.6535,-4.6535,-4.6535,-4.6535,-4.6535,-4.6535,-4.6535,-4.6535,-4.6535,-4.6535,-4.6535,-4.6535,-4.6535,-4.6535,-4.6469,-4.6034,-4.5808,-4.5662,-4.5341,-4.4951,-4.4843,-4.4735,-4.4681,-4.4681,-4.4681,-4.4735,-4.4789,-4.4964,-4.5072,-4.5234,-4.5662,-4.5981,-4.6364,-4.6469,-4.6469,-4.6535,-4.6535,-4.6535,-4.6535,-4.6535,-4.6535,-4.6535,-4.6535,-4.6535,-4.6535,-4.6535,-4.6535,-4.6535,-4.6535,-4.6535,-4.6535,-4.6535,-4.6535,-4.6535,-4.6535,-4.6535,-4.6535,-4.6535,-4.6535,-4.6535,-4.6535,-4.6535,-4.6535,-4.6535,-4.6535,-4.6535,-4.6535,-4.6535,-4.6535,-4.6317,-4.6007,-4.5478,-4.4908,-4.4339,-4.3687,-4.324,-4.309,-4.2941,-4.29,-4.29,-4.29,-4.29,-4.29,-4.29,-4.29,-4.29,-4.29,-4.29,-4.29,-4.29,-4.29,-4.29,-4.29,-4.29,-4.29,-4.2986,-4.2986,-4.2986,-4.3085,-4.3184,-4.3474,-4.3819,-4.4107,-4.4367,-4.4572,-4.4722,-4.4897,-4.518,-4.5609,-4.5702,-4.5981,-4.6416,-4.6482,-4.6535,-4.6535,-4.6535,-4.6535,-4.6535,-4.6535,-4.6535,-4.6535,-4.6535,-4.6535,-4.6535,-4.6535,-4.6535,-4.6535,-4.6535,-4.6469,-4.6469,-4.6179,-4.5954,-4.5768,-4.5502,-4.5287,-4.5059,-4.4897,-4.4735,-4.4681,-4.4735,-4.4789,-4.4964,-4.5139,-4.5341,-4.5555,-4.6034,-4.6192,-4.6416,-4.6469,-4.6535,-4.6535,-4.6535,-4.6535,-4.6535,-4.6535,-4.6535,-4.6535,-4.6535,-4.6535,-4.6535,-4.6535,-4.6535,-4.6535,-4.6535,-4.6535,-4.6535,-4.6535,-4.6535,-4.6535,-4.6535,-4.6535,-4.6535,-4.6535,-4.6535,-4.6535,-4.6535,-4.6535,-4.6535,-4.6535,-4.6535,-4.6535,-4.6535,-4.6535,-4.6535,-4.6535,-4.629,-4.598,-4.5424,-4.4624,-4.3823,-4.3457,-4.328,-4.3118,-4.29,-4.29,-4.29,-4.29,-4.29,-4.29,-4.29,-4.29,-4.29,-4.29,-4.29,-4.29,-4.29,-4.29,-4.29,-4.29,-4.29,-4.2986,-4.2986,-4.2986,-4.3141,-4.3462,-4.3776,-4.4052,-4.4313,-4.4585,-4.4722,-4.4843,-4.5126,-4.5395,-4.5595,-4.5901,-4.6192,-4.6416,-4.6469,-4.6535,-4.6535,-4.6535,-4.6535,-4.6535,-4.6535,-4.6535,-4.6535,-4.6535,-4.6535,-4.6535,-4.6535,-4.6535,-4.6535,-4.6535,-4.6535,-4.6416,-4.6245,-4.6073,-4.5914,-4.5768,-4.5662,-4.5381,-4.5113,-4.4951,-4.4843,-4.483,-4.5005,-4.518,-4.5341,-4.5609,-4.5875,-4.6245,-4.6416,-4.6469,-4.6535,-4.6535,-4.6535,-4.6535,-4.6535,-4.6535,-4.6535,-4.6535,-4.6535,-4.6535,-4.6535,-4.6535,-4.6535,-4.6535,-4.6535,-4.6535,-4.6535,-4.6535,-4.6535,-4.6535,-4.6535,-4.6535,-4.6535,-4.6535,-4.6535,-4.6535,-4.6535,-4.6535,-4.6535,-4.6535,-4.6535,-4.6535,-4.6535,-4.6535,-4.6535,-4.6535,-4.6535,-4.6426,-4.629,-4.5953,-4.5136,-4.4135,-4.3687,-4.3497,-4.309,-4.29,-4.29,-4.29,-4.29,-4.29,-4.29,-4.29,-4.29,-4.29,-4.29,-4.29,-4.29,-4.29,-4.29,-4.29,-4.29,-4.29,-4.2986,-4.2986,-4.2986,-4.3129,-4.3462,-4.3776,-4.4052,-4.4313,-4.4572,-4.4843,-4.5126,-4.5395,-4.5609,-4.5595,-4.5901,-4.6179,-4.6469,-4.6535,-4.6535,-4.6535,-4.6535,-4.6535,-4.6535,-4.6535,-4.6535,-4.6535,-4.6535,-4.6535,-4.6535,-4.6535,-4.6535,-4.6535,-4.6535,-4.6535,-4.6482,-4.6364,-4.6245,-4.6139,-4.5967,-4.5861,-4.5715,-4.5488,-4.5488,-4.5435,-4.5435,-4.5488,-4.5542,-4.5755,-4.5861,-4.6073,-4.6297,-4.6469,-4.6535,-4.6535,-4.6535,-4.6535,-4.6535,-4.6535,-4.6535,-4.6535,-4.6535,-4.6535,-4.6535,-4.6535,-4.6535,-4.6535,-4.6535,-4.6535,-4.6535,-4.6535,-4.6535,-4.6535,-4.6535,-4.6535,-4.6535,-4.6535,-4.6535,-4.6535,-4.6535,-4.6535,-4.6535,-4.6535,-4.6535,-4.6535,-4.6535,-4.6535,-4.6535,-4.6535,-4.6535,-4.6535,-4.6535,-4.6453,-4.6345,-4.5641,-4.4746,-4.404,-4.3701,-4.324,-4.29,-4.29,-4.29,-4.29,-4.29,-4.29,-4.29,-4.29,-4.29,-4.29,-4.29,-4.29,-4.29,-4.29,-4.29,-4.29,-4.29]},{"header":{"parameterUnit":"m.s-1","parameterCategory":1,"la1":31.0,"la2":29.5877,"lo1":-88.7671,"lo2":-86.6584,"dy":0.0162,"dx":0.0185,"nx":115,"ny":88,"refTime":"2025-07-28T00:00:00:Z","depth":0,"parameterNumber":3,"parameterNumberName":"V-component_of_WINDS"},"data":[0.0,0.0,0.0,0.0,0.0,0.0,0.0,0.0,0.0,0.0,0.0,0.0,0.0,0.0,0.0,0.0,0.0,0.0,0.0,0.0,0.0,0.0,0.0,0.0,0.0,0.0,0.0,0.0,0.0,0.0,0.0,0.0,0.0,0.0,0.0,0.0,0.0,0.0,0.0,0.0,0.0,0.0,0.0,0.0,0.0,0.0,0.0,0.0,0.0,0.0,0.0,0.0,0.0,0.0,0.0,0.0,0.0,0.0,0.0,0.0,0.0,0.0,0.0,0.0,0.0,0.0,0.0,0.0,0.0,0.0,0.0,0.0,0.0,0.0,0.0,0.0,0.0,0.0,0.0,0.0,0.0,0.0,0.0,0.0,0.0,0.0,0.0,0.0,0.0,0.0,0.0,0.0,0.0,0.0,0.0,0.0,0.0,0.0,0.0,0.0,0.0,0.0,0.0,0.0,0.0,0.0,0.0,0.0,0.0,0.0,0.0,0.0,0.0,0.0,0.0,0.0,0.0,0.0,0.0,0.0,0.0,0.0,0.0,0.0,0.0,0.0,0.0,0.0,0.0,0.0,0.0,0.0,0.0,0.0,0.0,0.0,0.0,0.0,0.0,0.0,0.0,0.0,0.0,0.0,0.0,0.0,0.0,0.0,0.0,0.0,0.0,0.0,0.0,0.0,0.0,0.0,0.0,0.0,0.0,0.0,0.0,0.0,0.0,0.0,0.0,0.0,0.0,0.0,0.0,0.0,0.0,0.0,0.0,0.0,0.0,0.0,0.0,0.0,0.0,0.0,0.0,0.0,0.0,0.0,0.0,0.0,0.0,0.0,0.0,0.0,0.0,0.0,0.0,0.0,0.0,0.0,0.0,0.0,0.0,0.0,0.0,0.0,0.0,0.0,0.0,0.0,0.0,0.0,0.0,0.0,0.0,0.0,0.0,0.0,0.0,0.0,0.0,0.0,0.0,0.0,0.0,0.0,0.0,0.0,0.0,0.0,0.0,0.0,0.0,0.0,0.0,0.0,0.0,0.0,0.0,0.0,0.0,0.0,0.0,0.0,0.0,0.0,0.0,0.0,0.0,0.0,0.0,0.0,0.0,0.0,0.0,0.0,0.0,0.0,0.0,0.0,0.0,0.0,0.0,0.0,0.0,0.0,0.0,0.0,0.0,0.0,0.0,0.0,0.0,0.0,0.0,0.0,0.0,0.0,0.0,0.0,0.0,0.0,0.0,0.0,0.0,0.0,0.0,0.0,0.0,0.0,0.0,0.0,0.0,0.0,0.0,0.0,0.0,0.0,0.0,0.0,0.0,0.0,0.0,0.0,0.0,0.0,0.0,0.0,0.0,0.0,0.0,0.0,0.0,0.0,0.0,0.0,0.0,0.0,0.0,0.0,0.0,0.0,0.0,0.0,0.0,0.0,0.0,0.0,0.0,0.0,0.0,0.0,0.0,0.0,0.0,0.0,0.0,0.0,0.0,0.0,0.0,0.0,0.0,0.0,0.0,0.0,0.0,0.0,0.0,0.0,0.0,0.0,0.0,0.0,0.0,0.0,0.0,0.0,0.0,0.0,0.0,0.0,0.0,0.0,0.0,0.0,0.0,0.0,0.0,0.0,0.0,0.0,0.0,0.0,0.0,0.0,0.0,0.0,0.0,0.0,0.0,0.0,0.0,0.0,0.0,0.0,0.0,0.0,0.0,0.0,0.0,0.0,0.0,0.0,0.0,0.0,0.0,0.0,0.0,0.0,0.0,0.0,0.0,0.0,0.0,0.0,0.0,0.0,0.0,0.0,0.0,0.0,0.0,0.0,0.0,0.0,0.0,0.0,0.0,0.0,0.0,0.0,0.0,0.0,0.0,0.0,0.0,0.0,0.0,0.0,0.0,0.0,0.0,0.0,0.0,0.0,0.0,0.0,0.0,0.0,0.0,0.0,0.0,0.0,0.0,0.0,0.0,0.0,0.0,0.0,0.0,0.0,0.0,0.0,0.0,0.0,0.0,0.0,0.0,0.0,0.0,0.0,0.0,0.0,0.0,0.0,0.0,0.0,0.0,0.0,0.0,0.0,0.0,0.0,0.0,0.0,0.0,0.0,0.0,0.0,0.0,0.0,0.0,0.0,0.0,0.0,0.0,0.0,0.0,0.0,0.0,0.0,0.0,0.0,0.0,0.0,0.0,0.0,0.0,0.0,0.0,0.0,0.0,0.0,0.0,0.0,0.0,0.0,0.0,0.0,0.0,0.0,0.0,0.0,0.0,0.0,0.0,0.0,0.0,0.0,0.0,0.0,0.0,0.0,0.0,0.0,0.0,0.0,0.0,0.0,0.0,0.0,0.0,0.0,0.0,0.0,0.0,0.0,0.0,0.0,0.0,0.0,0.0,0.0,0.0,0.0,0.0,0.0,0.0,0.0,0.0,0.0,0.0,0.0,0.0,0.0,0.0,0.0,0.0,0.0,0.0,0.0,0.0,0.0,0.0,0.0,0.0,0.0,0.0,0.0,0.0,0.0,0.0,0.0,0.0,0.0,0.0,0.0,0.0,0.0,0.0,0.0,0.0,0.0,0.0,0.0,0.0,0.0,0.0,0.0,0.0,0.0,0.0,0.0,0.0,0.0,0.0,0.0,0.0,0.0,0.0,0.0,0.0,0.0,0.0,0.0,0.0,0.0,0.0,0.0,0.0,0.0,0.0,0.0,0.0,0.0,0.0,0.0,0.0,0.0,0.0,0.0,0.0,0.0,0.0,0.0,0.0,0.0,0.0,0.0,0.0,0.0,0.0,0.0,0.0,0.0,0.0,0.0,0.0,0.0,0.0,0.0,0.0,0.0,0.0,0.0,0.0,0.0,0.0,0.0,0.0,0.0,0.0,0.0,0.0,0.0,0.0,0.0,0.0,0.0,0.0,0.0,0.0,0.0,0.0,0.0,0.0,0.0,0.0,0.0,0.0,0.0,0.0,0.0,0.0,0.0,0.0,0.0,0.0,0.0,0.0,0.0,0.0,0.0,0.0,0.0,0.0,0.0,0.0,0.0,0.0,0.0,0.0,0.0,0.0,0.0,0.0,0.0,0.0,0.0,0.0,0.0,0.0,0.0,0.0,0.0,0.0,0.0,0.0,0.0,0.0,0.0,0.0,0.0,0.0,0.0,0.0,0.0,0.0,0.0,0.0,0.0,0.0,0.0,0.0,0.0,0.0,0.0,0.0,0.0,0.0,0.0,0.0,0.0,0.0,0.0,0.0,0.0,0.0,0.0,0.0,0.0,0.0,0.0,0.0,0.0,0.0,0.0,0.0,0.0,0.0,0.0,0.0,0.0,0.0,0.0,0.0,0.0,0.0,0.0,0.0,0.0,0.0,0.0,0.0,0.0,0.0,0.0,0.0,0.0,0.0,0.0,0.0,0.0,0.0,0.0,0.0,0.0,0.0,0.0,0.0,0.0,0.0,0.0,0.0,0.0,0.0,0.0,0.0,0.0,0.0,0.0,0.0,0.0,0.0,0.0,0.0,0.0,0.0,0.0,0.0,0.0,0.0,0.0,0.0,0.0,0.0,0.0,0.0,0.0,0.0,0.0,0.0,0.0,0.0,0.0,0.0,0.0,0.0,0.0,0.0,0.0,0.0,0.0,0.0,0.0,0.0,0.0,0.0,0.0,0.0,0.0,0.0,0.0,0.0,0.0,0.0,0.0,0.0,0.0,0.0,0.0,0.0,0.0,0.0,0.0,0.0,0.0,0.0,0.0,0.0,0.0,0.0,0.0,0.0,0.0,0.0,0.0,0.0,0.0,0.0,0.0,0.0,0.0,0.0,0.0,0.0,0.0,0.0,0.0,0.0,0.0,0.0,0.0,0.0,0.0,0.0,0.0,0.0,0.0,0.0,0.0,0.0,0.0,0.0,0.0,0.0,0.0,0.0,0.0,0.0,0.0,0.0,0.0,0.0,0.0,0.0,0.0,0.0,0.0,0.0,0.0,0.0,0.0,0.0,0.0,0.0,0.0,0.0,0.0,0.0,0.0,0.0,0.0,0.0,0.0,0.0,0.0,0.0,0.0,0.0,0.0,0.0,0.0,0.0,0.0,0.0,0.0,0.0,0.0,0.0,0.0,0.0,0.0,0.0,0.0,0.0,0.0,0.0,0.0,0.0,0.0,0.0,0.0,0.0,0.0,0.0,0.0,0.0,0.0,0.0,0.0,0.0,0.0,0.0,0.0,0.0,0.0,0.0,0.0,0.0,0.0,0.0,0.0,0.0,0.0,0.0,0.0,0.0,0.0,-0.535,0.0,0.0,0.0,0.0,0.0,0.0,0.0,0.0,0.0,0.0,0.0,0.0,0.0,0.0,0.0,0.0,0.0,0.0,0.0,0.0,0.0,0.0,0.0,0.0,0.0,0.0,0.0,0.0,0.0,0.0,0.0,0.0,0.0,0.0,0.0,0.0,0.0,0.0,0.0,0.0,0.0,0.0,0.0,0.0,0.0,0.0,0.0,0.0,0.0,0.0,0.0,0.0,0.0,0.0,0.0,0.0,0.0,0.0,0.0,0.0,0.0,0.0,0.0,0.0,0.0,0.0,0.0,0.0,0.0,0.0,0.0,0.0,0.0,0.0,0.0,0.0,0.0,0.0,0.0,0.0,0.0,0.0,0.0,0.0,0.0,0.0,0.0,0.0,0.0,0.0,0.0,0.0,0.0,0.0,0.0,0.0,0.0,0.0,0.0,0.0,0.0,0.0,0.0,0.0,0.0,0.0,0.0,0.0,0.0,0.0,-0.5633,-0.5626,-0.5569,-0.5531,-0.5454,0.0,0.0,0.0,0.0,0.0,0.0,0.0,0.0,0.0,0.0,0.0,0.0,0.0,0.0,0.0,0.0,0.0,0.0,0.0,0.0,0.0,0.0,0.0,0.0,0.0,0.0,0.0,0.0,0.0,0.0,0.0,0.0,0.0,0.0,0.0,0.0,0.0,0.0,0.0,0.0,0.0,0.0,0.0,0.0,0.0,0.0,0.0,0.0,0.0,0.0,0.0,0.0,0.0,0.0,0.0,0.0,0.0,0.0,0.0,0.0,0.0,0.0,0.0,0.0,0.0,0.0,0.0,0.0,0.0,0.0,0.0,0.0,0.0,0.0,0.0,0.0,0.0,0.0,0.0,0.0,0.0,0.0,0.0,0.0,0.0,0.0,0.0,0.0,0.0,0.0,0.0,0.0,0.0,0.0,0.0,0.0,0.0,0.0,0.0,0.0,0.0,0.0,0.0,0.0,0.0,0.0,0.0,0.0,0.0,0.0,0.0,0.0,-0.5784,-0.5682,-0.5549,0.0,0.0,0.0,0.0,0.0,0.0,0.0,0.0,0.0,0.0,0.0,0.0,0.0,0.0,0.0,0.0,0.0,0.0,0.0,0.0,0.0,0.0,0.0,0.0,0.0,0.0,0.0,0.0,0.0,0.0,0.0,0.0,0.0,0.0,0.0,0.0,0.0,0.0,0.0,0.0,0.0,0.0,0.0,0.0,0.0,0.0,0.0,0.0,0.0,0.0,0.0,0.0,0.0,0.0,0.0,0.0,0.0,0.0,0.0,0.0,0.0,0.0,0.0,0.0,0.0,0.0,0.0,0.0,0.0,0.0,0.0,0.0,0.0,0.0,0.0,0.0,0.0,0.0,0.0,0.0,0.0,0.0,0.0,0.0,0.0,0.0,0.0,0.0,0.0,0.0,0.0,0.0,0.0,0.0,0.0,0.0,0.0,0.0,0.0,0.0,0.0,0.0,0.0,0.0,0.0,0.0,0.0,0.0,0.0,0.0,-0.6187,-0.6586,-0.6083,0.0,-0.5692,0.0,0.0,0.0,0.0,0.0,0.0,0.0,0.0,0.0,0.0,0.0,0.0,0.0,0.0,0.0,0.0,0.0,0.0,0.0,0.0,0.0,0.0,0.0,0.0,0.0,0.0,0.0,0.0,0.0,0.0,0.0,0.0,0.0,0.0,0.0,0.0,0.0,0.0,0.0,0.0,0.0,0.0,0.0,0.0,0.0,0.0,0.0,0.0,0.0,0.0,0.0,0.0,0.0,0.0,0.0,0.0,0.0,0.0,0.0,0.0,0.0,0.0,0.0,0.0,0.0,0.0,0.0,0.0,0.0,0.0,0.0,0.0,0.0,0.0,0.0,0.0,0.0,0.0,0.0,0.0,0.0,0.0,0.0,0.0,0.0,0.0,0.0,0.0,0.0,0.0,0.0,0.0,0.0,0.0,0.0,0.0,0.0,0.0,0.0,0.0,0.0,0.0,0.0,0.0,0.0,0.0,0.0,0.0,0.0,0.0,-0.6821,-0.7288,-0.6985,-0.6654,0.0,0.0,0.0,0.0,0.0,0.0,0.0,0.0,0.0,0.0,0.0,0.0,0.0,0.0,0.0,0.0,0.0,0.0,0.0,0.0,0.0,0.0,0.0,0.0,0.0,0.0,0.0,0.0,0.0,0.0,0.0,0.0,0.0,0.0,0.0,0.0,0.0,0.0,0.0,0.0,0.0,0.0,0.0,0.0,0.0,0.0,0.0,0.0,0.0,0.0,0.0,0.0,0.0,0.0,0.0,0.0,0.0,0.0,0.0,0.0,0.0,0.0,0.0,0.0,0.0,0.0,0.0,0.0,0.0,0.0,0.0,0.0,0.0,0.0,0.0,0.0,0.0,0.0,0.0,0.0,0.0,0.0,0.0,0.0,0.0,0.0,0.0,0.0,0.0,0.0,0.0,0.0,0.0,0.0,0.0,0.0,0.0,0.0,0.0,0.0,0.0,0.0,0.0,0.0,0.0,0.0,0.0,0.0,0.0,0.0,-0.7161,-0.739,-0.7711,-0.7772,-0.752,-0.6996,0.0,0.0,0.0,0.0,0.0,0.0,0.0,0.0,0.0,0.0,0.0,0.0,0.0,0.0,0.0,0.0,0.0,0.0,0.0,0.0,0.0,0.0,0.0,0.0,0.0,0.0,0.0,0.0,0.0,0.0,0.0,0.0,0.0,0.0,0.0,0.0,0.0,0.0,0.0,0.0,0.0,0.0,0.0,0.0,0.0,0.0,0.0,0.0,0.0,0.0,0.0,0.0,0.0,0.0,0.0,0.0,0.0,0.0,0.0,0.0,0.0,0.0,0.0,0.0,0.0,0.0,0.0,0.0,0.0,0.0,0.0,0.0,0.0,0.0,0.0,0.0,0.0,0.0,0.0,0.0,0.0,0.0,0.0,0.0,0.0,0.0,0.0,0.0,0.0,0.0,0.0,0.0,0.0,0.0,0.0,0.0,0.0,0.0,0.0,0.0,0.0,0.0,0.0,0.0,0.0,0.0,0.0,0.0,0.0,-0.7537,-0.7778,-0.7848,-0.824,-0.8216,0.0,0.0,0.0,0.0,0.0,0.0,0.0,0.0,0.0,0.0,0.0,0.0,0.0,0.0,0.0,0.0,0.0,0.0,0.0,0.0,0.0,0.0,0.0,0.0,0.0,0.0,0.0,0.0,0.0,0.0,0.0,0.0,0.0,0.0,0.0,0.0,0.0,0.0,0.0,0.0,0.0,0.0,0.0,0.0,0.0,0.0,0.0,0.0,0.0,0.0,0.0,0.0,0.0,0.0,0.0,0.0,0.0,0.0,0.0,0.0,0.0,0.0,0.0,0.0,0.0,0.0,0.0,0.0,0.0,0.0,0.0,0.0,0.0,0.0,0.0,0.0,0.0,0.0,0.0,0.0,0.0,0.0,0.0,0.0,0.0,0.0,0.0,0.0,0.0,0.0,0.0,0.0,0.0,0.0,0.0,0.0,0.0,0.0,0.0,0.0,0.0,0.0,0.0,0.0,0.0,0.0,0.0,0.0,0.0,-0.8229,-0.8718,-0.8922,-0.8896,-0.9013,-0.882,0.0,0.0,0.0,0.0,0.0,0.0,0.0,0.0,0.0,0.0,0.0,0.0,0.0,0.0,0.0,0.0,0.0,0.0,0.0,0.0,0.0,0.0,0.0,0.0,0.0,0.0,0.0,0.0,0.0,0.0,0.0,0.0,0.0,0.0,0.0,0.0,0.0,0.0,0.0,0.0,0.0,0.0,0.0,0.0,0.0,0.0,0.0,0.0,0.0,0.0,0.0,0.0,0.0,0.0,0.0,0.0,0.0,0.0,0.0,0.0,0.0,0.0,0.0,0.0,0.0,0.0,0.0,0.0,0.0,0.0,0.0,0.0,0.0,0.0,0.0,0.0,0.0,0.0,0.0,0.0,0.0,0.0,0.0,0.0,0.0,0.0,0.0,0.0,0.0,0.0,0.0,0.0,0.0,0.0,0.0,0.0,0.0,0.0,0.0,0.0,0.0,0.0,0.0,0.0,0.0,0.0,0.0,0.0,0.0,-0.9378,0.0,-0.9861,0.0,-0.9779,-0.9473,0.0,0.0,0.0,0.0,0.0,0.0,0.0,0.0,0.0,0.0,0.0,0.0,0.0,0.0,0.0,0.0,0.0,0.0,0.0,0.0,0.0,0.0,0.0,0.0,0.0,0.0,0.0,0.0,0.0,0.0,0.0,0.0,0.0,0.0,0.0,0.0,0.0,0.0,0.0,0.0,0.0,0.0,0.0,0.0,0.0,0.0,0.0,0.0,0.0,0.0,0.0,0.0,0.0,0.0,0.0,0.0,0.0,0.0,0.0,0.0,0.0,0.0,0.0,0.0,0.0,0.0,0.0,0.0,0.0,0.0,0.0,0.0,0.0,0.0,0.0,0.0,0.0,0.0,0.0,0.0,0.0,0.0,0.0,0.0,0.0,0.0,0.0,0.0,0.0,0.0,0.0,0.0,0.0,0.0,0.0,0.0,0.0,0.0,0.0,0.0,0.0,0.0,0.0,0.0,0.0,0.0,0.0,0.0,-0.9554,-1.046,-1.0495,-1.0507,-1.052,-1.0507,-1.022,0.0,0.0,0.0,0.0,0.0,0.0,0.0,0.0,0.0,0.0,0.0,0.0,0.0,0.0,0.0,0.0,0.0,0.0,0.0,0.0,0.0,0.0,0.0,0.0,0.0,0.0,0.0,0.0,0.0,0.0,0.0,0.0,0.0,0.0,0.0,0.0,0.0,0.0,0.0,0.0,0.0,0.0,0.0,0.0,0.0,0.0,0.0,0.0,0.0,0.0,0.0,0.0,0.0,0.0,0.0,0.0,0.0,0.0,0.0,0.0,0.0,0.0,0.0,0.0,0.0,0.0,0.0,0.0,0.0,0.0,0.0,0.0,0.0,0.0,0.0,0.0,0.0,0.0,0.0,0.0,0.0,0.0,0.0,0.0,0.0,0.0,0.0,0.0,0.0,0.0,0.0,0.0,0.0,0.0,0.0,0.0,0.0,0.0,0.0,0.0,0.0,0.0,0.0,0.0,0.0,0.0,0.0,0.0,0.0,-1.1301,-1.128,-1.1236,-1.1203,-1.1144,-1.0829,0.0,0.0,0.0,0.0,0.0,0.0,0.0,0.0,0.0,0.0,0.0,0.0,0.0,0.0,0.0,0.0,0.0,0.0,0.0,0.0,0.0,0.0,0.0,0.0,0.0,0.0,0.0,0.0,0.0,0.0,0.0,0.0,0.0,0.0,0.0,0.0,0.0,0.0,0.0,0.0,0.0,0.0,0.0,0.0,0.0,0.0,0.0,0.0,0.0,0.0,0.0,0.0,0.0,0.0,0.0,0.0,0.0,0.0,0.0,0.0,0.0,0.0,0.0,0.0,0.0,0.0,0.0,0.0,0.0,0.0,0.0,0.0,0.0,0.0,0.0,0.0,0.0,0.0,0.0,0.0,0.0,0.0,0.0,0.0,0.0,0.0,0.0,0.0,0.0,0.0,0.0,0.0,0.0,0.0,0.0,0.0,0.0,0.0,0.0,0.0,0.0,0.0,0.0,0.0,0.0,0.0,0.0,0.0,0.0,-1.2819,-1.2494,-1.2285,-1.2238,-1.2203,-1.1677,-1.0658,0.0,0.0,0.0,0.0,0.0,0.0,0.0,0.0,0.0,0.0,0.0,0.0,0.0,0.0,0.0,0.0,0.0,0.0,0.0,0.0,0.0,0.0,0.0,0.0,0.0,0.0,0.0,0.0,0.0,0.0,0.0,0.0,0.0,0.0,0.0,0.0,0.0,0.0,0.0,0.0,0.0,0.0,0.0,0.0,0.0,0.0,0.0,0.0,0.0,0.0,0.0,0.0,0.0,0.0,0.0,0.0,0.0,0.0,0.0,0.0,0.0,0.0,0.0,0.0,0.0,0.0,0.0,0.0,0.0,0.0,0.0,0.0,0.0,0.0,0.0,0.0,0.0,0.0,0.0,0.0,0.0,0.0,0.0,0.0,0.0,0.0,0.0,0.0,0.0,0.0,0.0,0.0,0.0,0.0,0.0,0.0,0.0,0.0,0.0,0.0,0.0,0.0,0.0,0.0,0.0,0.0,0.0,0.0,-1.495,-1.4163,-1.3698,-1.3599,-1.3561,-1.2743,0.0,0.0,0.0,0.0,0.0,0.0,0.0,0.0,0.0,0.0,0.0,0.0,0.0,0.0,0.0,0.0,0.0,0.0,0.0,0.0,0.0,0.0,0.0,0.0,0.0,0.0,0.0,0.0,0.0,0.0,0.0,0.0,0.0,0.0,0.0,0.0,0.0,0.0,0.0,0.0,0.0,0.0,0.0,0.0,0.0,0.0,0.0,0.0,0.0,0.0,0.0,0.0,0.0,0.0,0.0,0.0,0.0,0.0,0.0,0.0,0.0,0.0,0.0,0.0,0.0,0.0,0.0,0.0,0.0,0.0,0.0,0.0,0.0,0.0,0.0,0.0,0.0,0.0,0.0,0.0,0.0,0.0,0.0,0.0,0.0,0.0,0.0,0.0,0.0,0.0,0.0,0.0,0.0,0.0,0.0,0.0,0.0,0.0,0.0,0.0,0.0,0.0,0.0,0.0,0.0,0.0,0.0,0.0,0.0,-1.6985,-1.6704,-1.6014,-1.4953,-1.4423,-1.3741,0.0,0.0,0.0,0.0,0.0,0.0,0.0,0.0,0.0,0.0,0.0,0.0,0.0,0.0,0.0,0.0,0.0,0.0,0.0,0.0,0.0,0.0,0.0,0.0,0.0,0.0,0.0,0.0,0.0,0.0,0.0,0.0,0.0,0.0,0.0,0.0,0.0,0.0,0.0,0.0,0.0,0.0,0.0,0.0,0.0,0.0,0.0,0.0,0.0,0.0,0.0,0.0,0.0,0.0,0.0,0.0,0.0,0.0,0.0,0.0,0.0,0.0,0.0,0.0,0.0,0.0,0.0,0.0,0.0,0.0,0.0,0.0,0.0,0.0,0.0,0.0,0.0,0.0,0.0,0.0,0.0,0.0,0.0,0.0,0.0,0.0,0.0,0.0,0.0,0.0,0.0,0.0,0.0,0.0,0.0,0.0,0.0,0.0,0.0,0.0,0.0,0.0,0.0,0.0,0.0,0.0,0.0,0.0,-1.6373,-1.7996,-1.8329,-1.806,-1.7216,-1.6264,-1.5089,0.0,0.0,0.0,0.0,0.0,0.0,0.0,0.0,0.0,0.0,0.0,0.0,0.0,0.0,0.0,0.0,0.0,0.0,0.0,0.0,0.0,0.0,0.0,0.0,0.0,0.0,0.0,0.0,0.0,0.0,0.0,0.0,0.0,0.0,0.0,0.0,0.0,0.0,0.0,0.0,0.0,0.0,0.0,0.0,0.0,0.0,0.0,0.0,0.0,0.0,0.0,0.0,0.0,0.0,0.0,0.0,0.0,0.0,0.0,0.0,0.0,0.0,0.0,0.0,0.0,0.0,0.0,0.0,0.0,0.0,0.0,0.0,0.0,0.0,0.0,0.0,0.0,0.0,0.0,0.0,0.0,0.0,0.0,0.0,0.0,0.0,0.0,0.0,0.0,0.0,0.0,0.0,0.0,0.0,0.0,0.0,0.0,0.0,0.0,0.0,0.0,0.0,0.0,0.0,0.0,0.0,0.0,0.0,-1.7766,-1.8499,-1.9371,-1.9816,-1.9802,-1.8365,-1.6576,0.0,0.0,0.0,0.0,0.0,0.0,0.0,0.0,0.0,0.0,0.0,0.0,0.0,0.0,0.0,0.0,0.0,0.0,0.0,0.0,0.0,0.0,0.0,0.0,0.0,0.0,0.0,0.0,0.0,0.0,0.0,0.0,0.0,0.0,0.0,0.0,0.0,0.0,0.0,0.0,0.0,0.0,0.0,0.0,0.0,0.0,0.0,0.0,0.0,0.0,0.0,0.0,0.0,0.0,0.0,0.0,0.0,0.0,0.0,0.0,0.0,0.0,0.0,0.0,0.0,0.0,0.0,0.0,0.0,0.0,0.0,0.0,0.0,0.0,0.0,0.0,0.0,0.0,0.0,0.0,0.0,0.0,0.0,0.0,0.0,0.0,0.0,0.0,0.0,0.0,0.0,0.0,0.0,0.0,0.0,0.0,0.0,0.0,0.0,0.0,0.0,0.0,0.0,0.0,0.0,0.0,0.0,0.0,-1.8849,-2.0428,-2.06,-2.0634,-2.0621,-1.8665,-1.7137,0.0,0.0,0.0,0.0,0.0,0.0,0.0,0.0,0.0,0.0,0.0,0.0,0.0,0.0,0.0,0.0,0.0,0.0,0.0,0.0,0.0,0.0,0.0,0.0,0.0,0.0,0.0,0.0,0.0,0.0,0.0,0.0,0.0,0.0,0.0,0.0,0.0,0.0,0.0,0.0,0.0,0.0,0.0,0.0,0.0,0.0,0.0,0.0,-0.8323,0.0,0.0,0.0,0.0,0.0,0.0,0.0,0.0,0.0,0.0,0.0,0.0,0.0,0.0,0.0,0.0,0.0,0.0,0.0,0.0,0.0,0.0,0.0,0.0,0.0,0.0,0.0,0.0,0.0,0.0,0.0,0.0,0.0,0.0,0.0,0.0,0.0,0.0,0.0,0.0,0.0,0.0,0.0,0.0,0.0,0.0,0.0,0.0,0.0,0.0,0.0,0.0,0.0,0.0,0.0,0.0,0.0,0.0,0.0,-1.9782,-2.1554,-2.1764,-2.1846,-2.1777,-2.0083,-1.8486,0.0,0.0,0.0,0.0,0.0,0.0,0.0,0.0,0.0,0.0,0.0,0.0,0.0,0.0,0.0,0.0,0.0,0.0,0.0,0.0,0.0,0.0,0.0,0.0,0.0,0.0,0.0,0.0,0.0,0.0,0.0,0.0,0.0,0.0,0.0,0.0,0.0,0.0,0.0,0.0,0.0,0.0,0.0,0.0,0.0,0.0,0.0,0.0,0.0,0.0,0.0,0.0,0.0,0.0,0.0,0.0,0.0,0.0,0.0,0.0,0.0,0.0,0.0,0.0,0.0,0.0,0.0,0.0,0.0,0.0,0.0,0.0,0.0,0.0,0.0,0.0,0.0,0.0,0.0,0.0,0.0,0.0,0.0,0.0,0.0,0.0,0.0,0.0,0.0,0.0,0.0,0.0,0.0,0.0,0.0,0.0,0.0,0.0,0.0,0.0,0.0,0.0,0.0,0.0,0.0,0.0,0.0,-1.9197,-2.0698,-2.2301,-2.2856,-2.3024,-2.2913,-2.1745,-2.0008,-1.7688,0.0,0.0,0.0,0.0,0.0,0.0,0.0,0.0,0.0,0.0,0.0,0.0,0.0,0.0,0.0,0.0,0.0,0.0,0.0,0.0,0.0,0.0,0.0,0.0,0.0,0.0,0.0,0.0,0.0,0.0,0.0,0.0,0.0,0.0,0.0,0.0,0.0,0.0,-0.8985,-0.9641,0.0,0.0,0.0,0.0,0.0,0.0,0.0,0.0,-1.0899,0.0,0.0,0.0,0.0,0.0,0.0,0.0,0.0,0.0,0.0,0.0,0.0,0.0,0.0,0.0,0.0,0.0,0.0,0.0,0.0,0.0,0.0,0.0,0.0,0.0,0.0,0.0,0.0,0.0,0.0,0.0,0.0,0.0,0.0,0.0,0.0,0.0,0.0,0.0,0.0,0.0,0.0,0.0,0.0,0.0,0.0,0.0,0.0,0.0,0.0,0.0,0.0,0.0,0.0,0.0,0.0,-1.8669,-2.0294,-2.1758,-2.3083,-2.3611,-2.3645,-2.3087,-2.2348,-2.105,-1.9125,0.0,0.0,0.0,0.0,0.0,0.0,0.0,0.0,0.0,0.0,0.0,0.0,0.0,0.0,0.0,0.0,0.0,0.0,0.0,0.0,0.0,0.0,0.0,0.0,0.0,0.0,0.0,0.0,0.0,0.0,0.0,0.0,0.0,0.0,0.0,0.0,0.0,0.0,0.0,-1.0763,-1.109,0.0,0.0,0.0,0.0,0.0,0.0,0.0,0.0,-1.1735,0.0,0.0,0.0,0.0,0.0,0.0,0.0,0.0,0.0,0.0,0.0,0.0,0.0,0.0,0.0,0.0,0.0,0.0,0.0,0.0,0.0,0.0,0.0,0.0,0.0,0.0,0.0,0.0,0.0,0.0,0.0,0.0,0.0,0.0,0.0,0.0,0.0,0.0,0.0,0.0,0.0,0.0,0.0,0.0,0.0,0.0,0.0,0.0,0.0,0.0,0.0,0.0,0.0,0.0,0.0,-1.943,-2.1212,-2.2657,-2.3745,-2.436,-2.4337,-2.3642,-2.2985,-2.1805,0.0,0.0,0.0,0.0,0.0,0.0,0.0,0.0,0.0,0.0,0.0,0.0,0.0,0.0,0.0,0.0,0.0,0.0,0.0,0.0,0.0,0.0,0.0,0.0,0.0,0.0,0.0,0.0,0.0,0.0,0.0,0.0,0.0,0.0,0.0,0.0,0.0,0.0,0.0,0.0,-1.1421,-1.1899,-1.2535,0.0,0.0,0.0,0.0,0.0,0.0,-1.3177,-1.2825,0.0,0.0,0.0,0.0,0.0,0.0,0.0,0.0,0.0,0.0,0.0,0.0,0.0,0.0,0.0,0.0,0.0,0.0,0.0,0.0,0.0,0.0,0.0,0.0,0.0,0.0,0.0,0.0,0.0,0.0,0.0,0.0,0.0,0.0,0.0,0.0,0.0,0.0,0.0,0.0,0.0,0.0,0.0,0.0,0.0,0.0,0.0,0.0,0.0,0.0,0.0,0.0,0.0,0.0,0.0,-2.0117,-2.2003,-2.3454,-2.4458,-2.5074,-2.505,-2.434,-2.3667,-2.2484,0.0,0.0,0.0,0.0,0.0,0.0,0.0,0.0,0.0,0.0,0.0,0.0,0.0,0.0,0.0,0.0,0.0,0.0,0.0,0.0,0.0,0.0,0.0,0.0,0.0,0.0,0.0,0.0,0.0,0.0,0.0,0.0,0.0,0.0,0.0,0.0,0.0,0.0,0.0,0.0,0.0,-1.2926,-1.3682,-1.4273,0.0,0.0,0.0,0.0,-1.4892,-1.4487,0.0,0.0,0.0,0.0,0.0,0.0,0.0,0.0,0.0,0.0,0.0,0.0,0.0,0.0,0.0,0.0,0.0,0.0,0.0,0.0,0.0,0.0,0.0,0.0,0.0,0.0,0.0,0.0,0.0,0.0,0.0,0.0,0.0,0.0,0.0,0.0,0.0,0.0,0.0,0.0,0.0,0.0,0.0,0.0,0.0,0.0,0.0,0.0,0.0,0.0,0.0,0.0,0.0,0.0,0.0,0.0,-2.0866,-2.2676,-2.4182,-2.5383,-2.5792,-2.5687,-2.5065,-2.4428,-2.3186,0.0,0.0,0.0,0.0,0.0,0.0,0.0,0.0,0.0,0.0,0.0,0.0,0.0,0.0,0.0,0.0,0.0,0.0,0.0,0.0,0.0,0.0,0.0,0.0,0.0,0.0,0.0,0.0,0.0,0.0,0.0,0.0,0.0,0.0,0.0,0.0,0.0,0.0,0.0,0.0,0.0,-1.4539,-1.562,-1.598,-1.6172,0.0,0.0,-1.6263,-1.618,-1.6128,0.0,0.0,0.0,0.0,0.0,0.0,0.0,0.0,0.0,0.0,0.0,0.0,0.0,0.0,0.0,0.0,0.0,0.0,0.0,0.0,0.0,0.0,0.0,0.0,0.0,0.0,0.0,0.0,0.0,0.0,0.0,0.0,0.0,0.0,0.0,0.0,0.0,0.0,0.0,0.0,0.0,0.0,0.0,0.0,0.0,0.0,0.0,0.0,0.0,0.0,0.0,0.0,0.0,0.0,0.0,-1.9653,-2.1554,-2.3372,-2.4731,-2.5577,-2.5999,-2.5907,-2.5204,-2.4552,-2.331,0.0,0.0,0.0,0.0,0.0,0.0,0.0,0.0,0.0,0.0,0.0,0.0,0.0,0.0,0.0,0.0,0.0,0.0,0.0,0.0,0.0,0.0,0.0,0.0,0.0,0.0,0.0,0.0,0.0,0.0,0.0,0.0,0.0,0.0,0.0,0.0,0.0,0.0,0.0,0.0,0.0,0.0,-1.7141,-1.7439,0.0,0.0,0.0,-1.8434,-1.7688,0.0,0.0,0.0,0.0,0.0,0.0,0.0,0.0,0.0,0.0,0.0,0.0,0.0,0.0,0.0,0.0,0.0,0.0,0.0,0.0,0.0,0.0,0.0,0.0,0.0,0.0,0.0,0.0,0.0,0.0,0.0,0.0,0.0,0.0,0.0,0.0,0.0,0.0,0.0,0.0,0.0,0.0,0.0,0.0,0.0,0.0,0.0,0.0,0.0,0.0,0.0,0.0,0.0,0.0,0.0,0.0,0.0,-2.2207,-2.4085,-2.5398,-2.6104,-2.6537,-2.6458,-2.5751,-2.4904,0.0,0.0,0.0,0.0,0.0,0.0,0.0,0.0,0.0,0.0,0.0,0.0,0.0,0.0,0.0,0.0,0.0,0.0,0.0,0.0,0.0,0.0,0.0,0.0,0.0,0.0,0.0,-0.7802,0.0,0.0,0.0,0.0,0.0,0.0,0.0,0.0,0.0,0.0,0.0,0.0,0.0,0.0,-1.7357,-1.8539,-1.882,-1.9216,0.0,0.0,-2.0091,-1.9142,-1.9021,-1.8713,0.0,0.0,0.0,0.0,0.0,0.0,0.0,0.0,0.0,0.0,0.0,0.0,0.0,0.0,0.0,0.0,0.0,0.0,0.0,0.0,0.0,0.0,0.0,0.0,0.0,0.0,0.0,0.0,0.0,0.0,0.0,0.0,0.0,0.0,0.0,0.0,0.0,0.0,0.0,0.0,0.0,0.0,0.0,0.0,0.0,0.0,0.0,0.0,0.0,0.0,0.0,0.0,0.0,0.0,0.0,-2.2838,-2.4747,-2.6315,-2.7494,-2.7909,-2.7783,-2.7182,-2.5863,-2.4575,0.0,0.0,0.0,0.0,0.0,0.0,0.0,0.0,0.0,0.0,0.0,0.0,0.0,0.0,0.0,0.0,0.0,0.0,0.0,0.0,0.0,0.0,0.0,0.0,0.0,0.0,0.0,0.0,0.0,0.0,0.0,0.0,0.0,0.0,0.0,0.0,0.0,0.0,0.0,0.0,0.0,-1.8701,-1.9914,-2.0195,-2.0302,0.0,-2.0436,-2.0458,-2.0387,-2.0464,-2.032,-1.9704,0.0,0.0,0.0,0.0,0.0,0.0,0.0,0.0,0.0,0.0,0.0,0.0,0.0,0.0,0.0,0.0,0.0,0.0,0.0,0.0,0.0,0.0,0.0,0.0,0.0,0.0,0.0,0.0,0.0,0.0,0.0,0.0,0.0,0.0,0.0,0.0,0.0,0.0,0.0,0.0,0.0,0.0,0.0,0.0,0.0,0.0,0.0,0.0,0.0,0.0,0.0,0.0,0.0,-2.1697,-2.3514,-2.5415,-2.6837,-2.7654,-2.8024,-2.7897,-2.7311,-2.6291,-2.5006,0.0,0.0,0.0,0.0,0.0,0.0,0.0,0.0,0.0,0.0,0.0,0.0,0.0,0.0,0.0,0.0,0.0,0.0,0.0,0.0,0.0,0.0,0.0,0.0,0.0,0.0,0.0,0.0,-1.0418,-1.0795,-1.1562,0.0,0.0,0.0,0.0,0.0,0.0,0.0,0.0,0.0,0.0,-2.0098,-2.138,-2.1609,0.0,0.0,-2.2932,-2.2813,-2.2466,-2.2112,-2.167,-2.1119,-2.0522,0.0,0.0,0.0,0.0,0.0,0.0,0.0,0.0,0.0,0.0,0.0,0.0,0.0,0.0,0.0,0.0,0.0,0.0,0.0,0.0,0.0,0.0,0.0,0.0,0.0,0.0,0.0,0.0,0.0,0.0,0.0,0.0,0.0,0.0,0.0,0.0,0.0,0.0,0.0,0.0,0.0,0.0,0.0,0.0,0.0,0.0,0.0,0.0,0.0,0.0,0.0,0.0,-2.2622,-2.4214,-2.6108,-2.7476,-2.8261,-2.8598,-2.8483,-2.7883,-2.6847,-2.5646,0.0,0.0,0.0,0.0,0.0,0.0,0.0,0.0,0.0,0.0,0.0,0.0,0.0,0.0,0.0,0.0,0.0,0.0,0.0,0.0,0.0,0.0,0.0,0.0,0.0,0.0,0.0,0.0,-1.169,-1.2191,-1.2986,0.0,0.0,0.0,0.0,0.0,0.0,0.0,0.0,0.0,0.0,-2.1482,-2.2823,-2.3032,-2.3369,-2.434,-2.4533,-2.4414,-2.3995,-2.3545,-2.3146,-2.2746,0.0,0.0,0.0,0.0,0.0,0.0,0.0,0.0,0.0,0.0,0.0,0.0,0.0,0.0,0.0,0.0,0.0,0.0,0.0,0.0,0.0,0.0,0.0,0.0,0.0,0.0,0.0,-1.5799,0.0,0.0,-1.5799,0.0,0.0,0.0,0.0,0.0,0.0,0.0,0.0,0.0,0.0,0.0,0.0,0.0,0.0,0.0,0.0,0.0,0.0,0.0,0.0,0.0,0.0,-2.3833,-2.498,-2.6777,-2.829,-2.9508,-2.9891,-2.974,-2.9126,-2.7626,-2.6539,-2.5984,0.0,0.0,0.0,0.0,0.0,0.0,0.0,0.0,0.0,0.0,0.0,0.0,0.0,0.0,0.0,0.0,0.0,0.0,0.0,0.0,0.0,0.0,0.0,0.0,0.0,0.0,-1.207,-1.2921,-1.3727,0.0,0.0,0.0,0.0,0.0,0.0,0.0,0.0,0.0,0.0,-2.2337,-2.2866,-2.4255,-2.4465,-2.4494,-2.4565,-2.4704,-2.4725,-2.4764,-2.4765,-2.4781,0.0,0.0,0.0,0.0,0.0,0.0,0.0,0.0,0.0,0.0,0.0,0.0,0.0,0.0,0.0,0.0,0.0,0.0,0.0,0.0,0.0,0.0,0.0,0.0,0.0,0.0,0.0,-1.9675,-1.9076,0.0,0.0,0.0,0.0,0.0,0.0,0.0,0.0,0.0,0.0,0.0,-2.4328,-2.4971,0.0,0.0,0.0,0.0,0.0,0.0,0.0,0.0,0.0,0.0,0.0,0.0,-2.4699,-2.6316,-2.7688,-2.8971,-3.0219,-3.0149,-3.0011,-2.9799,-2.8658,-2.7215,-2.5411,0.0,0.0,0.0,0.0,0.0,0.0,0.0,0.0,0.0,0.0,0.0,0.0,0.0,0.0,0.0,0.0,0.0,0.0,0.0,0.0,0.0,0.0,0.0,0.0,0.0,-1.2989,0.0,0.0,0.0,0.0,0.0,0.0,0.0,0.0,0.0,0.0,0.0,-2.1413,-2.2294,-2.3203,-2.4308,-2.5696,-2.5908,-2.6222,0.0,0.0,0.0,0.0,0.0,0.0,0.0,0.0,0.0,0.0,0.0,0.0,0.0,0.0,-2.3425,-2.191,-2.162,-2.1613,-2.1634,0.0,0.0,0.0,0.0,0.0,0.0,0.0,0.0,0.0,0.0,0.0,0.0,0.0,0.0,-2.2817,0.0,-2.2392,0.0,0.0,0.0,0.0,0.0,0.0,0.0,0.0,-2.6048,-2.6667,-2.7335,-2.7993,-2.8173,0.0,-2.729,-2.554,0.0,0.0,0.0,0.0,0.0,0.0,0.0,0.0,-2.6046,-2.7712,-2.8793,-2.9886,-3.0858,-3.0795,-3.0754,-3.0742,-2.9619,-2.7846,-2.5388,-2.3829,-2.2117,0.0,0.0,0.0,0.0,0.0,0.0,0.0,0.0,0.0,0.0,0.0,0.0,0.0,0.0,0.0,0.0,0.0,0.0,0.0,0.0,0.0,0.0,0.0,-1.4901,0.0,0.0,0.0,0.0,0.0,0.0,0.0,0.0,0.0,-2.0463,-2.1897,-2.3168,-2.3617,-2.4657,-2.5785,-2.6991,0.0,0.0,0.0,0.0,0.0,0.0,0.0,-2.7767,-2.7854,-2.7527,-2.7355,-2.7541,-2.7612,-2.7584,-2.7584,0.0,0.0,-2.4513,-2.4077,-2.4077,-2.4077,-2.4432,-2.498,-2.583,-2.6321,-2.6895,0.0,0.0,0.0,0.0,0.0,0.0,0.0,0.0,-2.58,-2.5809,0.0,-2.5764,0.0,0.0,0.0,0.0,-2.6677,-2.6737,0.0,0.0,-2.9355,-3.0013,-3.0597,-3.1271,-3.1256,-3.0612,-2.9998,-2.9325,-2.8502,-2.5435,0.0,0.0,0.0,0.0,0.0,0.0,-2.7792,-2.9114,-3.009,-3.0887,-3.1538,-3.1846,-3.1954,-3.1882,-3.0411,-2.845,-2.6062,-2.481,-2.3301,-2.142,-1.9585,0.0,0.0,0.0,0.0,0.0,0.0,0.0,0.0,0.0,0.0,0.0,0.0,0.0,0.0,0.0,0.0,0.0,0.0,0.0,0.0,-1.6298,0.0,0.0,0.0,0.0,0.0,0.0,0.0,0.0,0.0,0.0,-2.2615,-2.3445,-2.469,-2.5942,0.0,0.0,0.0,0.0,-2.8297,-2.8354,-2.834,-2.8354,-2.8368,-2.8354,-2.8525,-2.908,0.0,0.0,-2.9936,-3.0036,-3.0005,-3.0048,-3.0019,-2.9307,-2.7028,-2.6515,-2.6427,-2.6413,-2.6512,-2.6898,-2.7969,-2.8325,-2.8696,-3.2916,0.0,0.0,0.0,0.0,-2.9951,-2.9806,-2.9806,-2.9806,-2.9537,-2.9101,-2.9101,0.0,0.0,0.0,0.0,0.0,0.0,-3.03,-3.0733,-3.1854,-3.2467,-3.2677,-3.3829,-3.4008,-3.332,-3.2677,-3.2033,-3.1345,-2.9926,-2.8308,-2.6507,0.0,0.0,0.0,0.0,-2.8687,-3.0351,-3.0557,-3.1368,-3.2908,-3.2321,-3.1657,-3.0926,-3.0056,-2.8858,-2.7313,-2.6047,-2.4528,-2.2662,-2.1265,0.0,0.0,0.0,0.0,0.0,0.0,0.0,0.0,0.0,0.0,0.0,0.0,0.0,0.0,0.0,0.0,0.0,0.0,0.0,-1.7814,-1.8741,-1.9475,0.0,0.0,0.0,0.0,0.0,0.0,0.0,0.0,0.0,-2.6258,-2.6158,-2.6325,0.0,0.0,-2.8781,-2.9453,-2.9909,-3.0352,-3.0763,-3.0834,0.0,-3.0739,-3.0708,-3.0701,-3.0817,-3.0799,-3.087,-3.1039,-3.1067,-3.1208,-3.1646,-3.1716,-3.1603,-3.1303,-2.9967,-2.9008,-2.8966,-2.9294,-2.9738,-3.0123,-3.0506,-3.0902,-3.7328,-3.537,-3.4135,-3.353,-3.3471,-3.3337,-3.3291,-3.3261,-3.3216,-3.2991,-3.2601,-3.2527,-3.2287,-3.1928,-3.1943,0.0,0.0,0.0,-3.3215,-3.3544,-3.4307,-3.4816,-3.51,-3.5878,-3.6043,-3.5609,-3.4981,-3.4487,-3.4083,-3.3425,-3.2168,-3.0355,0.0,0.0,-3.0133,-2.9799,-3.0366,-3.1721,-3.1769,-3.2326,-3.346,-3.301,-3.2274,-3.1274,-3.067,-2.9771,-2.8535,-2.7045,-2.5626,-2.425,-2.2573,-2.1153,0.0,0.0,0.0,0.0,0.0,0.0,0.0,0.0,0.0,0.0,0.0,-1.3938,-1.4543,0.0,0.0,0.0,-1.8193,-1.9285,-2.0154,-2.1105,0.0,0.0,0.0,0.0,0.0,0.0,0.0,-2.7228,-2.8254,-2.8872,-2.8872,-2.9031,-2.8965,-2.8441,-2.9336,-3.0208,-3.0591,0.0,-3.1342,-3.1678,-3.1735,-3.182,-3.1947,-3.1989,-3.2092,-3.2511,-3.2792,-3.2967,-3.2967,-3.2981,-3.3108,-3.3396,-3.3494,-3.3607,-3.3986,-3.2936,-3.1863,-3.1438,-3.1622,-3.1962,-3.2203,-3.2571,-3.2897,-4.1208,-4.0737,-3.7983,-3.6638,-3.6356,-3.6324,-3.6324,-3.6324,-3.6179,-3.6099,-3.6054,-3.5859,-3.5746,-3.5687,-3.5654,0.0,-3.5654,-3.5699,-3.6043,-3.6641,-3.6731,-3.709,-3.7629,-3.7704,-3.7704,-3.7629,-3.7015,-3.6701,-3.6596,-3.5968,-3.534,-3.4713,-3.2901,-3.2168,-3.2542,-3.2226,-3.2398,-3.3077,-3.3346,-3.3485,-3.3525,-3.3753,-3.3411,-3.2412,-3.1808,-3.0881,-2.9631,-2.7902,-2.6638,-2.5865,-2.3702,-2.2433,-2.2236,0.0,0.0,0.0,0.0,0.0,0.0,0.0,0.0,0.0,0.0,0.0,0.0,0.0,0.0,0.0,-2.1407,0.0,-2.2299,-2.3454,0.0,0.0,0.0,-2.6666,-2.789,-2.8072,-2.8551,-2.9701,0.0,0.0,-3.0792,-3.1864,-3.2202,-3.1036,-3.1359,-3.1696,-3.171,-3.1828,-3.178,-3.1968,-3.187,-3.2039,-3.27,-3.2721,-3.3073,-3.3992,-3.4773,-3.5034,-3.502,-3.5062,-3.5147,-3.5175,-3.5245,-3.5273,-3.5316,-3.5273,-3.5062,-3.3902,-3.355,-3.3607,-3.4042,-3.4183,-3.4373,-4.2925,-4.256,-4.1697,-4.0555,-3.928,-3.9127,-3.9043,-3.9043,-3.9009,-3.8686,-3.8231,-3.8182,-3.7809,-3.7173,-3.7173,-3.7106,-3.6985,-3.7479,-3.7778,-3.8003,-3.9005,-3.9559,-3.9709,-4.0187,-4.0172,-3.9664,-3.9035,-3.8437,-3.7928,-3.727,-3.6866,-3.6686,-3.6237,-3.51,-3.3335,-3.2923,-3.3092,-3.3773,-3.3579,-3.3603,-3.379,-3.3879,-3.3411,-3.2426,-3.1808,-3.0895,-2.9659,-2.8731,-2.7523,-2.5978,-2.5331,-2.4362,-2.2981,-2.2451,0.0,0.0,0.0,0.0,0.0,0.0,0.0,0.0,0.0,-1.8152,-1.9224,0.0,-2.0174,0.0,-2.3353,-2.4361,-2.4927,-2.6119,0.0,0.0,-2.8016,-2.9012,-2.9785,-3.0305,-3.0909,-3.1654,-3.2659,-3.3319,-3.3319,-3.4014,-3.443,-3.412,-3.3775,-3.3557,-3.3557,-3.4,-3.4317,-3.4261,-3.4219,-3.4373,-3.4458,-3.4528,-3.4626,-3.4922,-3.5119,-3.5189,-3.5189,-3.5189,-3.533,-3.5766,-3.5892,-3.6061,-3.6497,-3.6908,-3.7133,-3.6782,-3.5714,-3.4781,-3.495,-3.4955,-3.5034,-4.5539,-4.5295,-4.5059,-4.4365,-4.3297,-4.1791,-4.1163,-4.1163,-4.1076,-4.0812,-4.0477,-4.0385,-4.0066,-3.9642,-3.9627,-3.9506,-3.9343,-3.9703,-3.9817,-3.9805,-4.0487,-4.0846,-4.0861,-4.1205,-4.119,-4.0816,-4.0472,-4.0083,-3.973,-3.905,-3.8601,-3.8267,-3.7898,-3.685,-3.5163,-3.4875,-3.4887,-3.5159,-3.4903,-3.4605,-3.4303,-3.4282,-3.3809,-3.2834,-3.2216,-3.1443,-3.0474,-2.9588,-2.8493,-2.7243,-2.661,-2.5823,-2.4812,-2.4236,-2.3544,0.0,0.0,0.0,0.0,0.0,0.0,0.0,0.0,0.0,0.0,0.0,-2.3049,-2.4865,-2.6176,-2.7086,-2.7523,-2.8675,-2.9434,-2.9434,-3.053,-3.1466,-3.2069,-3.2497,-3.2946,-3.355,-3.4225,-3.4646,-3.466,-3.5442,-3.6005,-3.6019,-3.6164,-3.5883,-3.4871,-3.4978,-3.5189,-3.5189,-3.5189,-3.5302,-3.5541,-3.5836,-3.6005,-3.6005,-3.6005,-3.6089,-3.637,-3.6413,-3.661,-3.72,-3.7355,-3.7453,-3.7765,-3.8074,-3.8327,-3.8227,-3.7566,-3.6919,-3.6849,-3.6863,-3.6849,-4.8201,-4.7975,-4.7725,-4.7549,-4.7184,-4.4387,-4.3152,-4.306,-4.2882,-4.268,-4.2475,-4.2215,-4.2073,-4.2036,-4.2036,-4.1947,-4.1745,-4.1799,-4.1731,-4.158,-4.1632,-4.1639,-4.1639,-4.1624,-4.1624,-4.1624,-4.1549,-4.1542,-4.1512,-4.0846,-4.0232,-3.9627,-3.879,-3.8059,-3.744,-3.7225,-3.6916,-3.6564,-3.6387,-3.5826,-3.4946,-3.4811,-3.4314,-3.3438,-3.2778,-3.2159,-3.1612,-3.0474,-2.956,-2.8928,-2.7818,-2.713,-2.7031,-2.5964,-2.5091,0.0,-2.3994,0.0,0.0,0.0,0.0,0.0,0.0,0.0,0.0,-2.5274,-2.6399,-2.8129,-2.9324,-2.9996,-3.008,-3.1148,-3.185,-3.1864,-3.2932,-3.3888,-3.4371,-3.4568,-3.4876,-3.5484,-3.5611,-3.5681,-3.578,-3.6624,-3.7231,-3.7288,-3.8044,-3.7903,-3.6202,-3.5808,-3.5864,-3.5667,-3.5681,-3.6131,-3.6525,-3.6961,-3.7231,-3.7231,-3.7271,-3.7414,-3.7878,-3.7962,-3.8173,-3.8705,-3.8775,-3.8832,-3.8902,-3.8944,-3.8988,-3.9015,-3.9015,-3.8958,-3.8775,-3.8691,-3.8916,-4.8719,-4.835,-4.8013,-4.7824,-4.77,-4.6794,-4.6057,-4.5512,-4.5459,-4.4756,-4.3571,-4.2811,-4.2383,-4.2242,-4.2242,-4.2147,-4.1977,-4.2334,-4.2461,-4.2438,-4.2809,-4.2931,-4.2931,-4.2916,-4.2931,-4.2901,-4.247,-4.2216,-4.2201,-4.1557,-4.113,-4.0995,-4.0152,-3.958,-3.9261,0.0,0.0,0.0,-3.6158,-3.587,-3.5511,-3.4875,-3.4398,-3.4006,-3.2988,0.0,-3.2216,-3.1527,-3.0839,-3.0161,-2.9445,0.0,0.0,0.0,0.0,0.0,0.0,0.0,0.0,0.0,0.0,0.0,-2.894,-2.8549,-2.7285,-2.8549,-2.9841,-3.0712,-3.1443,-3.2041,-3.2581,-3.3248,-3.3683,-3.3726,-3.4829,-3.5625,-3.578,-3.6571,-3.7259,-3.7358,-3.7821,-3.8185,-3.8128,-3.8424,-3.8536,-3.8522,-3.8761,-3.8733,-3.8283,-3.81,-3.8157,-3.8199,-3.8016,-3.8171,-3.8354,-3.8424,-3.8438,-3.855,-3.855,-3.8579,-3.8636,-3.8719,-3.8733,-3.8958,-3.8916,-3.8944,-3.8958,-3.931,-3.9606,-3.9647,-3.9985,-4.0055,-3.9127,-3.893,-3.8916,-5.0025,-4.9818,-4.9387,-4.9235,0.0,-4.902,-4.8532,-4.7782,-4.7049,-4.6304,-4.5521,-4.4651,-4.4176,-4.4071,-4.3635,-4.3348,-4.3137,-4.3281,-4.3309,-4.3208,-4.3274,-4.3305,-4.3305,-4.3305,-4.3305,-4.3275,-4.3,-4.2836,-4.2806,-4.2192,-4.1825,-4.168,-4.0848,-4.0347,-4.0088,-3.9244,-3.8292,-3.7244,-3.7024,-3.6681,-3.6196,-3.5713,-3.5181,-3.4674,-3.3803,0.0,0.0,0.0,0.0,0.0,0.0,0.0,0.0,0.0,0.0,-2.8675,-2.8675,-2.8942,-2.956,-2.9912,-3.0474,-3.1373,-3.2005,-3.1662,-3.0178,-3.1471,-3.2448,-3.282,-3.341,-3.405,-3.4618,-3.5236,-3.5676,-3.6013,-3.6894,-3.7482,-3.7552,-3.8044,-3.8369,-3.8383,-3.8705,-3.8916,-3.8916,-3.9197,-3.9352,-3.938,-3.9633,-3.9746,-3.9704,-3.9268,-3.8916,-3.8916,-3.8916,-3.8916,-3.8916,-3.8916,-3.893,-3.8916,-3.8916,-3.9043,-3.931,-3.9366,-3.9436,-3.9676,-3.9774,-3.9774,-3.9788,-4.0027,-4.0224,-4.0266,-4.0477,-4.0533,-3.9887,-3.9774,-3.9774,-5.1333,-5.1221,-5.0842,-5.0705,-5.0666,-5.0612,-5.0237,-4.9575,0.0,0.0,0.0,-4.6501,-4.6106,-4.6021,-4.5341,-4.4887,-4.471,-4.4317,-4.4092,-4.3935,-4.3483,-4.3305,-4.3305,-4.3305,-4.3305,-4.3305,-4.3305,-4.3305,-4.329,-4.2737,-4.2404,-4.2134,-4.1322,-4.072,-4.0339,-3.9664,-3.8991,-3.833,-3.8011,-3.7534,-3.683,-3.6514,-3.6015,-3.5358,-3.4716,-3.4119,-3.3663,-3.3157,-3.2665,-3.2174,-3.2033,-3.1991,-3.1963,-3.1326,-3.0989,-3.0975,-3.0656,-3.0881,-3.1893,-3.2075,-3.2609,-3.3733,-3.4329,-3.4161,-3.2988,-3.3916,-3.4582,-3.4666,-3.5278,-3.5934,-3.6553,-3.7046,-3.7512,-3.8018,-3.8691,-3.9057,-3.9071,-3.9183,-3.9268,-3.924,-3.9282,-3.924,-3.931,-3.9648,-3.9943,-3.9999,-4.0308,-4.0702,-4.0589,-3.9859,-3.9352,-3.9366,-3.9408,-3.9296,-3.9254,-3.931,-3.9198,-3.9338,-3.931,-3.9381,-3.9788,-3.9943,-4.0154,-4.0505,-4.0702,-4.0659,-4.0688,-4.0645,-4.0702,-4.0702,-4.0702,-4.0702,-4.0702,-4.0702,-4.0645,-5.1758,-5.1424,-5.1221,-5.0994,-5.0836,-5.0666,-5.0563,-5.0278,-4.8583,-4.7709,-4.7533,-4.7247,-4.699,-4.6764,-4.6617,-4.6468,-4.6241,-4.5294,-4.4838,-4.4768,-4.3758,-4.3305,-4.3305,-4.3305,-4.3305,-4.3305,-4.3305,-4.3305,-4.329,-4.3026,-4.2902,-4.2718,-4.1813,-4.0948,-4.0187,-3.9873,-3.9409,-3.8789,-3.8064,-3.7491,-3.72,-3.6485,-3.6113,-3.5963,-3.5386,-3.5034,-3.495,-3.4837,-3.4767,-3.4669,-3.414,-3.3824,-3.3796,-3.3206,-3.2897,-3.2926,-3.329,-3.3627,-3.3824,-3.4337,-3.4978,-3.5667,-3.6262,-3.6117,-3.4964,-3.5442,-3.6075,-3.6543,-3.7105,-3.7779,-3.8438,-3.8524,-3.8649,-3.8818,-3.9283,-3.969,-3.9662,-4.0083,-4.0364,-4.035,-4.0449,-4.0393,-4.035,-4.0463,-4.0519,-4.0561,-4.0603,-4.0702,-4.0674,-4.0575,-4.0449,-4.0449,-4.0449,-4.0449,-4.0308,-4.0421,-4.035,-4.0449,-4.0378,-4.0336,-4.0449,-4.0491,-4.0547,-4.0688,-4.0702,-4.0702,-4.0702,-4.0702,-4.0702,-4.0702,-4.0702,-4.0702,-4.0702,-4.0702,-4.0702,-5.1921,-5.1647,-5.1462,-5.1237,-5.1048,-5.0972,-5.0858,-5.0695,-4.9917,-4.9346,-4.899,-4.8333,-4.795,-4.7786,-4.7192,-4.6865,-4.6731,-4.6003,-4.5626,-4.5475,-4.4504,-4.4003,-4.3838,-4.3469,-4.3305,-4.3305,-4.3305,-4.3235,-4.313,-4.3036,-4.2875,-4.2633,-4.2085,-4.1334,-4.0538,-4.0389,-3.9926,-3.9082,-3.8282,-3.7721,-3.7303,-3.6827,-3.661,-3.6595,-3.6005,-3.5681,-3.5681,-3.5372,-3.5189,-3.5189,-3.4922,-3.4731,-3.4716,-3.4478,-3.4309,-3.4337,-3.4899,-3.5391,-3.57,-3.6627,-3.7313,-3.7608,-3.7875,-3.7833,-3.7256,-3.7467,-3.7749,-3.8016,-3.8311,-3.8733,-3.9324,-3.9367,-3.9521,-3.9845,-4.0126,-4.0266,-4.0308,-4.0505,-4.0702,-4.0702,-4.0702,-4.0702,-4.0702,-4.0702,-4.0702,-4.0702,-4.0702,-4.0702,-4.0702,-4.0702,-4.0702,-4.0702,-4.0702,-4.0702,-4.0702,-4.0702,-4.0702,-4.0702,-4.0702,-4.0702,-4.0702,-4.0702,-4.0702,-4.0702,-4.0702,-4.0702,-4.0702,-4.0702,-4.0702,-4.0702,-4.0702,-4.0702,-4.0702,-4.0702,-4.0702,-5.203,-5.1778,-5.1647,-5.1408,-5.1221,-5.1221,-5.1108,-5.0988,-5.0896,-5.0705,-5.026,-4.9386,-4.893,-4.8749,-4.7824,-4.7408,-4.7289,-4.6776,-4.6432,-4.6168,-4.5319,-4.4774,-4.4466,-4.3868,-4.3514,-4.3484,-4.3325,-4.3155,-4.2996,-4.2915,-4.2703,-4.2366,-4.2119,-4.1652,-4.1025,-4.0873,-4.0353,-3.9428,-3.8878,-3.8272,-3.7678,-3.7493,-3.7414,-3.7411,-3.681,-3.6581,-3.6694,-3.6145,-3.5878,-3.6019,-3.6033,-3.6033,-3.6033,-3.6033,-3.6019,-3.6075,-3.6469,-3.6933,-3.7439,-3.8299,-3.8972,-3.9113,-3.9113,-3.9183,-3.9296,-3.9324,-3.9254,-3.9141,-3.924,-3.9507,-3.9929,-4.014,-4.0393,-4.0842,-4.1053,-4.1151,-4.1137,-4.1123,-4.1123,-4.1123,-4.1123,-4.1151,-4.1123,-4.1123,-4.1095,-4.0983,-4.08,-4.0702,-4.0702,-4.0702,-4.0702,-4.0702,-4.0702,-4.0702,-4.0702,-4.0702,-4.0702,-4.0702,-4.0702,-4.0702,-4.0702,-4.0702,-4.0702,-4.0702,-4.0702,-4.0702,-4.0702,-4.0702,-4.0702,-4.0702,-4.0702,-4.0702,-4.0702,-4.0702,-4.0702,-5.2191,-5.1815,-5.1807,-5.1557,-5.1286,-5.1269,-5.1232,-5.1178,-5.0988,-5.0781,-5.0518,-5.026,-4.986,-4.9503,-4.9153,-4.8904,-4.8686,-4.7681,-4.7119,-4.6811,-4.5999,-4.5477,-4.5155,-4.4526,-4.4227,-4.4112,-4.3428,-4.3095,-4.304,-4.2662,-4.2366,-4.2133,-4.1883,-4.1715,-4.156,-4.1197,-4.066,-4.001,-3.9773,-3.9352,-3.8775,-3.8733,-3.8733,-3.8733,-3.806,-3.8018,-3.8494,-3.799,-3.7906,-3.8494,-3.8494,-3.8522,-3.8508,-3.8536,-3.8536,-3.8508,-3.8579,-3.8691,-3.8733,-3.8846,-3.9183,-3.9676,-3.9704,-3.9929,-4.0421,-4.0519,-4.0294,-3.9985,-4.0238,-4.0519,-4.0631,-4.1095,-4.1418,-4.1516,-4.1994,-4.2416,-4.2317,-4.2402,-4.2402,-4.2402,-4.2261,-4.2388,-4.2261,-4.2247,-4.2093,-4.1587,-4.1193,-4.094,-4.0926,-4.0912,-4.0898,-4.08,-4.0744,-4.0744,-4.073,-4.0702,-4.0702,-4.0702,-4.0702,-4.0702,-4.0702,-4.0702,-4.0702,-4.0702,-4.0702,-4.0702,-4.0702,-4.0702,-4.0702,-4.0702,-4.0702,-4.0702,-4.0702,-4.0702,-4.0702,-5.3147,-5.2851,-5.2867,-5.2715,-5.2446,-5.2462,-5.2187,-5.1782,-5.1569,-5.1167,-5.0605,-5.0379,-5.0089,-4.9757,-4.9437,-4.925,-4.9113,-4.8286,-4.7806,-4.7494,-4.6664,-4.6097,-4.5828,-4.5214,-4.49,-4.4799,-4.4024,-4.3508,-4.3312,-4.2623,-4.2078,-4.1883,-4.1744,-4.1563,-4.1296,-4.1085,-4.0788,-4.0464,-4.0365,-4.0196,-3.9901,-3.924,-3.8916,-3.8888,-3.8635,-3.858,-3.8846,-3.8649,-3.8635,-3.8902,-3.8916,-3.8916,-3.8916,-3.8916,-3.8916,-3.893,-3.9254,-3.9564,-3.9929,-3.9957,-4.0055,-4.0322,-4.0322,-4.0589,-4.1165,-4.1235,-4.1264,-4.1418,-4.132,-4.1376,-4.1741,-4.2036,-4.2191,-4.2219,-4.2444,-4.2598,-4.2584,-4.2598,-4.2584,-4.2584,-4.2584,-4.2598,-4.2584,-4.2584,-4.2472,-4.2219,-4.1924,-4.1769,-4.1797,-4.1826,-4.1812,-4.1812,-4.1812,-4.1446,-4.094,-4.0702,-4.0716,-4.0716,-4.0702,-4.0702,-4.0702,-4.0702,-4.0702,-4.0702,-4.0702,-4.0702,-4.0702,-4.0702,-4.0702,-4.0716,-4.0716,-4.0702,-4.0702,-4.0702,-4.0702,-5.3787,-5.3616,-5.3539,-5.3438,-5.3281,-5.3281,-5.2974,-5.2427,-5.2278,-5.177,-5.1103,-5.0913,-5.0676,-5.0333,-4.9624,-4.9275,-4.9169,-4.8578,-4.8218,-4.7961,-4.7223,-4.6773,-4.6516,-4.5903,-4.5532,-4.5359,-4.4585,-4.3962,-4.348,-4.2711,-4.2071,-4.1731,-4.1563,-4.1353,-4.1043,-4.0958,-4.0859,-4.0744,-4.0702,-4.0702,-4.0575,-3.9831,-3.9408,-3.9394,-3.924,-3.9226,-3.9394,-3.924,-3.924,-3.9408,-3.9408,-3.9408,-3.9408,-3.9422,-3.9367,-3.9395,-3.9788,-4.0308,-4.0898,-4.094,-4.1025,-4.1179,-4.1221,-4.1404,-4.1769,-4.1882,-4.2177,-4.2683,-4.2402,-4.2317,-4.2486,-4.2739,-4.2837,-4.2851,-4.295,-4.309,-4.3118,-4.3076,-4.3118,-4.3076,-4.3202,-4.3076,-4.3076,-4.2992,-4.2851,-4.2837,-4.2669,-4.2584,-4.2584,-4.2542,-4.2542,-4.2584,-4.2556,-4.2107,-4.1179,-4.0997,-4.0926,-4.0716,-4.0702,-4.0702,-4.0702,-4.0702,-4.0702,-4.0702,-4.0702,-4.0702,-4.0702,-4.0702,-4.0786,-4.0758,-4.0828,-4.0983,-4.1039,-4.1081,-4.1235,-5.377,-5.361,-5.3415,-5.3378,-5.3298,-5.3346,-5.3203,-5.298,-5.294,-5.2669,-5.2154,-5.2129,-5.1948,-5.1408,-5.0028,-4.9241,-4.897,-4.8526,-4.8175,-4.7964,-4.7649,-4.7407,-4.7219,-4.6563,-4.6149,-4.5934,-4.5069,-4.4112,-4.3149,-4.2823,-4.2321,-4.1732,-4.134,-4.1071,-4.1001,-4.083,-4.0702,-4.0702,-4.0702,-4.0702,-4.0702,-4.0631,-4.0533,-4.0477,-4.0041,-3.9999,-4.0421,-4.0041,-3.9985,-4.0575,-4.0533,-4.0561,-4.0589,-4.0575,-4.0575,-4.0589,-4.0659,-4.094,-4.1474,-4.1573,-4.1797,-4.2317,-4.2345,-4.2472,-4.25,-4.2542,-4.2823,-4.3399,-4.3385,-4.3174,-4.2837,-4.3202,-4.3455,-4.3497,-4.3961,-4.4186,-4.427,-4.4144,-4.4312,-4.4242,-4.4172,-4.4116,-4.4214,-4.3821,-4.3512,-4.3357,-4.2978,-4.2697,-4.2781,-4.2711,-4.2739,-4.2739,-4.2669,-4.2359,-4.1755,-4.1587,-4.1334,-4.1165,-4.1123,-4.0856,-4.0744,-4.0702,-4.0772,-4.0814,-4.0955,-4.0969,-4.0786,-4.0772,-4.0898,-4.1053,-4.139,-4.1531,-4.1587,-4.2107,-4.2205,-5.4454,-5.4373,-5.4275,-5.425,-5.425,-5.425,-5.3977,-5.3463,-5.33,-5.2881,-5.2311,-5.2033,-5.1743,-5.1403,-5.0725,-5.0133,-4.9605,-4.8584,-4.8049,-4.7964,-4.7596,-4.7396,-4.7279,-4.704,-4.6821,-4.65,-4.5634,-4.4615,-4.3502,-4.3315,-4.2998,-4.2438,-4.188,-4.1581,-4.1337,-4.0913,-4.0702,-4.0716,-4.0702,-4.0702,-4.0702,-4.0702,-4.0702,-4.0702,-4.0491,-4.0477,-4.0702,-4.0477,-4.0477,-4.0702,-4.0702,-4.0702,-4.0744,-4.1067,-4.1278,-4.132,-4.1671,-4.2008,-4.2191,-4.2219,-4.2317,-4.2542,-4.2584,-4.2795,-4.3076,-4.3188,-4.3427,-4.3919,-4.4074,-4.3947,-4.3877,-4.3961,-4.4088,-4.4116,-4.427,-4.4425,-4.4425,-4.4425,-4.4425,-4.4425,-4.4425,-4.4425,-4.4383,-4.4214,-4.4102,-4.4059,-4.3877,-4.3736,-4.3736,-4.3736,-4.368,-4.3736,-4.3736,-4.354,-4.2907,-4.2444,-4.2149,-4.205,-4.1952,-4.1938,-4.1854,-4.1769,-4.1812,-4.1741,-4.1713,-4.1685,-4.1657,-4.1671,-4.1671,-4.1769,-4.2093,-4.2177,-4.2247,-4.264,-4.2697,-5.4813,-5.4813,-5.4813,-5.4813,-5.4813,-5.4813,-5.4483,-5.3921,-5.3754,-5.3375,-5.2786,-5.2503,-5.2191,-5.183,-5.1502,-5.1091,-5.0422,-4.9023,-4.8326,-4.8268,-4.7615,-4.7309,-4.7309,-4.7207,-4.7033,-4.6741,-4.605,-4.5055,-4.4036,-4.3832,-4.3497,-4.2901,-4.2416,-4.2114,-4.1854,-4.1502,-4.1235,-4.1053,-4.1011,-4.0912,-4.0744,-4.0702,-4.08,-4.0955,-4.0997,-4.0898,-4.073,-4.0702,-4.0702,-4.073,-4.0884,-4.1095,-4.132,-4.1699,-4.1924,-4.198,-4.2331,-4.2728,-4.2851,-4.2879,-4.2964,-4.316,-4.3188,-4.3385,-4.375,-4.3793,-4.4003,-4.4312,-4.4425,-4.4425,-4.4425,-4.4411,-4.4425,-4.4425,-4.4425,-4.4425,-4.4425,-4.4425,-4.4425,-4.4425,-4.4425,-4.4425,-4.4425,-4.4411,-4.4397,-4.4425,-4.4425,-4.4425,-4.4425,-4.4425,-4.4425,-4.4411,-4.434,-4.4158,-4.3793,-4.3413,-4.2781,-4.2598,-4.25,-4.2626,-4.2725,-4.2697,-4.2683,-4.264,-4.2612,-4.2598,-4.2598,-4.2612,-4.2612,-4.264,-4.2753,-4.2851,-4.2964,-4.309,-4.3216,-5.4771,-5.4713,-5.4771,-5.4687,-5.4687,-5.4687,-5.4597,-5.4274,-5.429,-5.3972,-5.355,-5.362,-5.325,-5.2927,-5.2265,-5.1871,-5.1361,-4.9896,-4.9025,-4.883,-4.7841,-4.7354,-4.7309,-4.7077,-4.68,-4.6594,-4.609,-4.5428,-4.4597,-4.433,-4.3804,-4.3083,-4.2775,-4.2629,-4.2598,-4.2444,-4.2177,-4.1755,-4.1615,-4.1348,-4.0814,-4.0856,-4.1123,-4.1545,-4.1615,-4.1376,-4.0842,-4.0828,-4.0884,-4.0898,-4.1348,-4.191,-4.2345,-4.2587,-4.257,-4.2598,-4.2626,-4.2935,-4.3413,-4.3512,-4.3736,-4.4088,-4.4312,-4.4242,-4.4256,-4.4312,-4.4355,-4.4397,-4.4425,-4.4425,-4.4425,-4.4425,-4.4425,-4.4425,-4.4425,-4.4425,-4.4425,-4.4425,-4.4425,-4.4425,-4.4425,-4.4425,-4.4425,-4.4425,-4.4425,-4.4425,-4.4425,-4.4425,-4.4425,-4.4425,-4.4425,-4.4425,-4.4425,-4.4326,-4.4355,-4.4312,-4.3596,-4.3034,-4.2935,-4.295,-4.3062,-4.309,-4.316,-4.3146,-4.3174,-4.316,-4.3174,-4.316,-4.3062,-4.309,-4.3287,-4.3497,-4.3582,-4.3708,-4.3975,-5.3829,-5.3829,-5.3829,-5.3829,-5.3829,-5.3829,-5.377,-5.3711,-5.3726,-5.3655,-5.354,-5.338,-5.3204,-5.304,-5.2646,-5.2419,-5.2269,-5.0965,-4.9921,-4.9029,-4.8276,-4.7728,-4.7341,-4.7033,-4.6712,-4.6299,-4.5866,-4.5403,-4.4958,-4.4701,-4.4358,-4.3945,-4.3445,-4.3231,-4.3174,-4.2795,-4.2444,-4.2317,-4.2275,-4.2163,-4.1994,-4.198,-4.2093,-4.2247,-4.2275,-4.2163,-4.2008,-4.1994,-4.1994,-4.1966,-4.2177,-4.2374,-4.2612,-4.2992,-4.3202,-4.3259,-4.3624,-4.3891,-4.4059,-4.4116,-4.4172,-4.4369,-4.4425,-4.4425,-4.4425,-4.4425,-4.4425,-4.4425,-4.4425,-4.4425,-4.4425,-4.4425,-4.4481,-4.4425,-4.4425,-4.4425,-4.4425,-4.4425,-4.4425,-4.4425,-4.4425,-4.4425,-4.4425,-4.4425,-4.4425,-4.4425,-4.4425,-4.4425,-4.4425,-4.4425,-4.4425,-4.4425,-4.4425,-4.4425,-4.4425,-4.4425,-4.4059,-4.3666,-4.3554,-4.3441,-4.3526,-4.3568,-4.3624,-4.3652,-4.368,-4.3694,-4.3722,-4.3694,-4.3596,-4.3694,-4.3947,-4.4074,-4.413,-4.4242,-4.4369,-5.3421,-5.3421,-5.3421,-5.3421,-5.3421,-5.3421,-5.3421,-5.3421,-5.3421,-5.3349,-5.3261,-5.316,-5.3026,-5.2937,-5.2758,-5.2713,-5.2622,-5.1758,-5.0772,-4.9681,-4.8637,-4.8013,-4.7463,-4.6889,-4.6388,-4.5986,-4.564,-4.5321,-4.5,-4.4876,-4.4658,-4.4373,-4.4017,-4.3849,-4.3821,-4.3469,-4.3174,-4.2978,-4.2921,-4.2809,-4.2671,-4.2584,-4.2683,-4.2865,-4.2935,-4.3034,-4.3231,-4.3259,-4.3034,-4.2739,-4.2795,-4.3006,-4.3245,-4.3624,-4.3835,-4.3905,-4.4158,-4.4397,-4.4425,-4.4383,-4.4425,-4.4425,-4.4425,-4.4425,-4.4425,-4.4425,-4.4481,-4.4706,-4.4776,-4.4846,-4.5071,-4.5113,-4.5113,-4.5113,-4.4678,-4.4453,-4.4425,-4.4425,-4.4425,-4.4425,-4.4425,-4.4425,-4.4425,-4.4425,-4.4425,-4.4425,-4.4425,-4.4425,-4.4425,-4.4425,-4.4425,-4.4425,-4.4425,-4.4425,-4.4425,-4.4425,-4.4425,-4.4312,-4.4228,-4.4144,-4.4116,-4.4116,-4.4144,-4.4116,-4.413,-4.4088,-4.4102,-4.4186,-4.4172,-4.4397,-4.4425,-4.4369,-4.4298,-4.4326,-4.4425,-5.3334,-5.3334,-5.3305,-5.3261,-5.3246,-5.3246,-5.3201,-5.329,-5.329,-5.3173,-5.3071,-5.3026,-5.2937,-5.2758,-5.2713,-5.2669,-5.2548,-5.2155,-5.1577,-5.0593,-4.9344,-4.8268,-4.7718,-4.6756,-4.6046,-4.5595,-4.5504,-4.5244,-4.4844,-4.4751,-4.4644,-4.4397,-4.4355,-4.4383,-4.4312,-4.4369,-4.4031,-4.3596,-4.354,-4.3287,-4.2837,-4.2781,-4.3006,-4.3526,-4.3554,-4.3764,-4.4144,-4.42,-4.3778,-4.295,-4.3301,-4.3764,-4.4242,-4.4411,-4.434,-4.4326,-4.4411,-4.4425,-4.4425,-4.4425,-4.4425,-4.4425,-4.4509,-4.4467,-4.4551,-4.4706,-4.4945,-4.5338,-4.5394,-4.5591,-4.604,-4.6139,-4.6139,-4.6097,-4.5212,-4.4621,-4.4495,-4.4481,-4.4425,-4.4425,-4.4425,-4.4425,-4.4425,-4.4425,-4.4425,-4.4425,-4.4425,-4.4425,-4.4425,-4.4425,-4.4425,-4.4425,-4.4425,-4.4425,-4.4425,-4.4425,-4.4425,-4.4425,-4.4425,-4.4425,-4.4425,-4.4425,-4.4425,-4.4425,-4.4425,-4.4425,-4.4425,-4.4425,-4.4425,-4.4425,-4.4425,-4.4425,-4.4425,-4.4425,-4.4425,-5.2382,-5.2382,-5.2382,-5.2337,-5.2397,-5.2397,-5.2382,-5.2367,-5.2532,-5.2577,-5.2548,-5.2743,-5.2758,-5.2713,-5.2669,-5.2593,-5.2367,-5.2124,-5.1849,-5.1287,-5.0106,-4.8773,-4.7717,-4.6666,-4.5956,-4.5504,-4.5261,-4.5046,-4.4783,-4.4597,-4.4472,-4.4425,-4.4425,-4.4425,-4.4425,-4.4425,-4.4355,-4.42,-4.4172,-4.4088,-4.3933,-4.3877,-4.3989,-4.413,-4.4144,-4.4242,-4.4411,-4.4425,-4.4312,-4.4003,-4.4059,-4.4228,-4.4397,-4.4425,-4.4425,-4.4425,-4.4425,-4.4425,-4.4425,-4.4439,-4.4425,-4.4453,-4.4888,-4.5052,-4.5066,-4.5535,-4.583,-4.604,-4.604,-4.6111,-4.6279,-4.635,-4.6335,-4.6209,-4.5633,-4.5113,-4.4973,-4.4678,-4.4425,-4.4425,-4.4425,-4.4425,-4.4425,-4.4425,-4.4425,-4.4425,-4.4425,-4.4425,-4.4425,-4.4425,-4.4425,-4.4425,-4.4425,-4.4425,-4.4425,-4.4425,-4.4425,-4.4425,-4.4425,-4.4425,-4.4425,-4.4425,-4.4425,-4.4425,-4.4425,-4.4425,-4.4425,-4.4425,-4.4425,-4.4425,-4.4425,-4.4425,-4.4425,-4.4425,-4.4425,-5.1987,-5.1987,-5.1987,-5.1987,-5.1987,-5.1987,-5.1987,-5.2033,-5.2109,-5.2185,-5.2185,-5.2352,-5.2397,-5.2397,-5.2397,-5.2337,-5.2139,-5.1926,-5.1726,-5.142,-5.0264,-4.8854,-4.7608,-4.663,-4.596,-4.5353,-4.5092,-4.4862,-4.4644,-4.4457,-4.4411,-4.4425,-4.4425,-4.4425,-4.4425,-4.4425,-4.4425,-4.4411,-4.4425,-4.4425,-4.4425,-4.4425,-4.4411,-4.4411,-4.4425,-4.4425,-4.4425,-4.4425,-4.4425,-4.4397,-4.4411,-4.4425,-4.4425,-4.4425,-4.4425,-4.4425,-4.4425,-4.4495,-4.4748,-4.479,-4.4931,-4.5183,-4.5577,-4.5689,-4.5774,-4.6111,-4.6335,-4.6645,-4.6673,-4.6813,-4.7024,-4.7066,-4.7066,-4.7052,-4.6504,-4.5914,-4.5374,-4.4967,-4.4692,-4.4523,-4.4425,-4.4425,-4.4425,-4.4425,-4.4425,-4.4425,-4.4425,-4.4425,-4.4425,-4.4425,-4.4425,-4.4425,-4.4425,-4.4425,-4.4425,-4.4425,-4.4425,-4.4425,-4.4425,-4.4425,-4.4425,-4.4425,-4.4425,-4.4425,-4.4425,-4.4425,-4.4425,-4.4425,-4.4425,-4.4425,-4.4425,-4.4425,-4.4425,-4.4425,-4.4425,-5.191,-5.191,-5.191,-5.191,-5.1895,-5.191,-5.1849,-5.1895,-5.1941,-5.1941,-5.2002,-5.2002,-5.2078,-5.1987,-5.2094,-5.1987,-5.1941,-5.1741,-5.1541,-5.1111,-5.0149,-4.8869,-4.7578,-4.6964,-4.6206,-4.541,-4.5036,-4.4761,-4.4546,-4.4411,-4.4425,-4.4425,-4.4425,-4.4425,-4.4425,-4.4425,-4.4425,-4.4425,-4.4425,-4.4425,-4.4425,-4.4425,-4.4425,-4.4425,-4.4425,-4.4425,-4.4425,-4.4425,-4.4425,-4.4425,-4.4425,-4.4425,-4.4425,-4.4439,-4.4551,-4.4635,-4.4734,-4.4987,-4.5324,-4.5436,-4.5619,-4.6055,-4.6251,-4.6392,-4.642,-4.6574,-4.6869,-4.7263,-4.7291,-4.7516,-4.7839,-4.805,-4.7965,-4.7839,-4.7502,-4.6757,-4.5858,-4.5416,-4.515,-4.4621,-4.4537,-4.4509,-4.4425,-4.4425,-4.4425,-4.4425,-4.4425,-4.4425,-4.4425,-4.4425,-4.4425,-4.4425,-4.4425,-4.4425,-4.4425,-4.4425,-4.4425,-4.4425,-4.4425,-4.4425,-4.4425,-4.4425,-4.4425,-4.4425,-4.4425,-4.4425,-4.4425,-4.4425,-4.4425,-4.4425,-4.4425,-4.4425,-4.4425,-4.4425,-4.4425,-5.1369,-5.1354,-5.1369,-5.1369,-5.1369,-5.1369,-5.1369,-5.1416,-5.1587,-5.168,-5.1741,-5.1895,-5.1987,-5.1987,-5.1941,-5.188,-5.168,-5.1541,-5.1308,-5.071,-5.0272,-4.9251,-4.8162,-4.7491,-4.676,-4.5991,-4.5614,-4.5124,-4.4598,-4.4453,-4.4425,-4.4425,-4.4425,-4.4425,-4.4425,-4.4425,-4.4425,-4.4425,-4.4425,-4.4425,-4.4425,-4.4425,-4.4425,-4.4425,-4.4425,-4.4425,-4.4425,-4.4425,-4.4425,-4.4425,-4.4467,-4.4565,-4.4565,-4.4902,-4.5113,-4.5226,-4.5591,-4.59,-4.6055,-4.6097,-4.6153,-4.6441,-4.6848,-4.701,-4.7052,-4.7417,-4.7698,-4.7923,-4.7937,-4.7965,-4.8041,-4.8083,-4.8083,-4.8078,-4.7965,-4.76,-4.6912,-4.6364,-4.583,-4.5324,-4.5085,-4.4945,-4.4495,-4.4425,-4.4425,-4.4425,-4.4425,-4.4425,-4.4425,-4.4425,-4.4425,-4.4425,-4.4425,-4.4425,-4.4425,-4.4425,-4.4425,-4.4425,-4.4425,-4.4425,-4.4425,-4.4425,-4.4425,-4.4425,-4.4425,-4.4425,-4.4425,-4.4425,-4.4425,-4.4425,-4.4425,-4.4425,-4.4425,-4.4425,-4.4425,-5.1229,-5.1229,-5.1229,-5.1229,-5.1229,-5.1229,-5.1229,-5.1214,-5.1354,-5.1386,-5.1448,-5.1556,-5.1602,-5.1602,-5.1617,-5.1556,-5.1401,-5.1246,-5.0885,-5.0438,-5.012,-4.9592,-4.8908,-4.8253,-4.7529,-4.6462,-4.5737,-4.5222,-4.486,-4.4565,-4.4425,-4.4425,-4.4425,-4.4425,-4.4425,-4.4425,-4.4425,-4.4425,-4.4425,-4.4425,-4.4425,-4.4425,-4.4425,-4.4425,-4.4425,-4.4425,-4.4425,-4.4734,-4.4818,-4.4916,-4.5113,-4.5127,-4.4987,-4.5422,-4.5731,-4.5858,-4.604,-4.6476,-4.6602,-4.6876,-4.7024,-4.7292,-4.7758,-4.7907,-4.7992,-4.8203,-4.8266,-4.8258,-4.8156,-4.8069,-4.8083,-4.8083,-4.8083,-4.8083,-4.8083,-4.7915,-4.7628,-4.7094,-4.6476,-4.59,-4.5478,-4.5226,-4.4916,-4.465,-4.4425,-4.4439,-4.4425,-4.4425,-4.4425,-4.4425,-4.4425,-4.4425,-4.4425,-4.4425,-4.4425,-4.4425,-4.4425,-4.4425,-4.4425,-4.4425,-4.4425,-4.4425,-4.4425,-4.4425,-4.4425,-4.4425,-4.4425,-4.4425,-4.4425,-4.4425,-4.4425,-4.4425,-4.4425,-4.4425,-4.4425,-5.1229,-5.1229,-5.1229,-5.1229,-5.1229,-5.1229,-5.1229,-5.1229,-5.1229,-5.1229,-5.1229,-5.1229,-5.1276,-5.1229,-5.1276,-5.1229,-5.1058,-5.0822,-5.0442,-5.0183,-4.9956,-4.9605,-4.9092,-4.8687,-4.8084,-4.6811,-4.6137,-4.5689,-4.5366,-4.4902,-4.4692,-4.4579,-4.4425,-4.4425,-4.4425,-4.4425,-4.4425,-4.4425,-4.4425,-4.4425,-4.4425,-4.4425,-4.4425,-4.4425,-4.4607,-4.4635,-4.4776,-4.5141,-4.5493,-4.5459,-4.6083,-4.6069,-4.5976,-4.6069,-4.6434,-4.6448,-4.6651,-4.7024,-4.7398,-4.7695,-4.8013,-4.8567,-4.8717,-4.8831,-4.8731,-4.8553,-4.8431,-4.8358,-4.8221,-4.8083,-4.8083,-4.8083,-4.8083,-4.8083,-4.8083,-4.8083,-4.7985,-4.7642,-4.7122,-4.6532,-4.6139,-4.5858,-4.5276,-4.4931,-4.4664,-4.4453,-4.4439,-4.4425,-4.4425,-4.4425,-4.4425,-4.4425,-4.4425,-4.4425,-4.4425,-4.4425,-4.4425,-4.4425,-4.4425,-4.4425,-4.4425,-4.4425,-4.4425,-4.4425,-4.4425,-4.4425,-4.4425,-4.4425,-4.4425,-4.4425,-4.4425,-4.4425,-4.4425,-4.4425,-4.4425,-5.1229,-5.1229,-5.1229,-5.1229,-5.1229,-5.1229,-5.1229,-5.1229,-5.1229,-5.1229,-5.1229,-5.1229,-5.1229,-5.1229,-5.1214,-5.1058,-5.076,-5.0442,-5.0168,-4.999,-4.9698,-4.9305,-4.8994,-4.8745,-4.8261,-4.7827,-4.7136,-4.6588,-4.6069,-4.5535,-4.5212,-4.5085,-4.4748,-4.4537,-4.4509,-4.4425,-4.4481,-4.4425,-4.4425,-4.4425,-4.4425,-4.4481,-4.4565,-4.4621,-4.4987,-4.5155,-4.5324,-4.5774,-4.6139,-4.6195,-4.6743,-4.706,-4.7116,-4.7116,-4.7087,-4.7236,-4.7652,-4.802,-4.8212,-4.8511,-4.8667,-4.8831,-4.8909,-4.8795,-4.8695,-4.8545,-4.8445,-4.8207,-4.817,-4.8083,-4.8083,-4.8083,-4.8083,-4.8083,-4.8083,-4.8083,-4.8092,-4.7951,-4.767,-4.7136,-4.6841,-4.6504,-4.5928,-4.529,-4.4945,-4.4664,-4.4495,-4.4453,-4.4425,-4.4425,-4.4425,-4.4425,-4.4425,-4.4425,-4.4425,-4.4425,-4.4425,-4.4425,-4.4425,-4.4425,-4.4425,-4.4425,-4.4425,-4.4425,-4.4425,-4.4425,-4.4425,-4.4425,-4.4425,-4.4425,-4.4425,-4.4425,-4.4425,-4.4425,-4.4425,-5.1229,-5.1229,-5.1229,-5.1229,-5.1229,-5.1229,-5.1229,-5.1229,-5.1229,-5.1229,-5.1229,-5.1229,-5.1229,-5.1167,-5.1073,-5.0822,-5.0456,-5.0264,-4.9941,-4.9698,-4.9418,-4.9058,-4.8745,-4.8545,-4.8358,-4.8086,-4.7769,-4.7347,-4.6771,-4.6139,-4.5872,-4.5774,-4.5493,-4.524,-4.4959,-4.4916,-4.472,-4.4551,-4.4453,-4.4453,-4.4495,-4.4692,-4.4987,-4.5394,-4.5605,-4.5802,-4.5942,-4.6615,-4.6974,-4.7101,-4.7681,-4.8084,-4.8191,-4.8127,-4.8042,-4.8148,-4.8475,-4.8695,-4.8745,-4.8959,-4.9093,-4.9093,-4.9192,-4.9192,-4.8945,-4.881,-4.8495,-4.8221,-4.8083,-4.8083,-4.8083,-4.8083,-4.8083,-4.8083,-4.8083,-4.8083,-4.8083,-4.8083,-4.7873,-4.7628,-4.7277,-4.6883,-4.6518,-4.5928,-4.5276,-4.4931,-4.4621,-4.4509,-4.4439,-4.4425,-4.4425,-4.4425,-4.4425,-4.4425,-4.4425,-4.4425,-4.4425,-4.4425,-4.4425,-4.4425,-4.4425,-4.4425,-4.4425,-4.4425,-4.4425,-4.4425,-4.4425,-4.4425,-4.4425,-4.4425,-4.4425,-4.4425,-4.4425,-4.4425,-4.4425,-5.1229,-5.1229,-5.1229,-5.1229,-5.1229,-5.1229,-5.1229,-5.1229,-5.1229,-5.1229,-5.1229,-5.1229,-5.1182,-5.1073,-5.0775,-5.0456,-5.0101,-5.0038,-4.9698,-4.9418,-4.9157,-4.8845,-4.8595,-4.8395,-4.8294,-4.812,-4.8078,-4.7867,-4.7375,-4.6771,-4.6518,-4.6392,-4.6392,-4.6083,-4.5619,-4.5521,-4.5155,-4.4973,-4.479,-4.479,-4.4916,-4.5268,-4.5731,-4.6265,-4.6455,-4.656,-4.6665,-4.7447,-4.7815,-4.802,-4.8418,-4.8866,-4.893,-4.8994,-4.9009,-4.9044,-4.9009,-4.9009,-4.9058,-4.9256,-4.9404,-4.9389,-4.9502,-4.9453,-4.9157,-4.881,-4.8509,-4.817,-4.8083,-4.8083,-4.8083,-4.8083,-4.8083,-4.8083,-4.8083,-4.8083,-4.8083,-4.8083,-4.8083,-4.7816,-4.7586,-4.7263,-4.6897,-4.6588,-4.5984,-4.5192,-4.4916,-4.4607,-4.4537,-4.4439,-4.4425,-4.4425,-4.4425,-4.4425,-4.4425,-4.4425,-4.4425,-4.4425,-4.4425,-4.4425,-4.4425,-4.4425,-4.4425,-4.4425,-4.4425,-4.4425,-4.4425,-4.4425,-4.4425,-4.4425,-4.4425,-4.4425,-4.4425,-4.4425,-4.4425,-5.1229,-5.1229,-5.1229,-5.1229,-5.1229,-5.1229,-5.1229,-5.1229,-5.1229,-5.1229,-5.1229,-5.1182,-5.1073,-5.0775,-5.0408,-5.0183,-4.999,-4.9649,-4.9418,-4.9207,-4.8845,-4.8645,-4.8445,-4.8258,-4.8156,-4.8083,-4.8083,-4.8055,-4.7825,-4.7347,-4.7122,-4.7038,-4.6687,-4.6251,-4.6209,-4.6167,-4.6139,-4.6055,-4.6012,-4.6012,-4.604,-4.6111,-4.63,-4.6588,-4.7045,-4.7426,-4.7532,-4.8183,-4.8631,-4.8688,-4.8809,-4.9058,-4.9221,-4.927,-4.9404,-4.9438,-4.9389,-4.927,-4.9305,-4.9453,-4.9585,-4.9488,-4.9488,-4.9256,-4.8909,-4.8559,-4.8221,-4.812,-4.8083,-4.8083,-4.8083,-4.8083,-4.8083,-4.8083,-4.8083,-4.8083,-4.8083,-4.8083,-4.8083,-4.8069,-4.7788,-4.7586,-4.7277,-4.701,-4.6645,-4.5872,-4.5164,-4.4902,-4.4621,-4.4537,-4.4425,-4.4425,-4.4425,-4.4425,-4.4425,-4.4425,-4.4425,-4.4425,-4.4425,-4.4425,-4.4425,-4.4425,-4.4425,-4.4425,-4.4425,-4.4425,-4.4425,-4.4425,-4.4425,-4.4425,-4.4425,-4.4425,-4.4425,-4.4425,-4.4425,-5.1229,-5.1229,-5.1229,-5.1229,-5.1229,-5.1229,-5.1229,-5.1229,-5.1229,-5.1229,-5.1167,-5.1011,-5.0775,-5.0456,-5.0183,-5.0023,-4.9844,-4.9453,-4.9207,-4.8994,-4.8695,-4.8445,-4.8258,-4.817,-4.8083,-4.8083,-4.8083,-4.8083,-4.8007,-4.7909,-4.7726,-4.7656,-4.7445,-4.7164,-4.6855,-4.6813,-4.6574,-4.6378,-4.6293,-4.6476,-4.6764,-4.6961,-4.72,-4.7525,-4.8042,-4.824,-4.8453,-4.8808,-4.9108,-4.9157,-4.9242,-4.9389,-4.9488,-4.9537,-4.9585,-4.962,-4.9585,-4.9537,-4.9551,-4.9634,-4.9585,-4.9502,-4.9355,-4.9157,-4.8695,-4.8358,-4.8083,-4.8083,-4.8083,-4.8083,-4.8083,-4.8083,-4.8083,-4.8083,-4.8083,-4.8083,-4.8083,-4.8083,-4.8083,-4.8083,-4.8055,-4.7853,-4.7614,-4.7347,-4.7066,-4.656,-4.5816,-4.5282,-4.4931,-4.465,-4.4523,-4.4425,-4.4425,-4.4425,-4.4425,-4.4425,-4.4425,-4.4425,-4.4425,-4.4425,-4.4425,-4.4425,-4.4425,-4.4425,-4.4425,-4.4425,-4.4425,-4.4425,-4.4425,-4.4425,-4.4425,-4.4425,-4.4425,-4.4425,-4.4425,-5.1229,-5.1229,-5.1229,-5.1229,-5.1229,-5.1229,-5.1229,-5.1229,-5.1229,-5.1167,-5.1011,-5.0775,-5.0408,-5.012,-5.0023,-4.9829,-4.9585,-4.9305,-4.9058,-4.8795,-4.8559,-4.8308,-4.817,-4.8083,-4.8083,-4.8083,-4.8083,-4.8083,-4.8083,-4.8041,-4.8013,-4.8083,-4.7929,-4.7825,-4.7558,-4.7417,-4.7249,-4.6954,-4.6982,-4.7215,-4.7482,-4.7815,-4.8155,-4.8511,-4.8845,-4.9009,-4.9058,-4.9256,-4.9404,-4.9453,-4.9537,-4.9634,-4.9683,-4.9683,-4.9683,-4.9683,-4.9683,-4.9634,-4.9537,-4.9551,-4.9502,-4.9355,-4.9108,-4.8859,-4.8459,-4.8221,-4.8083,-4.8083,-4.8083,-4.8083,-4.8083,-4.8083,-4.8083,-4.8083,-4.8083,-4.8083,-4.8083,-4.8083,-4.8083,-4.8083,-4.8083,-4.8083,-4.7881,-4.7656,-4.7389,-4.7108,-4.6504,-4.5759,-4.524,-4.4818,-4.4579,-4.4439,-4.4425,-4.4425,-4.4425,-4.4425,-4.4425,-4.4425,-4.4425,-4.4425,-4.4425,-4.4425,-4.4425,-4.4425,-4.4425,-4.4425,-4.4425,-4.4425,-4.4425,-4.4425,-4.4425,-4.4425,-4.4425,-4.4425,-4.4425,-5.1229,-5.1229,-5.1229,-5.1229,-5.1229,-5.1229,-5.1229,-5.1229,-5.1229,-5.1073,-5.0775,-5.0408,-5.0183,-5.0038,-4.9781,-4.9585,-4.9305,-4.9044,-4.8795,-4.8545,-4.8258,-4.817,-4.8083,-4.8083,-4.8083,-4.8083,-4.8083,-4.8083,-4.8083,-4.8083,-4.8083,-4.8083,-4.8083,-4.8106,-4.8007,-4.7881,-4.7881,-4.7763,-4.7899,-4.8091,-4.8347,-4.8539,-4.8774,-4.8887,-4.9108,-4.927,-4.932,-4.9502,-4.9634,-4.9634,-4.9683,-4.9683,-4.9732,-4.9732,-4.9732,-4.9732,-4.9634,-4.9537,-4.9453,-4.9404,-4.932,-4.9172,-4.8859,-4.8509,-4.8207,-4.817,-4.8083,-4.8083,-4.8083,-4.8083,-4.8083,-4.8083,-4.8083,-4.8083,-4.8083,-4.8083,-4.8083,-4.8083,-4.8083,-4.8083,-4.8083,-4.8083,-4.8069,-4.7881,-4.7726,-4.7474,-4.7052,-4.6307,-4.5422,-4.4931,-4.4621,-4.4453,-4.4425,-4.4425,-4.4425,-4.4425,-4.4425,-4.4425,-4.4425,-4.4425,-4.4425,-4.4425,-4.4425,-4.4425,-4.4425,-4.4425,-4.4425,-4.4425,-4.4425,-4.4425,-4.4425,-4.4425,-4.4425,-4.4425,-4.4425,-5.1229,-5.1229,-5.1229,-5.1229,-5.1229,-5.1229,-5.1229,-5.1229,-5.1229,-5.0932,-5.0614,-5.0279,-4.999,-4.9829,-4.96,-4.9404,-4.9256,-4.8845,-4.8631,-4.8445,-4.8258,-4.812,-4.8083,-4.8083,-4.8083,-4.8083,-4.8083,-4.8083,-4.8083,-4.8083,-4.8083,-4.8083,-4.8083,-4.8069,-4.8069,-4.8134,-4.8221,-4.8358,-4.8445,-4.8531,-4.8795,-4.9009,-4.9157,-4.9157,-4.9389,-4.9537,-4.9585,-4.9634,-4.9683,-4.9732,-4.9732,-4.9732,-4.9732,-4.9732,-4.9683,-4.9683,-4.9537,-4.9389,-4.9305,-4.9256,-4.9157,-4.881,-4.8459,-4.8221,-4.812,-4.8069,-4.8083,-4.8083,-4.8083,-4.8083,-4.8083,-4.8083,-4.8083,-4.8083,-4.8083,-4.8083,-4.8083,-4.8083,-4.8083,-4.8083,-4.8083,-4.8083,-4.8083,-4.8055,-4.7979,-4.7811,-4.7361,-4.6813,-4.5872,-4.5038,-4.4776,-4.4481,-4.4425,-4.4425,-4.4425,-4.4425,-4.4425,-4.4425,-4.4425,-4.4425,-4.4425,-4.4425,-4.4425,-4.4425,-4.4425,-4.4425,-4.4425,-4.4425,-4.4425,-4.4425,-4.4425,-4.4425,-4.4425,-4.4425,-4.4425,-5.1229,-5.1229,-5.1229,-5.1229,-5.1229,-5.1229,-5.1229,-5.1167,-5.112,-5.079,-5.039,-5.0086,-4.9892,-4.9683,-4.9453,-4.9256,-4.9058,-4.8745,-4.8509,-4.8308,-4.817,-4.812,-4.8083,-4.8083,-4.8083,-4.8083,-4.8083,-4.8083,-4.8083,-4.8083,-4.8083,-4.8083,-4.8083,-4.8083,-4.8134,-4.8221,-4.8308,-4.8445,-4.8695,-4.8795,-4.9058,-4.9305,-4.9404,-4.9438,-4.9585,-4.9683,-4.9683,-4.9683,-4.9683,-4.9732,-4.9732,-4.9732,-4.9732,-4.9683,-4.9683,-4.9537,-4.9404,-4.9256,-4.9108,-4.9009,-4.8845,-4.8459,-4.8258,-4.812,-4.8083,-4.8083,-4.8083,-4.8083,-4.8083,-4.8083,-4.8083,-4.8083,-4.8083,-4.8083,-4.8083,-4.8083,-4.8083,-4.8083,-4.8083,-4.8083,-4.8083,-4.8083,-4.8083,-4.8083,-4.8027,-4.7881,-4.7459,-4.6897,-4.6125,-4.5422,-4.4973,-4.4664,-4.4425,-4.4425,-4.4425,-4.4425,-4.4425,-4.4425,-4.4425,-4.4425,-4.4425,-4.4425,-4.4425,-4.4425,-4.4425,-4.4425,-4.4425,-4.4425,-4.4425,-4.4425,-4.4425,-4.4425,-4.4425,-4.4425,-4.4425,-5.1229,-5.1229,-5.1229,-5.1229,-5.1229,-5.1229,-5.1229,-5.1167,-5.0917,-5.06,-5.0135,-4.9878,-4.9732,-4.9634,-4.9404,-4.9157,-4.8895,-4.8595,-4.8358,-4.817,-4.812,-4.8083,-4.8083,-4.8083,-4.8083,-4.8083,-4.8083,-4.8083,-4.8083,-4.8083,-4.8083,-4.8083,-4.8083,-4.8083,-4.8134,-4.8358,-4.8495,-4.8581,-4.8994,-4.9157,-4.934,-4.9537,-4.9585,-4.9634,-4.9683,-4.9732,-4.9732,-4.9732,-4.9732,-4.9732,-4.9732,-4.9732,-4.9732,-4.9683,-4.9537,-4.9355,-4.9256,-4.9009,-4.8581,-4.8545,-4.8409,-4.8221,-4.812,-4.812,-4.8083,-4.8083,-4.8083,-4.8083,-4.8083,-4.8083,-4.8083,-4.8083,-4.8083,-4.8083,-4.8083,-4.8083,-4.8083,-4.8083,-4.8083,-4.8083,-4.8083,-4.8083,-4.8083,-4.8083,-4.8083,-4.7923,-4.753,-4.6968,-4.635,-4.5816,-4.5352,-4.486,-4.4565,-4.4425,-4.4425,-4.4425,-4.4425,-4.4425,-4.4425,-4.4425,-4.4425,-4.4425,-4.4425,-4.4425,-4.4425,-4.4425,-4.4425,-4.4425,-4.4425,-4.4425,-4.4425,-4.4425,-4.4425,-4.4425,-4.4425,-5.1229,-5.1229,-5.1229,-5.1229,-5.1229,-5.1229,-5.1229,-5.1135,-5.0805,-5.0423,-5.0086,-4.9829,-4.9732,-4.9585,-4.9242,-4.8994,-4.8845,-4.8409,-4.812,-4.8134,-4.8083,-4.8083,-4.8083,-4.8083,-4.8083,-4.8083,-4.8083,-4.8083,-4.8083,-4.8083,-4.8083,-4.8083,-4.8083,-4.8083,-4.817,-4.8358,-4.8545,-4.8795,-4.9108,-4.9355,-4.9537,-4.9634,-4.9732,-4.9732,-4.9732,-4.9732,-4.9732,-4.9732,-4.9732,-4.9732,-4.9732,-4.9683,-4.9634,-4.9585,-4.9404,-4.9207,-4.9058,-4.861,-4.8308,-4.8207,-4.8207,-4.812,-4.8083,-4.8083,-4.8083,-4.8083,-4.8083,-4.8083,-4.8083,-4.8083,-4.8083,-4.8083,-4.8083,-4.8083,-4.8083,-4.8083,-4.8083,-4.8083,-4.8083,-4.8083,-4.8083,-4.8083,-4.8083,-4.8083,-4.8083,-4.8083,-4.7797,-4.7445,-4.6883,-4.6321,-4.5816,-4.5197,-4.479,-4.4551,-4.4425,-4.4425,-4.4425,-4.4425,-4.4425,-4.4425,-4.4425,-4.4425,-4.4425,-4.4425,-4.4425,-4.4425,-4.4425,-4.4425,-4.4425,-4.4425,-4.4425,-4.4425,-4.4425,-4.4425,-4.4425,-5.1229,-5.1229,-5.1229,-5.1229,-5.1229,-5.1229,-5.1135,-5.0947,-5.0644,-5.0294,-4.9975,-4.9766,-4.9634,-4.9438,-4.9143,-4.8795,-4.8745,-4.8308,-4.812,-4.8083,-4.8083,-4.8083,-4.8083,-4.8083,-4.8083,-4.8083,-4.8083,-4.8083,-4.8083,-4.8083,-4.8083,-4.8083,-4.8083,-4.8083,-4.8221,-4.8409,-4.8695,-4.8945,-4.9256,-4.9537,-4.9634,-4.9732,-4.9732,-4.9732,-4.9732,-4.9732,-4.9732,-4.9732,-4.9732,-4.9732,-4.9683,-4.9634,-4.9551,-4.9404,-4.9221,-4.8945,-4.866,-4.8308,-4.817,-4.812,-4.812,-4.8083,-4.8083,-4.8083,-4.8083,-4.8083,-4.8083,-4.8083,-4.8083,-4.8083,-4.8083,-4.8083,-4.8083,-4.8083,-4.8083,-4.8083,-4.8083,-4.8083,-4.8083,-4.8083,-4.8083,-4.8083,-4.8083,-4.8083,-4.8083,-4.8083,-4.8041,-4.7726,-4.7347,-4.6757,-4.6153,-4.5507,-4.4916,-4.4579,-4.4439,-4.4425,-4.4425,-4.4425,-4.4425,-4.4425,-4.4425,-4.4425,-4.4425,-4.4425,-4.4425,-4.4425,-4.4425,-4.4425,-4.4425,-4.4425,-4.4425,-4.4425,-4.4425,-4.4425,-4.4425,-5.1229,-5.1229,-5.1229,-5.1229,-5.1229,-5.1229,-5.0947,-5.0501,-5.0501,-5.0198,-4.9717,-4.9732,-4.96,-4.9305,-4.9009,-4.8795,-4.8545,-4.8258,-4.812,-4.8083,-4.8083,-4.8083,-4.8083,-4.8083,-4.8083,-4.8083,-4.8083,-4.8083,-4.8083,-4.8083,-4.8083,-4.8083,-4.8083,-4.8083,-4.8221,-4.8559,-4.8795,-4.8994,-4.9389,-4.9585,-4.9683,-4.9732,-4.9732,-4.9732,-4.9732,-4.9732,-4.9732,-4.9732,-4.9732,-4.9683,-4.9683,-4.9551,-4.9418,-4.932,-4.8945,-4.8595,-4.8272,-4.817,-4.8134,-4.8083,-4.8083,-4.8083,-4.8083,-4.8083,-4.8083,-4.8083,-4.8083,-4.8083,-4.8083,-4.8083,-4.8083,-4.8083,-4.8083,-4.8083,-4.8083,-4.8083,-4.8083,-4.8083,-4.8083,-4.8083,-4.8083,-4.8083,-4.8083,-4.8083,-4.8083,-4.8083,-4.8055,-4.7887,-4.7516,-4.6954,-4.635,-4.5703,-4.5127,-4.4607,-4.4467,-4.4425,-4.4425,-4.4425,-4.4425,-4.4425,-4.4425,-4.4425,-4.4425,-4.4425,-4.4425,-4.4425,-4.4425,-4.4425,-4.4425,-4.4425,-4.4425,-4.4425,-4.4425,-4.4425,-4.4425,-5.1229,-5.1229,-5.1229,-5.1229,-5.1229,-5.1229,-5.0947,-5.0548,-5.0501,-5.0183,-4.9732,-4.9732,-4.9551,-4.9305,-4.9009,-4.8745,-4.8495,-4.8258,-4.812,-4.8083,-4.8083,-4.8083,-4.8083,-4.8083,-4.8083,-4.8083,-4.8083,-4.8083,-4.8083,-4.8083,-4.8083,-4.8083,-4.8083,-4.8083,-4.8272,-4.8595,-4.8795,-4.9044,-4.9438,-4.9634,-4.9732,-4.9732,-4.9732,-4.9732,-4.9732,-4.9732,-4.9732,-4.9732,-4.9683,-4.9683,-4.9502,-4.9355,-4.9305,-4.8945,-4.8531,-4.8258,-4.812,-4.8083,-4.8083,-4.8083,-4.8083,-4.8083,-4.8083,-4.8083,-4.8083,-4.8083,-4.8083,-4.8083,-4.8083,-4.8083,-4.8083,-4.8083,-4.8083,-4.8083,-4.8083,-4.8083,-4.8083,-4.8083,-4.8083,-4.8083,-4.8083,-4.8083,-4.8083,-4.8083,-4.8083,-4.8083,-4.8027,-4.7915,-4.7712,-4.7164,-4.6574,-4.5942,-4.5352,-4.4818,-4.4509,-4.4425,-4.4425,-4.4425,-4.4425,-4.4425,-4.4425,-4.4425,-4.4425,-4.4425,-4.4425,-4.4425,-4.4425,-4.4425,-4.4425,-4.4425,-4.4425,-4.4425,-4.4425,-4.4425,-4.4425,-5.1229,-5.1229,-5.1229,-5.1229,-5.1167,-5.1058,-5.0852,-5.0548,-5.0501,-5.0183,-4.9732,-4.9732,-4.9488,-4.9143,-4.8959,-4.871,-4.8308,-4.817,-4.8083,-4.8083,-4.8083,-4.8083,-4.8083,-4.8083,-4.8083,-4.8083,-4.8083,-4.8083,-4.8083,-4.8083,-4.8083,-4.8083,-4.8083,-4.8083,-4.8272,-4.861,-4.8845,-4.9093,-4.934,-4.9634,-4.9732,-4.9732,-4.9732,-4.9732,-4.9732,-4.9732,-4.9683,-4.9683,-4.9683,-4.96,-4.9355,-4.9157,-4.9009,-4.8545,-4.8358,-4.812,-4.812,-4.8083,-4.8083,-4.8083,-4.8083,-4.8083,-4.8083,-4.8083,-4.8083,-4.8083,-4.8083,-4.8083,-4.8083,-4.8083,-4.8083,-4.8083,-4.8083,-4.8083,-4.8083,-4.8083,-4.8083,-4.8083,-4.8083,-4.8083,-4.8083,-4.8083,-4.8083,-4.8083,-4.8083,-4.8083,-4.8083,-4.8041,-4.7788,-4.7417,-4.6827,-4.6209,-4.5619,-4.5057,-4.4762,-4.4467,-4.4425,-4.4425,-4.4425,-4.4425,-4.4425,-4.4425,-4.4425,-4.4425,-4.4425,-4.4425,-4.4425,-4.4425,-4.4425,-4.4425,-4.4425,-4.4425,-4.4425,-4.4425,-4.4425,-5.1229,-5.1229,-5.1229,-5.1229,-5.1167,-5.0917,-5.0695,-5.0501,-5.0453,-5.0198,-4.9781,-4.9732,-4.9424,-4.9044,-4.8895,-4.861,-4.8258,-4.812,-4.8083,-4.8083,-4.8083,-4.8083,-4.8083,-4.8083,-4.8083,-4.8083,-4.8083,-4.8083,-4.8083,-4.8083,-4.8083,-4.8083,-4.8083,-4.8083,-4.817,-4.8559,-4.8795,-4.9009,-4.934,-4.9634,-4.9683,-4.9732,-4.9732,-4.9732,-4.9732,-4.9732,-4.9683,-4.962,-4.9537,-4.9404,-4.9157,-4.8945,-4.8559,-4.8308,-4.817,-4.8134,-4.8083,-4.8083,-4.8083,-4.8083,-4.8083,-4.8083,-4.8083,-4.8083,-4.8083,-4.8083,-4.8083,-4.8083,-4.8083,-4.8083,-4.8083,-4.8083,-4.8083,-4.8083,-4.8083,-4.8083,-4.8083,-4.8083,-4.8083,-4.8083,-4.8083,-4.8083,-4.8083,-4.8083,-4.8083,-4.8083,-4.8083,-4.8083,-4.7943,-4.7642,-4.7178,-4.6574,-4.6012,-4.545,-4.4888,-4.4607,-4.4453,-4.4425,-4.4425,-4.4425,-4.4425,-4.4425,-4.4425,-4.4425,-4.4425,-4.4425,-4.4425,-4.4425,-4.4425,-4.4425,-4.4425,-4.4425,-4.4425,-4.4425,-4.4425,-5.1229,-5.1229,-5.1229,-5.1229,-5.1167,-5.0917,-5.0695,-5.0501,-5.0294,-4.9975,-4.9732,-4.9669,-4.9375,-4.8959,-4.8845,-4.8559,-4.8221,-4.8083,-4.8083,-4.8083,-4.8083,-4.8083,-4.8083,-4.8083,-4.8083,-4.8083,-4.8083,-4.8083,-4.8083,-4.8083,-4.8083,-4.8083,-4.8083,-4.8083,-4.812,-4.8509,-4.8695,-4.8859,-4.9157,-4.9488,-4.9585,-4.9683,-4.9732,-4.9732,-4.9732,-4.9683,-4.9634,-4.9502,-4.9404,-4.9256,-4.8859,-4.8559,-4.8221,-4.812,-4.812,-4.8083,-4.8083,-4.8083,-4.8083,-4.8083,-4.8083,-4.8083,-4.8083,-4.8083,-4.8083,-4.8083,-4.8083,-4.8083,-4.8083,-4.8083,-4.8083,-4.8083,-4.8083,-4.8083,-4.8083,-4.8083,-4.8083,-4.8083,-4.8083,-4.8083,-4.8083,-4.8083,-4.8083,-4.8083,-4.8083,-4.8083,-4.8083,-4.8083,-4.8083,-4.7859,-4.7642,-4.7094,-4.6504,-4.5914,-4.524,-4.4776,-4.4621,-4.4467,-4.4425,-4.4425,-4.4425,-4.4425,-4.4425,-4.4425,-4.4425,-4.4425,-4.4425,-4.4425,-4.4425,-4.4425,-4.4425,-4.4425,-4.4425,-4.4425,-4.4425,-5.1229,-5.1229,-5.1229,-5.112,-5.1011,-5.079,-5.0519,-5.0294,-5.0038,-4.9829,-4.9669,-4.9537,-4.9305,-4.8909,-4.8795,-4.8559,-4.817,-4.8134,-4.8083,-4.8083,-4.8083,-4.8083,-4.8083,-4.8083,-4.8083,-4.8083,-4.8083,-4.8083,-4.8083,-4.8083,-4.8083,-4.8083,-4.8083,-4.812,-4.812,-4.8344,-4.8531,-4.876,-4.9009,-4.9207,-4.9389,-4.9537,-4.9683,-4.9732,-4.9683,-4.9634,-4.9502,-4.9369,-4.9157,-4.8959,-4.8509,-4.8358,-4.817,-4.812,-4.8083,-4.8083,-4.8083,-4.8083,-4.8083,-4.8083,-4.8083,-4.8083,-4.8083,-4.8083,-4.8083,-4.8083,-4.8083,-4.8083,-4.8083,-4.8083,-4.8083,-4.8083,-4.8083,-4.8083,-4.8083,-4.8083,-4.8083,-4.8083,-4.8083,-4.8083,-4.8083,-4.8083,-4.8083,-4.8083,-4.8083,-4.8083,-4.8083,-4.8083,-4.8083,-4.8083,-4.783,-4.7614,-4.7038,-4.6209,-4.538,-4.5001,-4.4818,-4.465,-4.4425,-4.4425,-4.4425,-4.4425,-4.4425,-4.4425,-4.4425,-4.4425,-4.4425,-4.4425,-4.4425,-4.4425,-4.4425,-4.4425,-4.4425,-4.4425,-4.4425,-5.1229,-5.1229,-5.1229,-5.1073,-5.0775,-5.0581,-5.0342,-5.0086,-4.9844,-4.9669,-4.9585,-4.9355,-4.9108,-4.8895,-4.8581,-4.8358,-4.817,-4.812,-4.8083,-4.8083,-4.8083,-4.8083,-4.8083,-4.8083,-4.8083,-4.8083,-4.8083,-4.8083,-4.8083,-4.8083,-4.8083,-4.8083,-4.8083,-4.8083,-4.817,-4.8308,-4.8445,-4.8595,-4.876,-4.8859,-4.9093,-4.934,-4.9488,-4.9585,-4.9571,-4.9438,-4.9305,-4.9157,-4.8909,-4.866,-4.8308,-4.817,-4.812,-4.8083,-4.8083,-4.8083,-4.8083,-4.8083,-4.8083,-4.8083,-4.8083,-4.8083,-4.8083,-4.8083,-4.8083,-4.8083,-4.8083,-4.8083,-4.8083,-4.8083,-4.8083,-4.8083,-4.8083,-4.8083,-4.8083,-4.8083,-4.8083,-4.8083,-4.8083,-4.8083,-4.8083,-4.8083,-4.8083,-4.8083,-4.8083,-4.8083,-4.8083,-4.8083,-4.8083,-4.8083,-4.7971,-4.783,-4.7586,-4.6638,-4.5703,-4.524,-4.5043,-4.4621,-4.4425,-4.4425,-4.4425,-4.4425,-4.4425,-4.4425,-4.4425,-4.4425,-4.4425,-4.4425,-4.4425,-4.4425,-4.4425,-4.4425,-4.4425,-4.4425,-4.4425,-5.1229,-5.1229,-5.1229,-5.1058,-5.0775,-5.0581,-5.0342,-5.0086,-4.9829,-4.9585,-4.9355,-4.9108,-4.8909,-4.8895,-4.8581,-4.8344,-4.812,-4.8083,-4.8083,-4.8083,-4.8083,-4.8083,-4.8083,-4.8083,-4.8083,-4.8083,-4.8083,-4.8083,-4.8083,-4.8083,-4.8083,-4.8083,-4.8083,-4.8083,-4.8134,-4.8221,-4.8308,-4.8409,-4.8545,-4.8645,-4.881,-4.8994,-4.8994,-4.9044,-4.9044,-4.8994,-4.8945,-4.8745,-4.8645,-4.8445,-4.8258,-4.812,-4.8083,-4.8083,-4.8083,-4.8083,-4.8083,-4.8083,-4.8083,-4.8083,-4.8083,-4.8083,-4.8083,-4.8083,-4.8083,-4.8083,-4.8083,-4.8083,-4.8083,-4.8083,-4.8083,-4.8083,-4.8083,-4.8083,-4.8083,-4.8083,-4.8083,-4.8083,-4.8083,-4.8083,-4.8083,-4.8083,-4.8083,-4.8083,-4.8083,-4.8083,-4.8083,-4.8083,-4.8083,-4.8083,-4.8083,-4.7999,-4.7887,-4.7263,-4.6335,-4.5605,-4.5254,-4.4776,-4.4425,-4.4425,-4.4425,-4.4425,-4.4425,-4.4425,-4.4425,-4.4425,-4.4425,-4.4425,-4.4425,-4.4425,-4.4425,-4.4425,-4.4425,-4.4425,-4.4425]}]]